<?xml version='1.0' encoding='UTF-8'?><gpx version="1.1" creator="JPX - https://github.com/jenetics/jpx" xmlns="http://www.topografix.com/GPX/1/1"><trk><trkseg><trkpt lat="48.51448754142779" lon="7.7276423952886955"><ele>151.0</ele><time>2026-04-23T08:55:57Z</time></trkpt><trkpt lat="48.51438499926596" lon="7.72762910679289"><ele>151.0</ele><time>2026-04-23T08:55:59Z</time></trkpt><trkpt lat="48.51428365717402" lon="7.7276038256505375"><ele>151.0</ele><time>2026-04-23T08:56:01Z</time></trkpt><trkpt lat="48.514178364367254" lon="7.727593960748106"><ele>151.0</ele><time>2026-04-23T08:56:03Z</time></trkpt><trkpt lat="48.51407289989911" lon="7.727580993954734"><ele>151.0</ele><time>2026-04-23T08:56:05Z</time></trkpt><trkpt lat="48.51396830356868" lon="7.7275635031127905"><ele>151.0</ele><time>2026-04-23T08:56:07Z</time></trkpt><trkpt lat="48.51386834210448" lon="7.727551170628438"><ele>151.0</ele><time>2026-04-23T08:56:09Z</time></trkpt><trkpt lat="48.513763186290866" lon="7.727539372703653"><ele>151.0</ele><time>2026-04-23T08:56:11Z</time></trkpt><trkpt lat="48.51366715358429" lon="7.727535188451708"><ele>151.0</ele><time>2026-04-23T08:56:13Z</time></trkpt><trkpt lat="48.513575517800035" lon="7.727512320778857"><ele>151.0</ele><time>2026-04-23T08:56:15Z</time></trkpt><trkpt lat="48.513472972131666" lon="7.727477481879663"><ele>150.4</ele><time>2026-04-23T08:56:17Z</time></trkpt><trkpt lat="48.513379232595646" lon="7.72745973512591"><ele>149.8</ele><time>2026-04-23T08:56:19Z</time></trkpt><trkpt lat="48.51326565890046" lon="7.727452486709739"><ele>149.20000000000002</ele><time>2026-04-23T08:56:21Z</time></trkpt><trkpt lat="48.51318788757324" lon="7.727417998388117"><ele>148.6</ele><time>2026-04-23T08:56:23Z</time></trkpt><trkpt lat="48.51312313622153" lon="7.727416815845376"><ele>148.0</ele><time>2026-04-23T08:56:24Z</time></trkpt><trkpt lat="48.51300757686978" lon="7.727430213981333"><ele>148.8</ele><time>2026-04-23T08:56:26Z</time></trkpt><trkpt lat="48.51289772600265" lon="7.727417128746453"><ele>149.60000000000002</ele><time>2026-04-23T08:56:28Z</time></trkpt><trkpt lat="48.51279765236035" lon="7.727398674287554"><ele>150.39999999999998</ele><time>2026-04-23T08:56:30Z</time></trkpt><trkpt lat="48.512699512773395" lon="7.727403722763798"><ele>151.2</ele><time>2026-04-23T08:56:32Z</time></trkpt><trkpt lat="48.51259726526923" lon="7.72738522062227"><ele>152.0</ele><time>2026-04-23T08:56:34Z</time></trkpt><trkpt lat="48.51249095529327" lon="7.727374372510089"><ele>152.0</ele><time>2026-04-23T08:56:36Z</time></trkpt><trkpt lat="48.51239678329759" lon="7.7273529225518285"><ele>152.0</ele><time>2026-04-23T08:56:38Z</time></trkpt><trkpt lat="48.51229687629288" lon="7.727345448145608"><ele>152.0</ele><time>2026-04-23T08:56:40Z</time></trkpt><trkpt lat="48.51218307128786" lon="7.7273389792908"><ele>152.0</ele><time>2026-04-23T08:56:42Z</time></trkpt><trkpt lat="48.51208232658485" lon="7.727311347568546"><ele>152.0</ele><time>2026-04-23T08:56:44Z</time></trkpt><trkpt lat="48.51198226955791" lon="7.727278351759469"><ele>151.5</ele><time>2026-04-23T08:56:46Z</time></trkpt><trkpt lat="48.511909614506706" lon="7.7272867611722"><ele>151.0</ele><time>2026-04-23T08:56:47Z</time></trkpt><trkpt lat="48.5118430670972" lon="7.727293227731349"><ele>150.5</ele><time>2026-04-23T08:56:48Z</time></trkpt><trkpt lat="48.51173750942569" lon="7.727274471673214"><ele>150.0</ele><time>2026-04-23T08:56:50Z</time></trkpt><trkpt lat="48.51164522891592" lon="7.727273706395354"><ele>149.5</ele><time>2026-04-23T08:56:52Z</time></trkpt><trkpt lat="48.511581463966415" lon="7.7272472554304015"><ele>149.0</ele><time>2026-04-23T08:56:53Z</time></trkpt><trkpt lat="48.51145783228646" lon="7.727240928150045"><ele>149.0</ele><time>2026-04-23T08:56:55Z</time></trkpt><trkpt lat="48.511392501908695" lon="7.727217809616936"><ele>149.0</ele><time>2026-04-23T08:56:56Z</time></trkpt><trkpt lat="48.511281900400434" lon="7.727213282294377"><ele>149.0</ele><time>2026-04-23T08:56:58Z</time></trkpt><trkpt lat="48.511214323513904" lon="7.72724581627836"><ele>149.0</ele><time>2026-04-23T08:57:00Z</time></trkpt><trkpt lat="48.51108393431009" lon="7.727211122500307"><ele>149.0</ele><time>2026-04-23T08:57:03Z</time></trkpt><trkpt lat="48.51102386551991" lon="7.72724079819834"><ele>149.0</ele><time>2026-04-23T08:57:04Z</time></trkpt><trkpt lat="48.510930018603894" lon="7.727303286050771"><ele>148.0</ele><time>2026-04-23T08:57:06Z</time></trkpt><trkpt lat="48.51084025277635" lon="7.727358637154854"><ele>147.0</ele><time>2026-04-23T08:57:08Z</time></trkpt><trkpt lat="48.51076737767673" lon="7.727388397256929"><ele>146.0</ele><time>2026-04-23T08:57:09Z</time></trkpt><trkpt lat="48.510716792468884" lon="7.727307865561822"><ele>145.0</ele><time>2026-04-23T08:57:10Z</time></trkpt><trkpt lat="48.51064527090857" lon="7.727267708470987"><ele>144.0</ele><time>2026-04-23T08:57:11Z</time></trkpt><trkpt lat="48.51057539449672" lon="7.727256814646634"><ele>143.0</ele><time>2026-04-23T08:57:12Z</time></trkpt><trkpt lat="48.51047301823792" lon="7.727203880216047"><ele>143.0</ele><time>2026-04-23T08:57:14Z</time></trkpt><trkpt lat="48.51035894251863" lon="7.727172548142212"><ele>143.0</ele><time>2026-04-23T08:57:16Z</time></trkpt><trkpt lat="48.51023856618738" lon="7.727166239221452"><ele>143.0</ele><time>2026-04-23T08:57:18Z</time></trkpt><trkpt lat="48.51017333902623" lon="7.727156106822084"><ele>143.0</ele><time>2026-04-23T08:57:19Z</time></trkpt><trkpt lat="48.51005476172896" lon="7.72714231072009"><ele>143.0</ele><time>2026-04-23T08:57:21Z</time></trkpt><trkpt lat="48.50994459471586" lon="7.727126393847582"><ele>143.0</ele><time>2026-04-23T08:57:23Z</time></trkpt><trkpt lat="48.509841572250544" lon="7.727095129085439"><ele>143.0</ele><time>2026-04-23T08:57:25Z</time></trkpt><trkpt lat="48.50972149193283" lon="7.7270902473580145"><ele>143.0</ele><time>2026-04-23T08:57:27Z</time></trkpt><trkpt lat="48.50960246930051" lon="7.727085209960386"><ele>143.0</ele><time>2026-04-23T08:57:29Z</time></trkpt><trkpt lat="48.50950136042229" lon="7.7270684128454175"><ele>143.0</ele><time>2026-04-23T08:57:31Z</time></trkpt><trkpt lat="48.509386797134496" lon="7.7270525101044365"><ele>143.8</ele><time>2026-04-23T08:57:33Z</time></trkpt><trkpt lat="48.50927076254164" lon="7.7270285544194754"><ele>144.60000000000002</ele><time>2026-04-23T08:57:35Z</time></trkpt><trkpt lat="48.509165468337656" lon="7.727009521877697"><ele>145.39999999999998</ele><time>2026-04-23T08:57:37Z</time></trkpt><trkpt lat="48.50905672784004" lon="7.726995161603437"><ele>146.2</ele><time>2026-04-23T08:57:39Z</time></trkpt><trkpt lat="48.5089526350224" lon="7.726979729120025"><ele>147.0</ele><time>2026-04-23T08:57:41Z</time></trkpt><trkpt lat="48.50889102639052" lon="7.726956737686391"><ele>147.0</ele><time>2026-04-23T08:57:42Z</time></trkpt><trkpt lat="48.50879803265812" lon="7.7269044311221"><ele>147.0</ele><time>2026-04-23T08:57:44Z</time></trkpt><trkpt lat="48.50866584452513" lon="7.726894110919022"><ele>147.0</ele><time>2026-04-23T08:57:46Z</time></trkpt><trkpt lat="48.50854943831544" lon="7.726882946067164"><ele>147.0</ele><time>2026-04-23T08:57:48Z</time></trkpt><trkpt lat="48.50843182215805" lon="7.726871307073768"><ele>146.5</ele><time>2026-04-23T08:57:50Z</time></trkpt><trkpt lat="48.508315504113334" lon="7.726851258341602"><ele>146.0</ele><time>2026-04-23T08:57:52Z</time></trkpt><trkpt lat="48.508206961989565" lon="7.726841351417027"><ele>145.5</ele><time>2026-04-23T08:57:54Z</time></trkpt><trkpt lat="48.508095792719494" lon="7.726807764205017"><ele>145.0</ele><time>2026-04-23T08:57:56Z</time></trkpt><trkpt lat="48.50797976660653" lon="7.726799424873557"><ele>145.0</ele><time>2026-04-23T08:57:58Z</time></trkpt><trkpt lat="48.507874377280174" lon="7.7267713128705795"><ele>145.0</ele><time>2026-04-23T08:58:00Z</time></trkpt><trkpt lat="48.507808374639765" lon="7.726764267647065"><ele>145.0</ele><time>2026-04-23T08:58:01Z</time></trkpt><trkpt lat="48.50770761222735" lon="7.726743187892878"><ele>145.0</ele><time>2026-04-23T08:58:03Z</time></trkpt><trkpt lat="48.50760319779468" lon="7.726756707440261"><ele>145.0</ele><time>2026-04-23T08:58:05Z</time></trkpt><trkpt lat="48.50748474707046" lon="7.726734331776593"><ele>145.0</ele><time>2026-04-23T08:58:07Z</time></trkpt><trkpt lat="48.50716813288147" lon="7.7266939358825555"><ele>145.0</ele><time>2026-04-23T08:58:13Z</time></trkpt><trkpt lat="48.507055185935265" lon="7.726690902680706"><ele>145.0</ele><time>2026-04-23T08:58:15Z</time></trkpt><trkpt lat="48.50699152262089" lon="7.726695735594149"><ele>144.8</ele><time>2026-04-23T08:58:16Z</time></trkpt><trkpt lat="48.50689597807373" lon="7.726682115458082"><ele>144.6</ele><time>2026-04-23T08:58:18Z</time></trkpt><trkpt lat="48.50678399529557" lon="7.72666680009803"><ele>144.4</ele><time>2026-04-23T08:58:20Z</time></trkpt><trkpt lat="48.50667282488849" lon="7.726659301728464"><ele>144.2</ele><time>2026-04-23T08:58:22Z</time></trkpt><trkpt lat="48.506568647609434" lon="7.726644514247016"><ele>144.0</ele><time>2026-04-23T08:58:24Z</time></trkpt><trkpt lat="48.50650124031956" lon="7.726641894055996"><ele>144.0</ele><time>2026-04-23T08:58:25Z</time></trkpt><trkpt lat="48.506401712191284" lon="7.726614620309123"><ele>144.0</ele><time>2026-04-23T08:58:27Z</time></trkpt><trkpt lat="48.506298517313695" lon="7.72659529777804"><ele>144.0</ele><time>2026-04-23T08:58:29Z</time></trkpt><trkpt lat="48.50622100376379" lon="7.72652461074267"><ele>144.0</ele><time>2026-04-23T08:58:31Z</time></trkpt><trkpt lat="48.50610097280826" lon="7.726510000247918"><ele>144.0</ele><time>2026-04-23T08:58:33Z</time></trkpt><trkpt lat="48.50598646473172" lon="7.7264796053178575"><ele>144.4</ele><time>2026-04-23T08:58:35Z</time></trkpt><trkpt lat="48.50588516553524" lon="7.726438890404285"><ele>144.8</ele><time>2026-04-23T08:58:37Z</time></trkpt><trkpt lat="48.50578756882011" lon="7.726440328831062"><ele>145.2</ele><time>2026-04-23T08:58:39Z</time></trkpt><trkpt lat="48.50566965474971" lon="7.726371695076264"><ele>145.6</ele><time>2026-04-23T08:58:41Z</time></trkpt><trkpt lat="48.50556754537665" lon="7.726354183569338"><ele>146.0</ele><time>2026-04-23T08:58:43Z</time></trkpt><trkpt lat="48.50546159374271" lon="7.726324307498987"><ele>146.2</ele><time>2026-04-23T08:58:45Z</time></trkpt><trkpt lat="48.505337018827355" lon="7.726313337796626"><ele>146.39999999999998</ele><time>2026-04-23T08:58:47Z</time></trkpt><trkpt lat="48.50526773819938" lon="7.726288079941921"><ele>146.6</ele><time>2026-04-23T08:58:48Z</time></trkpt><trkpt lat="48.505182106513274" lon="7.726265662072813"><ele>146.79999999999998</ele><time>2026-04-23T08:58:49Z</time></trkpt><trkpt lat="48.50505724676871" lon="7.726240647706611"><ele>147.0</ele><time>2026-04-23T08:58:51Z</time></trkpt><trkpt lat="48.50495536062986" lon="7.726240936013786"><ele>147.0</ele><time>2026-04-23T08:58:53Z</time></trkpt><trkpt lat="48.5048277279782" lon="7.726211209658545"><ele>147.0</ele><time>2026-04-23T08:58:55Z</time></trkpt><trkpt lat="48.504749421306386" lon="7.726209331451131"><ele>147.0</ele><time>2026-04-23T08:58:56Z</time></trkpt><trkpt lat="48.50464718036583" lon="7.7262534336677104"><ele>147.0</ele><time>2026-04-23T08:58:58Z</time></trkpt><trkpt lat="48.50452852430421" lon="7.726239221129057"><ele>147.0</ele><time>2026-04-23T08:59:00Z</time></trkpt><trkpt lat="48.50442195171954" lon="7.726283708607214"><ele>147.4</ele><time>2026-04-23T08:59:02Z</time></trkpt><trkpt lat="48.504299586468704" lon="7.726302326157621"><ele>147.79999999999998</ele><time>2026-04-23T08:59:04Z</time></trkpt><trkpt lat="48.50417988117708" lon="7.726346827802015"><ele>148.2</ele><time>2026-04-23T08:59:06Z</time></trkpt><trkpt lat="48.504116724194674" lon="7.7263213428329935"><ele>148.6</ele><time>2026-04-23T08:59:07Z</time></trkpt><trkpt lat="48.50404746223345" lon="7.726284796196135"><ele>149.0</ele><time>2026-04-23T08:59:08Z</time></trkpt><trkpt lat="48.5039404198665" lon="7.7262995000122086"><ele>149.0</ele><time>2026-04-23T08:59:10Z</time></trkpt><trkpt lat="48.503879083085614" lon="7.726276271295253"><ele>149.0</ele><time>2026-04-23T08:59:11Z</time></trkpt><trkpt lat="48.50381048949421" lon="7.726242002781476"><ele>149.0</ele><time>2026-04-23T08:59:12Z</time></trkpt><trkpt lat="48.50370350883125" lon="7.726263195775019"><ele>149.0</ele><time>2026-04-23T08:59:14Z</time></trkpt><trkpt lat="48.50363904571036" lon="7.726249425988723"><ele>149.0</ele><time>2026-04-23T08:59:15Z</time></trkpt><trkpt lat="48.503526916791515" lon="7.726264934387865"><ele>149.0</ele><time>2026-04-23T08:59:17Z</time></trkpt><trkpt lat="48.503423263090866" lon="7.726239870565457"><ele>148.8</ele><time>2026-04-23T08:59:19Z</time></trkpt><trkpt lat="48.503305888177934" lon="7.726140122009084"><ele>148.60000000000002</ele><time>2026-04-23T08:59:21Z</time></trkpt><trkpt lat="48.50318962156815" lon="7.726116964907059"><ele>148.4</ele><time>2026-04-23T08:59:23Z</time></trkpt><trkpt lat="48.503124894485104" lon="7.726086481506066"><ele>148.20000000000002</ele><time>2026-04-23T08:59:24Z</time></trkpt><trkpt lat="48.50300434422477" lon="7.7260611494061555"><ele>148.0</ele><time>2026-04-23T08:59:26Z</time></trkpt><trkpt lat="48.502894400739265" lon="7.726086868580677"><ele>147.4</ele><time>2026-04-23T08:59:28Z</time></trkpt><trkpt lat="48.502775447700316" lon="7.726059420336041"><ele>146.8</ele><time>2026-04-23T08:59:30Z</time></trkpt><trkpt lat="48.50271361279916" lon="7.726115387998625"><ele>146.2</ele><time>2026-04-23T08:59:31Z</time></trkpt><trkpt lat="48.502605407298475" lon="7.72612118402547"><ele>145.6</ele><time>2026-04-23T08:59:33Z</time></trkpt><trkpt lat="48.50253815900783" lon="7.726092224012641"><ele>145.0</ele><time>2026-04-23T08:59:34Z</time></trkpt><trkpt lat="48.502422029058174" lon="7.726077571570942"><ele>145.0</ele><time>2026-04-23T08:59:36Z</time></trkpt><trkpt lat="48.502301776873836" lon="7.726096241965428"><ele>145.0</ele><time>2026-04-23T08:59:38Z</time></trkpt><trkpt lat="48.502239659013526" lon="7.726124572769771"><ele>145.0</ele><time>2026-04-23T08:59:39Z</time></trkpt><trkpt lat="48.5021257862815" lon="7.726096838683204"><ele>145.0</ele><time>2026-04-23T08:59:41Z</time></trkpt><trkpt lat="48.50200778822969" lon="7.726071762742989"><ele>145.0</ele><time>2026-04-23T08:59:43Z</time></trkpt><trkpt lat="48.50194064241833" lon="7.726080407428261"><ele>144.5</ele><time>2026-04-23T08:59:44Z</time></trkpt><trkpt lat="48.501867953670946" lon="7.726051736595401"><ele>144.0</ele><time>2026-04-23T08:59:45Z</time></trkpt><trkpt lat="48.501785456812186" lon="7.72604530913042"><ele>143.5</ele><time>2026-04-23T08:59:47Z</time></trkpt><trkpt lat="48.501705181894124" lon="7.726052753827127"><ele>143.0</ele><time>2026-04-23T08:59:49Z</time></trkpt><trkpt lat="48.50160012357421" lon="7.726046656645999"><ele>142.5</ele><time>2026-04-23T08:59:51Z</time></trkpt><trkpt lat="48.5015384448845" lon="7.726025026639306"><ele>142.0</ele><time>2026-04-23T08:59:52Z</time></trkpt><trkpt lat="48.50137745840395" lon="7.725908287156116"><ele>142.0</ele><time>2026-04-23T08:59:54Z</time></trkpt><trkpt lat="48.50129877816433" lon="7.725892904484613"><ele>142.0</ele><time>2026-04-23T08:59:55Z</time></trkpt><trkpt lat="48.50117603470923" lon="7.72591250535458"><ele>142.0</ele><time>2026-04-23T08:59:57Z</time></trkpt><trkpt lat="48.501110414064605" lon="7.725916301504336"><ele>142.0</ele><time>2026-04-23T08:59:58Z</time></trkpt><trkpt lat="48.501039174871636" lon="7.725906497781011"><ele>142.0</ele><time>2026-04-23T08:59:59Z</time></trkpt><trkpt lat="48.50097204610416" lon="7.725909344163024"><ele>142.0</ele><time>2026-04-23T09:00:00Z</time></trkpt><trkpt lat="48.50087329492121" lon="7.725912207462258"><ele>142.4</ele><time>2026-04-23T09:00:02Z</time></trkpt><trkpt lat="48.50076509468263" lon="7.725876942924093"><ele>142.79999999999998</ele><time>2026-04-23T09:00:04Z</time></trkpt><trkpt lat="48.50065537405703" lon="7.725862173720126"><ele>143.2</ele><time>2026-04-23T09:00:06Z</time></trkpt><trkpt lat="48.50054973130596" lon="7.725848570418137"><ele>143.6</ele><time>2026-04-23T09:00:08Z</time></trkpt><trkpt lat="48.500483011076234" lon="7.725826581733497"><ele>144.0</ele><time>2026-04-23T09:00:09Z</time></trkpt><trkpt lat="48.50037791963261" lon="7.725815207452632"><ele>144.2</ele><time>2026-04-23T09:00:11Z</time></trkpt><trkpt lat="48.500269386793335" lon="7.725804065266811"><ele>144.4</ele><time>2026-04-23T09:00:13Z</time></trkpt><trkpt lat="48.50016018393182" lon="7.72576821923698"><ele>144.6</ele><time>2026-04-23T09:00:15Z</time></trkpt><trkpt lat="48.500068365041315" lon="7.725754559063862"><ele>144.8</ele><time>2026-04-23T09:00:17Z</time></trkpt><trkpt lat="48.499948998723994" lon="7.725722837136089"><ele>145.0</ele><time>2026-04-23T09:00:19Z</time></trkpt><trkpt lat="48.499841074007286" lon="7.725706249448722"><ele>145.0</ele><time>2026-04-23T09:00:21Z</time></trkpt><trkpt lat="48.49973082320516" lon="7.725704225092101"><ele>145.0</ele><time>2026-04-23T09:00:23Z</time></trkpt><trkpt lat="48.499614107087275" lon="7.725709957666596"><ele>145.0</ele><time>2026-04-23T09:00:25Z</time></trkpt><trkpt lat="48.49950508319137" lon="7.725678301163249"><ele>145.0</ele><time>2026-04-23T09:00:27Z</time></trkpt><trkpt lat="48.49938948903431" lon="7.725678159802542"><ele>145.25</ele><time>2026-04-23T09:00:29Z</time></trkpt><trkpt lat="48.49927269088941" lon="7.725660870818083"><ele>145.5</ele><time>2026-04-23T09:00:31Z</time></trkpt><trkpt lat="48.49915938766258" lon="7.725646345940608"><ele>145.75</ele><time>2026-04-23T09:00:33Z</time></trkpt><trkpt lat="48.499045177416264" lon="7.725608143858017"><ele>146.0</ele><time>2026-04-23T09:00:35Z</time></trkpt><trkpt lat="48.49892546120159" lon="7.7256089741888045"><ele>146.0</ele><time>2026-04-23T09:00:37Z</time></trkpt><trkpt lat="48.498801620072115" lon="7.725604735450405"><ele>146.0</ele><time>2026-04-23T09:00:39Z</time></trkpt><trkpt lat="48.49870133661101" lon="7.725632106653735"><ele>146.0</ele><time>2026-04-23T09:00:41Z</time></trkpt><trkpt lat="48.49858118928894" lon="7.725597751816437"><ele>146.0</ele><time>2026-04-23T09:00:43Z</time></trkpt><trkpt lat="48.49851933091144" lon="7.725572178426514"><ele>146.0</ele><time>2026-04-23T09:00:44Z</time></trkpt><trkpt lat="48.49840034460561" lon="7.725546742963268"><ele>146.0</ele><time>2026-04-23T09:00:46Z</time></trkpt><trkpt lat="48.49829064948408" lon="7.725506291638794"><ele>146.0</ele><time>2026-04-23T09:00:48Z</time></trkpt><trkpt lat="48.498171899764976" lon="7.725505758681432"><ele>146.0</ele><time>2026-04-23T09:00:50Z</time></trkpt><trkpt lat="48.4981083426154" lon="7.7254845783011366"><ele>146.0</ele><time>2026-04-23T09:00:51Z</time></trkpt><trkpt lat="48.497989114884646" lon="7.725479827110075"><ele>146.0</ele><time>2026-04-23T09:00:53Z</time></trkpt><trkpt lat="48.4978798031261" lon="7.725469789036245"><ele>145.75</ele><time>2026-04-23T09:00:55Z</time></trkpt><trkpt lat="48.497765409777955" lon="7.725461847923518"><ele>145.5</ele><time>2026-04-23T09:00:57Z</time></trkpt><trkpt lat="48.49765041798031" lon="7.725425113477404"><ele>145.25</ele><time>2026-04-23T09:00:59Z</time></trkpt><trkpt lat="48.49752863742643" lon="7.7254152311113655"><ele>145.0</ele><time>2026-04-23T09:01:01Z</time></trkpt><trkpt lat="48.49741610759204" lon="7.725392070006008"><ele>145.0</ele><time>2026-04-23T09:01:03Z</time></trkpt><trkpt lat="48.49730416515367" lon="7.725370999315476"><ele>145.0</ele><time>2026-04-23T09:01:05Z</time></trkpt><trkpt lat="48.497179064599365" lon="7.725351291953129"><ele>145.0</ele><time>2026-04-23T09:01:07Z</time></trkpt><trkpt lat="48.49706486949781" lon="7.725355766884799"><ele>145.0</ele><time>2026-04-23T09:01:09Z</time></trkpt><trkpt lat="48.49695300285699" lon="7.725344961253876"><ele>144.25</ele><time>2026-04-23T09:01:11Z</time></trkpt><trkpt lat="48.496838970638784" lon="7.725323812787236"><ele>143.5</ele><time>2026-04-23T09:01:13Z</time></trkpt><trkpt lat="48.496723175575056" lon="7.725304650186862"><ele>142.75</ele><time>2026-04-23T09:01:15Z</time></trkpt><trkpt lat="48.496609759800805" lon="7.7253168579541"><ele>142.0</ele><time>2026-04-23T09:01:17Z</time></trkpt><trkpt lat="48.49649786173663" lon="7.725282943658726"><ele>142.0</ele><time>2026-04-23T09:01:19Z</time></trkpt><trkpt lat="48.496379334682544" lon="7.725293004954664"><ele>142.0</ele><time>2026-04-23T09:01:21Z</time></trkpt><trkpt lat="48.496263933169104" lon="7.725266345636372"><ele>142.0</ele><time>2026-04-23T09:01:23Z</time></trkpt><trkpt lat="48.496148273191686" lon="7.725252558091793"><ele>142.0</ele><time>2026-04-23T09:01:25Z</time></trkpt><trkpt lat="48.49603165587517" lon="7.725247340495154"><ele>142.0</ele><time>2026-04-23T09:01:27Z</time></trkpt><trkpt lat="48.495916262162716" lon="7.725244951405694"><ele>142.0</ele><time>2026-04-23T09:01:29Z</time></trkpt><trkpt lat="48.49580417339473" lon="7.725204023128024"><ele>142.0</ele><time>2026-04-23T09:01:31Z</time></trkpt><trkpt lat="48.49568363336829" lon="7.725172720555717"><ele>142.0</ele><time>2026-04-23T09:01:33Z</time></trkpt><trkpt lat="48.495566857618975" lon="7.725155737356754"><ele>142.2</ele><time>2026-04-23T09:01:35Z</time></trkpt><trkpt lat="48.49544657006819" lon="7.72516694230313"><ele>142.39999999999998</ele><time>2026-04-23T09:01:37Z</time></trkpt><trkpt lat="48.49538197079621" lon="7.725132781108734"><ele>142.60000000000002</ele><time>2026-04-23T09:01:38Z</time></trkpt><trkpt lat="48.49526350309243" lon="7.725123897540294"><ele>142.8</ele><time>2026-04-23T09:01:40Z</time></trkpt><trkpt lat="48.49514504945284" lon="7.725100634345584"><ele>143.0</ele><time>2026-04-23T09:01:42Z</time></trkpt><trkpt lat="48.49502447167201" lon="7.725105944089435"><ele>143.0</ele><time>2026-04-23T09:01:44Z</time></trkpt><trkpt lat="48.49491753260252" lon="7.7250972481184705"><ele>143.0</ele><time>2026-04-23T09:01:46Z</time></trkpt><trkpt lat="48.49481035842596" lon="7.725081301825401"><ele>143.0</ele><time>2026-04-23T09:01:48Z</time></trkpt><trkpt lat="48.49474653271519" lon="7.725081545793576"><ele>143.0</ele><time>2026-04-23T09:01:49Z</time></trkpt><trkpt lat="48.49464384163647" lon="7.725059689833571"><ele>143.0</ele><time>2026-04-23T09:01:51Z</time></trkpt><trkpt lat="48.494547256957276" lon="7.725048465281111"><ele>143.4</ele><time>2026-04-23T09:01:53Z</time></trkpt><trkpt lat="48.49443188564161" lon="7.725010296192961"><ele>143.8</ele><time>2026-04-23T09:01:55Z</time></trkpt><trkpt lat="48.49432097595734" lon="7.725017162378771"><ele>144.2</ele><time>2026-04-23T09:01:57Z</time></trkpt><trkpt lat="48.494226181075824" lon="7.725021016986298"><ele>144.6</ele><time>2026-04-23T09:01:59Z</time></trkpt><trkpt lat="48.4941351587317" lon="7.725010346971264"><ele>145.0</ele><time>2026-04-23T09:02:01Z</time></trkpt><trkpt lat="48.49405768215651" lon="7.725006645801277"><ele>145.0</ele><time>2026-04-23T09:02:02Z</time></trkpt><trkpt lat="48.4939685569402" lon="7.725031269652053"><ele>145.0</ele><time>2026-04-23T09:02:06Z</time></trkpt><trkpt lat="48.49388911377808" lon="7.725008663269368"><ele>145.0</ele><time>2026-04-23T09:02:08Z</time></trkpt><trkpt lat="48.49378837973469" lon="7.724980777008154"><ele>145.0</ele><time>2026-04-23T09:02:10Z</time></trkpt><trkpt lat="48.493704168514725" lon="7.724985102403177"><ele>145.0</ele><time>2026-04-23T09:02:13Z</time></trkpt><trkpt lat="48.49356346478741" lon="7.724986016945469"><ele>145.5</ele><time>2026-04-23T09:02:15Z</time></trkpt><trkpt lat="48.49348002524545" lon="7.724980347789708"><ele>146.0</ele><time>2026-04-23T09:02:16Z</time></trkpt><trkpt lat="48.49339949348977" lon="7.724938180017277"><ele>146.5</ele><time>2026-04-23T09:02:17Z</time></trkpt><trkpt lat="48.49328882885366" lon="7.724941406958581"><ele>147.0</ele><time>2026-04-23T09:02:19Z</time></trkpt><trkpt lat="48.49322292341637" lon="7.724909318113115"><ele>147.5</ele><time>2026-04-23T09:02:21Z</time></trkpt><trkpt lat="48.493163625109474" lon="7.7248758339076025"><ele>148.0</ele><time>2026-04-23T09:02:22Z</time></trkpt><trkpt lat="48.49305937772294" lon="7.724885082327088"><ele>148.0</ele><time>2026-04-23T09:02:24Z</time></trkpt><trkpt lat="48.49296099916917" lon="7.724862906394829"><ele>148.0</ele><time>2026-04-23T09:02:26Z</time></trkpt><trkpt lat="48.492861919262864" lon="7.72486081233334"><ele>148.0</ele><time>2026-04-23T09:02:29Z</time></trkpt><trkpt lat="48.492798682487255" lon="7.7248495430805955"><ele>148.0</ele><time>2026-04-23T09:02:30Z</time></trkpt><trkpt lat="48.49271935424349" lon="7.724825225005553"><ele>148.0</ele><time>2026-04-23T09:02:32Z</time></trkpt><trkpt lat="48.49262723355127" lon="7.724817970579401"><ele>148.0</ele><time>2026-04-23T09:02:34Z</time></trkpt><trkpt lat="48.49251952024782" lon="7.7247900072307525"><ele>148.20000000000002</ele><time>2026-04-23T09:02:36Z</time></trkpt><trkpt lat="48.49243822260397" lon="7.7247598522521335"><ele>148.4</ele><time>2026-04-23T09:02:38Z</time></trkpt><trkpt lat="48.492341423756294" lon="7.724751118610206"><ele>148.60000000000002</ele><time>2026-04-23T09:02:40Z</time></trkpt><trkpt lat="48.49225079494953" lon="7.724712592394053"><ele>148.8</ele><time>2026-04-23T09:02:42Z</time></trkpt><trkpt lat="48.49217140350509" lon="7.724688527008522"><ele>149.0</ele><time>2026-04-23T09:02:44Z</time></trkpt><trkpt lat="48.49207513136007" lon="7.724648266770922"><ele>148.4</ele><time>2026-04-23T09:02:46Z</time></trkpt><trkpt lat="48.4919725208157" lon="7.7246134259481485"><ele>147.8</ele><time>2026-04-23T09:02:48Z</time></trkpt><trkpt lat="48.49188323987807" lon="7.724586638588136"><ele>147.2</ele><time>2026-04-23T09:02:50Z</time></trkpt><trkpt lat="48.49176791646272" lon="7.72453652970164"><ele>146.6</ele><time>2026-04-23T09:02:52Z</time></trkpt><trkpt lat="48.491663476728334" lon="7.724501681352639"><ele>146.0</ele><time>2026-04-23T09:02:54Z</time></trkpt><trkpt lat="48.49157226320193" lon="7.724502963671148"><ele>146.0</ele><time>2026-04-23T09:02:56Z</time></trkpt><trkpt lat="48.4915072806497" lon="7.7244725512387875"><ele>146.0</ele><time>2026-04-23T09:02:59Z</time></trkpt><trkpt lat="48.49143977558419" lon="7.724472466419115"><ele>146.0</ele><time>2026-04-23T09:03:01Z</time></trkpt><trkpt lat="48.491347588472806" lon="7.724463329051132"><ele>146.0</ele><time>2026-04-23T09:03:04Z</time></trkpt><trkpt lat="48.49122198199779" lon="7.724405351404771"><ele>146.0</ele><time>2026-04-23T09:03:06Z</time></trkpt><trkpt lat="48.4911423936274" lon="7.724377926092499"><ele>146.0</ele><time>2026-04-23T09:03:07Z</time></trkpt><trkpt lat="48.49107963632507" lon="7.724325190866627"><ele>146.8</ele><time>2026-04-23T09:03:08Z</time></trkpt><trkpt lat="48.490968868988034" lon="7.724264877242303"><ele>147.6</ele><time>2026-04-23T09:03:10Z</time></trkpt><trkpt lat="48.49086933569667" lon="7.724237030882405"><ele>148.4</ele><time>2026-04-23T09:03:12Z</time></trkpt><trkpt lat="48.49077180276313" lon="7.724199926023631"><ele>149.2</ele><time>2026-04-23T09:03:14Z</time></trkpt><trkpt lat="48.490654733321" lon="7.724153085476739"><ele>150.0</ele><time>2026-04-23T09:03:16Z</time></trkpt><trkpt lat="48.49055286704118" lon="7.724122451686893"><ele>150.0</ele><time>2026-04-23T09:03:18Z</time></trkpt><trkpt lat="48.490493079527404" lon="7.724090656998443"><ele>150.0</ele><time>2026-04-23T09:03:19Z</time></trkpt><trkpt lat="48.49039504886413" lon="7.724048223623214"><ele>150.0</ele><time>2026-04-23T09:03:21Z</time></trkpt><trkpt lat="48.490288776329265" lon="7.724014437496599"><ele>150.0</ele><time>2026-04-23T09:03:23Z</time></trkpt><trkpt lat="48.49022879964613" lon="7.723959960012177"><ele>150.0</ele><time>2026-04-23T09:03:24Z</time></trkpt><trkpt lat="48.49012632669754" lon="7.723936124938071"><ele>150.0</ele><time>2026-04-23T09:03:26Z</time></trkpt><trkpt lat="48.490037864982455" lon="7.723907504100599"><ele>149.83333333333334</ele><time>2026-04-23T09:03:28Z</time></trkpt><trkpt lat="48.48994717846901" lon="7.723854953756753"><ele>149.66666666666666</ele><time>2026-04-23T09:03:30Z</time></trkpt><trkpt lat="48.489860519954185" lon="7.723832254272001"><ele>149.5</ele><time>2026-04-23T09:03:32Z</time></trkpt><trkpt lat="48.48978379903265" lon="7.723810093793653"><ele>149.33333333333331</ele><time>2026-04-23T09:03:34Z</time></trkpt><trkpt lat="48.48972041685007" lon="7.72377350305838"><ele>149.16666666666666</ele><time>2026-04-23T09:03:35Z</time></trkpt><trkpt lat="48.489651984763064" lon="7.723738690985388"><ele>149.0</ele><time>2026-04-23T09:03:37Z</time></trkpt><trkpt lat="48.48957801063047" lon="7.723718875495953"><ele>148.16666666666666</ele><time>2026-04-23T09:03:39Z</time></trkpt><trkpt lat="48.48950485210574" lon="7.7236734839572545"><ele>147.33333333333331</ele><time>2026-04-23T09:03:41Z</time></trkpt><trkpt lat="48.4894163070279" lon="7.72365168354657"><ele>146.5</ele><time>2026-04-23T09:03:43Z</time></trkpt><trkpt lat="48.48933399979777" lon="7.723622704082314"><ele>145.66666666666666</ele><time>2026-04-23T09:03:45Z</time></trkpt><trkpt lat="48.48924602633764" lon="7.723596695032011"><ele>144.83333333333334</ele><time>2026-04-23T09:03:47Z</time></trkpt><trkpt lat="48.48916591078273" lon="7.72356304430485"><ele>144.0</ele><time>2026-04-23T09:03:49Z</time></trkpt><trkpt lat="48.48908635319871" lon="7.723536831419604"><ele>144.0</ele><time>2026-04-23T09:03:51Z</time></trkpt><trkpt lat="48.48900614594257" lon="7.7235169570407844"><ele>144.0</ele><time>2026-04-23T09:03:53Z</time></trkpt><trkpt lat="48.4889201045988" lon="7.723474823423284"><ele>144.0</ele><time>2026-04-23T09:03:55Z</time></trkpt><trkpt lat="48.48884098643151" lon="7.723440955024119"><ele>144.0</ele><time>2026-04-23T09:03:57Z</time></trkpt><trkpt lat="48.48873997754651" lon="7.7234282230497655"><ele>144.0</ele><time>2026-04-23T09:03:59Z</time></trkpt><trkpt lat="48.48863976182056" lon="7.723473845749029"><ele>144.2</ele><time>2026-04-23T09:04:01Z</time></trkpt><trkpt lat="48.488555571323516" lon="7.7234453762075"><ele>144.4</ele><time>2026-04-23T09:04:03Z</time></trkpt><trkpt lat="48.48849704016721" lon="7.723398439434749"><ele>144.6</ele><time>2026-04-23T09:04:05Z</time></trkpt><trkpt lat="48.48838228122461" lon="7.7233780864719455"><ele>144.8</ele><time>2026-04-23T09:04:07Z</time></trkpt><trkpt lat="48.48829021832779" lon="7.723337593675356"><ele>145.0</ele><time>2026-04-23T09:04:09Z</time></trkpt><trkpt lat="48.48820704358929" lon="7.723289977767281"><ele>145.0</ele><time>2026-04-23T09:04:11Z</time></trkpt><trkpt lat="48.48809184445029" lon="7.723265484042232"><ele>145.0</ele><time>2026-04-23T09:04:13Z</time></trkpt><trkpt lat="48.48797693306876" lon="7.723214634231591"><ele>145.0</ele><time>2026-04-23T09:04:15Z</time></trkpt><trkpt lat="48.48789681282855" lon="7.723200831362121"><ele>145.0</ele><time>2026-04-23T09:04:18Z</time></trkpt><trkpt lat="48.48783375546927" lon="7.723183045737231"><ele>145.0</ele><time>2026-04-23T09:04:20Z</time></trkpt><trkpt lat="48.48774704697438" lon="7.72314353148062"><ele>145.33333333333334</ele><time>2026-04-23T09:04:23Z</time></trkpt><trkpt lat="48.48767535437599" lon="7.723143261815125"><ele>145.66666666666666</ele><time>2026-04-23T09:04:25Z</time></trkpt><trkpt lat="48.487610662091114" lon="7.723106184768007"><ele>146.0</ele><time>2026-04-23T09:04:27Z</time></trkpt><trkpt lat="48.487296664744626" lon="7.7229502796671845"><ele>146.0</ele><time>2026-04-23T09:04:28Z</time></trkpt><trkpt lat="48.48720507106645" lon="7.722883442899313"><ele>146.0</ele><time>2026-04-23T09:04:30Z</time></trkpt><trkpt lat="48.48711435986233" lon="7.722877030460519"><ele>146.0</ele><time>2026-04-23T09:04:32Z</time></trkpt><trkpt lat="48.48702907310864" lon="7.722848585544327"><ele>146.0</ele><time>2026-04-23T09:04:34Z</time></trkpt><trkpt lat="48.486957089048424" lon="7.722839100465084"><ele>146.0</ele><time>2026-04-23T09:04:36Z</time></trkpt><trkpt lat="48.48686708541282" lon="7.722773881303258"><ele>145.83333333333331</ele><time>2026-04-23T09:04:38Z</time></trkpt><trkpt lat="48.48678616608403" lon="7.722624841157037"><ele>145.66666666666666</ele><time>2026-04-23T09:04:40Z</time></trkpt><trkpt lat="48.48672248815684" lon="7.722575533723623"><ele>145.5</ele><time>2026-04-23T09:04:41Z</time></trkpt><trkpt lat="48.486650169593354" lon="7.722542350482636"><ele>145.33333333333334</ele><time>2026-04-23T09:04:42Z</time></trkpt><trkpt lat="48.48658913506048" lon="7.722515041510493"><ele>145.16666666666669</ele><time>2026-04-23T09:04:43Z</time></trkpt><trkpt lat="48.486526694143805" lon="7.722482387749928"><ele>145.0</ele><time>2026-04-23T09:04:44Z</time></trkpt><trkpt lat="48.48646854320914" lon="7.722442288743551"><ele>145.0</ele><time>2026-04-23T09:04:45Z</time></trkpt><trkpt lat="48.48637360218338" lon="7.722418693176496"><ele>145.0</ele><time>2026-04-23T09:04:47Z</time></trkpt><trkpt lat="48.48626412193456" lon="7.722396900253627"><ele>145.0</ele><time>2026-04-23T09:04:49Z</time></trkpt><trkpt lat="48.48618464126707" lon="7.722384175767325"><ele>145.0</ele><time>2026-04-23T09:04:51Z</time></trkpt><trkpt lat="48.4860743282757" lon="7.722334472588417"><ele>145.0</ele><time>2026-04-23T09:04:53Z</time></trkpt><trkpt lat="48.485975709172656" lon="7.722295949282822"><ele>145.2</ele><time>2026-04-23T09:04:55Z</time></trkpt><trkpt lat="48.48586904055243" lon="7.722245262531375"><ele>145.4</ele><time>2026-04-23T09:04:57Z</time></trkpt><trkpt lat="48.48577572494444" lon="7.7222023058766"><ele>145.6</ele><time>2026-04-23T09:04:59Z</time></trkpt><trkpt lat="48.485660508348545" lon="7.722154457250318"><ele>145.8</ele><time>2026-04-23T09:05:01Z</time></trkpt><trkpt lat="48.48555921888315" lon="7.722115544998575"><ele>146.0</ele><time>2026-04-23T09:05:03Z</time></trkpt><trkpt lat="48.48549463131321" lon="7.722072895355429"><ele>146.0</ele><time>2026-04-23T09:05:04Z</time></trkpt><trkpt lat="48.4853826594168" lon="7.722033390067396"><ele>146.0</ele><time>2026-04-23T09:05:06Z</time></trkpt><trkpt lat="48.48527919991015" lon="7.722002617966126"><ele>146.0</ele><time>2026-04-23T09:05:08Z</time></trkpt><trkpt lat="48.48518190233992" lon="7.722005535372032"><ele>146.0</ele><time>2026-04-23T09:05:12Z</time></trkpt><trkpt lat="48.48497743624304" lon="7.721903278135638"><ele>145.6</ele><time>2026-04-23T09:05:14Z</time></trkpt><trkpt lat="48.484876646521684" lon="7.721875345901353"><ele>145.2</ele><time>2026-04-23T09:05:16Z</time></trkpt><trkpt lat="48.48476673555645" lon="7.721842896152343"><ele>144.8</ele><time>2026-04-23T09:05:18Z</time></trkpt><trkpt lat="48.484664481054" lon="7.721795107409057"><ele>144.4</ele><time>2026-04-23T09:05:20Z</time></trkpt><trkpt lat="48.48457867807373" lon="7.721756052868511"><ele>144.0</ele><time>2026-04-23T09:05:22Z</time></trkpt><trkpt lat="48.48451257261851" lon="7.721703785860987"><ele>144.0</ele><time>2026-04-23T09:05:23Z</time></trkpt><trkpt lat="48.48441440498909" lon="7.721686287347078"><ele>144.0</ele><time>2026-04-23T09:05:25Z</time></trkpt><trkpt lat="48.48431187282955" lon="7.721640581185431"><ele>144.0</ele><time>2026-04-23T09:05:27Z</time></trkpt><trkpt lat="48.48421023877545" lon="7.721590240062318"><ele>144.0</ele><time>2026-04-23T09:05:29Z</time></trkpt><trkpt lat="48.48411841845845" lon="7.721586484596478"><ele>144.0</ele><time>2026-04-23T09:05:31Z</time></trkpt><trkpt lat="48.48401208490477" lon="7.721551810853656"><ele>144.0</ele><time>2026-04-23T09:05:33Z</time></trkpt><trkpt lat="48.4839172271164" lon="7.7214960134682995"><ele>144.0</ele><time>2026-04-23T09:05:35Z</time></trkpt><trkpt lat="48.4838246066925" lon="7.721468186745264"><ele>144.0</ele><time>2026-04-23T09:05:37Z</time></trkpt><trkpt lat="48.483735628844094" lon="7.721455898240277"><ele>144.0</ele><time>2026-04-23T09:05:39Z</time></trkpt><trkpt lat="48.48364174032077" lon="7.721409196500316"><ele>144.0</ele><time>2026-04-23T09:05:41Z</time></trkpt><trkpt lat="48.483573098833354" lon="7.721407976676528"><ele>144.0</ele><time>2026-04-23T09:05:44Z</time></trkpt><trkpt lat="48.483509462444054" lon="7.721372427676848"><ele>144.0</ele><time>2026-04-23T09:05:46Z</time></trkpt><trkpt lat="48.48327948845907" lon="7.721265179291751"><ele>144.0</ele><time>2026-04-23T09:05:48Z</time></trkpt><trkpt lat="48.48318455379751" lon="7.721245480829822"><ele>144.0</ele><time>2026-04-23T09:05:50Z</time></trkpt><trkpt lat="48.483083011477966" lon="7.72124808094953"><ele>144.0</ele><time>2026-04-23T09:05:52Z</time></trkpt><trkpt lat="48.48296842287623" lon="7.72122843239387"><ele>144.0</ele><time>2026-04-23T09:05:54Z</time></trkpt><trkpt lat="48.48288374798717" lon="7.721180704362749"><ele>144.0</ele><time>2026-04-23T09:05:56Z</time></trkpt><trkpt lat="48.4827883588063" lon="7.7211547182384965"><ele>144.0</ele><time>2026-04-23T09:05:58Z</time></trkpt><trkpt lat="48.48270959688019" lon="7.721157122079831"><ele>144.0</ele><time>2026-04-23T09:06:00Z</time></trkpt><trkpt lat="48.482610054001725" lon="7.721139354439492"><ele>144.0</ele><time>2026-04-23T09:06:02Z</time></trkpt><trkpt lat="48.48253198825131" lon="7.721047474244952"><ele>144.0</ele><time>2026-04-23T09:06:06Z</time></trkpt><trkpt lat="48.48242020998303" lon="7.721073701712914"><ele>144.0</ele><time>2026-04-23T09:06:08Z</time></trkpt><trkpt lat="48.482357424560725" lon="7.721052599056445"><ele>144.0</ele><time>2026-04-23T09:06:09Z</time></trkpt><trkpt lat="48.4822548373798" lon="7.721004083204198"><ele>144.0</ele><time>2026-04-23T09:06:11Z</time></trkpt><trkpt lat="48.482155996640486" lon="7.72096343991019"><ele>143.8</ele><time>2026-04-23T09:06:13Z</time></trkpt><trkpt lat="48.4820653240428" lon="7.720905935985241"><ele>143.60000000000002</ele><time>2026-04-23T09:06:15Z</time></trkpt><trkpt lat="48.48199647943242" lon="7.720873667859374"><ele>143.4</ele><time>2026-04-23T09:06:17Z</time></trkpt><trkpt lat="48.48190241425248" lon="7.720821911487768"><ele>143.20000000000002</ele><time>2026-04-23T09:06:19Z</time></trkpt><trkpt lat="48.481801155399424" lon="7.7207799948193205"><ele>143.0</ele><time>2026-04-23T09:06:21Z</time></trkpt><trkpt lat="48.48168322554405" lon="7.720744154478731"><ele>143.0</ele><time>2026-04-23T09:06:24Z</time></trkpt><trkpt lat="48.48139892367963" lon="7.720626370449362"><ele>143.0</ele><time>2026-04-23T09:06:29Z</time></trkpt><trkpt lat="48.481306876736035" lon="7.720592034933024"><ele>143.0</ele><time>2026-04-23T09:06:31Z</time></trkpt><trkpt lat="48.481220155688334" lon="7.720561078513153"><ele>143.0</ele><time>2026-04-23T09:06:33Z</time></trkpt><trkpt lat="48.48112240873479" lon="7.720519687929337"><ele>143.0</ele><time>2026-04-23T09:06:35Z</time></trkpt><trkpt lat="48.48101654761032" lon="7.72046145644286"><ele>143.0</ele><time>2026-04-23T09:06:37Z</time></trkpt><trkpt lat="48.48094980053255" lon="7.720441175626309"><ele>143.0</ele><time>2026-04-23T09:06:38Z</time></trkpt><trkpt lat="48.480873722560816" lon="7.72048568779703"><ele>143.0</ele><time>2026-04-23T09:06:40Z</time></trkpt><trkpt lat="48.4808099074264" lon="7.720368944453676"><ele>143.0</ele><time>2026-04-23T09:06:41Z</time></trkpt><trkpt lat="48.48069994896609" lon="7.720344168826949"><ele>143.0</ele><time>2026-04-23T09:06:43Z</time></trkpt><trkpt lat="48.48060302051877" lon="7.720309726949606"><ele>143.0</ele><time>2026-04-23T09:06:45Z</time></trkpt><trkpt lat="48.48049562694387" lon="7.720281081033362"><ele>143.0</ele><time>2026-04-23T09:06:47Z</time></trkpt><trkpt lat="48.4803938491951" lon="7.720243998340638"><ele>143.0</ele><time>2026-04-23T09:06:49Z</time></trkpt><trkpt lat="48.4802950413411" lon="7.720210726525509"><ele>143.25</ele><time>2026-04-23T09:06:51Z</time></trkpt><trkpt lat="48.48014983584423" lon="7.720150569926973"><ele>143.5</ele><time>2026-04-23T09:06:54Z</time></trkpt><trkpt lat="48.48005326672288" lon="7.720096641078359"><ele>143.75</ele><time>2026-04-23T09:06:56Z</time></trkpt><trkpt lat="48.47995238885916" lon="7.720063968998523"><ele>144.0</ele><time>2026-04-23T09:06:58Z</time></trkpt><trkpt lat="48.479855433681074" lon="7.720024026773134"><ele>144.0</ele><time>2026-04-23T09:07:00Z</time></trkpt><trkpt lat="48.479757833467424" lon="7.7199821282598595"><ele>144.0</ele><time>2026-04-23T09:07:02Z</time></trkpt><trkpt lat="48.47965891228446" lon="7.719938163637474"><ele>144.0</ele><time>2026-04-23T09:07:04Z</time></trkpt><trkpt lat="48.479560557950265" lon="7.719895889686871"><ele>144.0</ele><time>2026-04-23T09:07:06Z</time></trkpt><trkpt lat="48.47945747277518" lon="7.7198610719939165"><ele>144.0</ele><time>2026-04-23T09:07:08Z</time></trkpt><trkpt lat="48.479361406971904" lon="7.719825811729748"><ele>144.0</ele><time>2026-04-23T09:07:10Z</time></trkpt><trkpt lat="48.479267188944284" lon="7.719795257678921"><ele>144.0</ele><time>2026-04-23T09:07:12Z</time></trkpt><trkpt lat="48.47918037456957" lon="7.719764611109099"><ele>144.0</ele><time>2026-04-23T09:07:14Z</time></trkpt><trkpt lat="48.4790941777341" lon="7.7197291334747975"><ele>144.0</ele><time>2026-04-23T09:07:16Z</time></trkpt><trkpt lat="48.47899637030539" lon="7.719696274410381"><ele>144.0</ele><time>2026-04-23T09:07:18Z</time></trkpt><trkpt lat="48.478907287484994" lon="7.719651713882963"><ele>144.0</ele><time>2026-04-23T09:07:20Z</time></trkpt><trkpt lat="48.478819105718586" lon="7.719614352302287"><ele>144.0</ele><time>2026-04-23T09:07:22Z</time></trkpt><trkpt lat="48.47870902577065" lon="7.719587374248243"><ele>144.0</ele><time>2026-04-23T09:07:24Z</time></trkpt><trkpt lat="48.478618322353654" lon="7.719551397544679"><ele>144.0</ele><time>2026-04-23T09:07:26Z</time></trkpt><trkpt lat="48.47852570570258" lon="7.7195084904820455"><ele>144.0</ele><time>2026-04-23T09:07:28Z</time></trkpt><trkpt lat="48.4784289555813" lon="7.719476778765781"><ele>144.0</ele><time>2026-04-23T09:07:30Z</time></trkpt><trkpt lat="48.47833885151269" lon="7.719444038380853"><ele>144.0</ele><time>2026-04-23T09:07:32Z</time></trkpt><trkpt lat="48.47824962095809" lon="7.719407334737892"><ele>144.0</ele><time>2026-04-23T09:07:34Z</time></trkpt><trkpt lat="48.4781530230731" lon="7.719372698503269"><ele>144.0</ele><time>2026-04-23T09:07:36Z</time></trkpt><trkpt lat="48.4780565829743" lon="7.719342240351056"><ele>144.0</ele><time>2026-04-23T09:07:38Z</time></trkpt><trkpt lat="48.47796753838283" lon="7.719312826303793"><ele>144.4</ele><time>2026-04-23T09:07:40Z</time></trkpt><trkpt lat="48.47787576800345" lon="7.71926986940049"><ele>144.8</ele><time>2026-04-23T09:07:42Z</time></trkpt><trkpt lat="48.477783135058516" lon="7.719227358539854"><ele>145.2</ele><time>2026-04-23T09:07:44Z</time></trkpt><trkpt lat="48.47769215880041" lon="7.7191875370218614"><ele>145.6</ele><time>2026-04-23T09:07:46Z</time></trkpt><trkpt lat="48.4775941937511" lon="7.7191553034016005"><ele>146.0</ele><time>2026-04-23T09:07:48Z</time></trkpt><trkpt lat="48.477499850515905" lon="7.719118692987678"><ele>146.0</ele><time>2026-04-23T09:07:50Z</time></trkpt><trkpt lat="48.47740042982108" lon="7.719083570597577"><ele>146.0</ele><time>2026-04-23T09:07:52Z</time></trkpt><trkpt lat="48.47731081535192" lon="7.71905600515523"><ele>146.0</ele><time>2026-04-23T09:07:54Z</time></trkpt><trkpt lat="48.47722576164939" lon="7.71900799855881"><ele>146.0</ele><time>2026-04-23T09:07:56Z</time></trkpt><trkpt lat="48.47713029644898" lon="7.718971299458442"><ele>146.0</ele><time>2026-04-23T09:07:58Z</time></trkpt><trkpt lat="48.477037753870526" lon="7.7189404110123085"><ele>146.0</ele><time>2026-04-23T09:08:00Z</time></trkpt><trkpt lat="48.476943719940444" lon="7.7188930038666665"><ele>146.0</ele><time>2026-04-23T09:08:02Z</time></trkpt><trkpt lat="48.47685380041869" lon="7.7188591281323236"><ele>146.0</ele><time>2026-04-23T09:08:04Z</time></trkpt><trkpt lat="48.47676282627278" lon="7.718828159329528"><ele>146.0</ele><time>2026-04-23T09:08:06Z</time></trkpt><trkpt lat="48.47667581348997" lon="7.718783726203975"><ele>146.0</ele><time>2026-04-23T09:08:08Z</time></trkpt><trkpt lat="48.476578794194296" lon="7.718759012252264"><ele>146.0</ele><time>2026-04-23T09:08:10Z</time></trkpt><trkpt lat="48.476492333815195" lon="7.718726518620123"><ele>146.0</ele><time>2026-04-23T09:08:12Z</time></trkpt><trkpt lat="48.4764042392948" lon="7.718689408971038"><ele>146.0</ele><time>2026-04-23T09:08:14Z</time></trkpt><trkpt lat="48.476317805828465" lon="7.718653319723044"><ele>146.0</ele><time>2026-04-23T09:08:16Z</time></trkpt><trkpt lat="48.476241447402316" lon="7.718622718183958"><ele>146.0</ele><time>2026-04-23T09:08:18Z</time></trkpt><trkpt lat="48.47617154953505" lon="7.718595934680678"><ele>146.0</ele><time>2026-04-23T09:08:20Z</time></trkpt><trkpt lat="48.47609161034964" lon="7.718558522167162"><ele>145.83333333333331</ele><time>2026-04-23T09:08:22Z</time></trkpt><trkpt lat="48.476018895845996" lon="7.7185435808398415"><ele>145.66666666666666</ele><time>2026-04-23T09:08:24Z</time></trkpt><trkpt lat="48.47594118485081" lon="7.718523968353196"><ele>145.5</ele><time>2026-04-23T09:08:26Z</time></trkpt><trkpt lat="48.475873211236866" lon="7.718503953632955"><ele>145.33333333333334</ele><time>2026-04-23T09:08:28Z</time></trkpt><trkpt lat="48.47578653253445" lon="7.718457484703195"><ele>145.16666666666669</ele><time>2026-04-23T09:08:31Z</time></trkpt><trkpt lat="48.47570706900206" lon="7.718420556975414"><ele>145.0</ele><time>2026-04-23T09:08:34Z</time></trkpt><trkpt lat="48.47562683165642" lon="7.71839611675803"><ele>145.0</ele><time>2026-04-23T09:08:36Z</time></trkpt><trkpt lat="48.47554374149812" lon="7.718365854885669"><ele>145.0</ele><time>2026-04-23T09:08:38Z</time></trkpt><trkpt lat="48.47548318642181" lon="7.718339233160162"><ele>145.0</ele><time>2026-04-23T09:08:40Z</time></trkpt><trkpt lat="48.475412872327" lon="7.718312495563289"><ele>145.0</ele><time>2026-04-23T09:08:42Z</time></trkpt><trkpt lat="48.47533946449497" lon="7.718286302385146"><ele>145.0</ele><time>2026-04-23T09:08:44Z</time></trkpt><trkpt lat="48.475259201789385" lon="7.718250685289189"><ele>145.0</ele><time>2026-04-23T09:08:46Z</time></trkpt><trkpt lat="48.47518053318357" lon="7.718223241404892"><ele>145.0</ele><time>2026-04-23T09:08:48Z</time></trkpt><trkpt lat="48.475112513365964" lon="7.718180866028977"><ele>145.0</ele><time>2026-04-23T09:08:50Z</time></trkpt><trkpt lat="48.47502781633368" lon="7.718155184065765"><ele>145.0</ele><time>2026-04-23T09:08:52Z</time></trkpt><trkpt lat="48.47495292525692" lon="7.718130553623843"><ele>145.0</ele><time>2026-04-23T09:08:54Z</time></trkpt><trkpt lat="48.47487474320754" lon="7.718109533753329"><ele>145.0</ele><time>2026-04-23T09:08:56Z</time></trkpt><trkpt lat="48.474799024410466" lon="7.718076593291423"><ele>145.0</ele><time>2026-04-23T09:08:58Z</time></trkpt><trkpt lat="48.47470830028853" lon="7.718039601987341"><ele>145.0</ele><time>2026-04-23T09:09:00Z</time></trkpt><trkpt lat="48.474614990536644" lon="7.718003218417964"><ele>145.0</ele><time>2026-04-23T09:09:02Z</time></trkpt><trkpt lat="48.474531941956286" lon="7.717982475847631"><ele>145.0</ele><time>2026-04-23T09:09:04Z</time></trkpt><trkpt lat="48.47445266353202" lon="7.717939180969389"><ele>145.0</ele><time>2026-04-23T09:09:06Z</time></trkpt><trkpt lat="48.47436880008447" lon="7.717902838893627"><ele>145.0</ele><time>2026-04-23T09:09:08Z</time></trkpt><trkpt lat="48.474279593050504" lon="7.717860176959571"><ele>145.0</ele><time>2026-04-23T09:09:10Z</time></trkpt><trkpt lat="48.474198765816496" lon="7.717840863370613"><ele>145.0</ele><time>2026-04-23T09:09:12Z</time></trkpt><trkpt lat="48.47410046319663" lon="7.7178111075207605"><ele>145.0</ele><time>2026-04-23T09:09:14Z</time></trkpt><trkpt lat="48.47401247283191" lon="7.717760652645014"><ele>145.0</ele><time>2026-04-23T09:09:16Z</time></trkpt><trkpt lat="48.47392531078434" lon="7.717735111575737"><ele>145.0</ele><time>2026-04-23T09:09:18Z</time></trkpt><trkpt lat="48.47383541319959" lon="7.717698822946892"><ele>145.0</ele><time>2026-04-23T09:09:20Z</time></trkpt><trkpt lat="48.473748921162766" lon="7.717663008329132"><ele>144.8</ele><time>2026-04-23T09:09:22Z</time></trkpt><trkpt lat="48.473644561268124" lon="7.7176356524377745"><ele>144.6</ele><time>2026-04-23T09:09:24Z</time></trkpt><trkpt lat="48.47355424314617" lon="7.717600753344712"><ele>144.4</ele><time>2026-04-23T09:09:26Z</time></trkpt><trkpt lat="48.473461220722285" lon="7.717567460551479"><ele>144.2</ele><time>2026-04-23T09:09:28Z</time></trkpt><trkpt lat="48.473366122015264" lon="7.71752537732022"><ele>144.0</ele><time>2026-04-23T09:09:30Z</time></trkpt><trkpt lat="48.47327263566501" lon="7.717486033196752"><ele>144.0</ele><time>2026-04-23T09:09:32Z</time></trkpt><trkpt lat="48.47317693594934" lon="7.7174509867893555"><ele>144.0</ele><time>2026-04-23T09:09:34Z</time></trkpt><trkpt lat="48.473083778760625" lon="7.717406525243165"><ele>144.0</ele><time>2026-04-23T09:09:36Z</time></trkpt><trkpt lat="48.472994677681264" lon="7.717373654541502"><ele>144.0</ele><time>2026-04-23T09:09:38Z</time></trkpt><trkpt lat="48.472901839281704" lon="7.717334783787926"><ele>144.0</ele><time>2026-04-23T09:09:40Z</time></trkpt><trkpt lat="48.472808693336965" lon="7.717299913309493"><ele>143.8</ele><time>2026-04-23T09:09:42Z</time></trkpt><trkpt lat="48.47271865777367" lon="7.717265233576313"><ele>143.60000000000002</ele><time>2026-04-23T09:09:44Z</time></trkpt><trkpt lat="48.47263207227883" lon="7.717237998049288"><ele>143.4</ele><time>2026-04-23T09:09:46Z</time></trkpt><trkpt lat="48.47254488509417" lon="7.717199977302909"><ele>143.20000000000002</ele><time>2026-04-23T09:09:48Z</time></trkpt><trkpt lat="48.47245682787872" lon="7.717165263116931"><ele>143.0</ele><time>2026-04-23T09:09:50Z</time></trkpt><trkpt lat="48.47236623604558" lon="7.7171333745383786"><ele>143.0</ele><time>2026-04-23T09:09:52Z</time></trkpt><trkpt lat="48.472271751044296" lon="7.717112767007072"><ele>143.0</ele><time>2026-04-23T09:09:54Z</time></trkpt><trkpt lat="48.47218531794799" lon="7.717083919547192"><ele>143.0</ele><time>2026-04-23T09:09:56Z</time></trkpt><trkpt lat="48.47210300229586" lon="7.717032266295324"><ele>143.0</ele><time>2026-04-23T09:09:58Z</time></trkpt><trkpt lat="48.47200686746577" lon="7.716997733894005"><ele>143.0</ele><time>2026-04-23T09:10:00Z</time></trkpt><trkpt lat="48.47191528591108" lon="7.716961133231031"><ele>143.0</ele><time>2026-04-23T09:10:02Z</time></trkpt><trkpt lat="48.47182131373688" lon="7.716918617920461"><ele>143.0</ele><time>2026-04-23T09:10:04Z</time></trkpt><trkpt lat="48.47172751503145" lon="7.71688533071128"><ele>143.0</ele><time>2026-04-23T09:10:06Z</time></trkpt><trkpt lat="48.47162953703425" lon="7.716843804310489"><ele>143.0</ele><time>2026-04-23T09:10:08Z</time></trkpt><trkpt lat="48.471527998440365" lon="7.716809039110923"><ele>143.0</ele><time>2026-04-23T09:10:11Z</time></trkpt><trkpt lat="48.47144072285751" lon="7.716782655893422"><ele>143.16666666666666</ele><time>2026-04-23T09:10:13Z</time></trkpt><trkpt lat="48.47137028238598" lon="7.716755328316351"><ele>143.33333333333331</ele><time>2026-04-23T09:10:15Z</time></trkpt><trkpt lat="48.471279654460304" lon="7.71672294368733"><ele>143.5</ele><time>2026-04-23T09:10:17Z</time></trkpt><trkpt lat="48.47120667349648" lon="7.716697966911808"><ele>143.66666666666666</ele><time>2026-04-23T09:10:18Z</time></trkpt><trkpt lat="48.47110977176613" lon="7.716659557780317"><ele>143.83333333333334</ele><time>2026-04-23T09:10:20Z</time></trkpt><trkpt lat="48.471009016902386" lon="7.716651568568864"><ele>144.0</ele><time>2026-04-23T09:10:22Z</time></trkpt><trkpt lat="48.47092518489496" lon="7.716624228708883"><ele>144.2</ele><time>2026-04-23T09:10:24Z</time></trkpt><trkpt lat="48.4708218079085" lon="7.716571350706198"><ele>144.4</ele><time>2026-04-23T09:10:26Z</time></trkpt><trkpt lat="48.47073244744775" lon="7.716522486558795"><ele>144.6</ele><time>2026-04-23T09:10:28Z</time></trkpt><trkpt lat="48.470623766289656" lon="7.716497425253824"><ele>144.8</ele><time>2026-04-23T09:10:30Z</time></trkpt><trkpt lat="48.47052817428783" lon="7.716444803348057"><ele>145.0</ele><time>2026-04-23T09:10:32Z</time></trkpt><trkpt lat="48.47042937410554" lon="7.716403466800883"><ele>145.2</ele><time>2026-04-23T09:10:34Z</time></trkpt><trkpt lat="48.47033196122062" lon="7.716362727618679"><ele>145.4</ele><time>2026-04-23T09:10:36Z</time></trkpt><trkpt lat="48.47023293782558" lon="7.716316190458496"><ele>145.6</ele><time>2026-04-23T09:10:38Z</time></trkpt><trkpt lat="48.47014476739582" lon="7.716282525461673"><ele>145.8</ele><time>2026-04-23T09:10:41Z</time></trkpt><trkpt lat="48.47005362126851" lon="7.716267563874351"><ele>146.0</ele><time>2026-04-23T09:10:44Z</time></trkpt><trkpt lat="48.46998704263637" lon="7.716235708934715"><ele>146.0</ele><time>2026-04-23T09:10:46Z</time></trkpt><trkpt lat="48.4699231364977" lon="7.71618132333852"><ele>146.0</ele><time>2026-04-23T09:10:48Z</time></trkpt><trkpt lat="48.46963725235457" lon="7.716086864588005"><ele>146.0</ele><time>2026-04-23T09:10:50Z</time></trkpt><trkpt lat="48.469539550468966" lon="7.716047652517584"><ele>145.8</ele><time>2026-04-23T09:10:52Z</time></trkpt><trkpt lat="48.469450390340214" lon="7.716017535550542"><ele>145.6</ele><time>2026-04-23T09:10:54Z</time></trkpt><trkpt lat="48.469347446520004" lon="7.715966618453576"><ele>145.4</ele><time>2026-04-23T09:10:56Z</time></trkpt><trkpt lat="48.46924883367924" lon="7.715921104020073"><ele>145.2</ele><time>2026-04-23T09:10:58Z</time></trkpt><trkpt lat="48.469139619750884" lon="7.715877143758347"><ele>145.0</ele><time>2026-04-23T09:11:00Z</time></trkpt><trkpt lat="48.469039406637144" lon="7.715841598996252"><ele>145.0</ele><time>2026-04-23T09:11:02Z</time></trkpt><trkpt lat="48.46893002044895" lon="7.715795835513735"><ele>145.0</ele><time>2026-04-23T09:11:04Z</time></trkpt><trkpt lat="48.46883379132938" lon="7.7157573733023685"><ele>145.0</ele><time>2026-04-23T09:11:06Z</time></trkpt><trkpt lat="48.468734059247915" lon="7.715692233261716"><ele>145.0</ele><time>2026-04-23T09:11:08Z</time></trkpt><trkpt lat="48.46863547074533" lon="7.715706676167856"><ele>145.0</ele><time>2026-04-23T09:11:10Z</time></trkpt><trkpt lat="48.468567995126726" lon="7.715684491924548"><ele>144.75</ele><time>2026-04-23T09:11:11Z</time></trkpt><trkpt lat="48.46845398697154" lon="7.7156336317145255"><ele>144.5</ele><time>2026-04-23T09:11:13Z</time></trkpt><trkpt lat="48.46835322405801" lon="7.715573217922925"><ele>144.25</ele><time>2026-04-23T09:11:15Z</time></trkpt><trkpt lat="48.468236352068594" lon="7.7155339466682715"><ele>144.0</ele><time>2026-04-23T09:11:17Z</time></trkpt><trkpt lat="48.46812428495408" lon="7.71549601369043"><ele>144.0</ele><time>2026-04-23T09:11:19Z</time></trkpt><trkpt lat="48.46802072398128" lon="7.715459347246499"><ele>144.0</ele><time>2026-04-23T09:11:21Z</time></trkpt><trkpt lat="48.46791115228947" lon="7.71541531068702"><ele>144.0</ele><time>2026-04-23T09:11:23Z</time></trkpt><trkpt lat="48.467800900138386" lon="7.715373299163569"><ele>144.0</ele><time>2026-04-23T09:11:25Z</time></trkpt><trkpt lat="48.46769091188081" lon="7.715326828335023"><ele>144.0</ele><time>2026-04-23T09:11:27Z</time></trkpt><trkpt lat="48.467576629236305" lon="7.715281536497891"><ele>144.0</ele><time>2026-04-23T09:11:29Z</time></trkpt><trkpt lat="48.46747243491971" lon="7.715247817381694"><ele>144.0</ele><time>2026-04-23T09:11:31Z</time></trkpt><trkpt lat="48.467358172681934" lon="7.715197803577864"><ele>144.0</ele><time>2026-04-23T09:11:33Z</time></trkpt><trkpt lat="48.46724435228888" lon="7.715151263317234"><ele>144.0</ele><time>2026-04-23T09:11:35Z</time></trkpt><trkpt lat="48.467129494449004" lon="7.715101545272773"><ele>143.75</ele><time>2026-04-23T09:11:37Z</time></trkpt><trkpt lat="48.46701837276902" lon="7.715057779612711"><ele>143.5</ele><time>2026-04-23T09:11:39Z</time></trkpt><trkpt lat="48.46690766955061" lon="7.715013941075474"><ele>143.25</ele><time>2026-04-23T09:11:41Z</time></trkpt><trkpt lat="48.46679658387915" lon="7.714974007153703"><ele>143.0</ele><time>2026-04-23T09:11:43Z</time></trkpt><trkpt lat="48.466683549336366" lon="7.714931323719132"><ele>143.0</ele><time>2026-04-23T09:11:45Z</time></trkpt><trkpt lat="48.46657036427348" lon="7.714887391700942"><ele>143.0</ele><time>2026-04-23T09:11:47Z</time></trkpt><trkpt lat="48.46650820235437" lon="7.714867915038352"><ele>143.0</ele><time>2026-04-23T09:11:48Z</time></trkpt><trkpt lat="48.466446109804785" lon="7.7148468626616795"><ele>143.0</ele><time>2026-04-23T09:11:49Z</time></trkpt><trkpt lat="48.46632913037733" lon="7.714809400687766"><ele>143.0</ele><time>2026-04-23T09:11:51Z</time></trkpt><trkpt lat="48.46621697340631" lon="7.714757542177794"><ele>143.0</ele><time>2026-04-23T09:11:53Z</time></trkpt><trkpt lat="48.46615283995947" lon="7.714715041596915"><ele>143.0</ele><time>2026-04-23T09:11:54Z</time></trkpt><trkpt lat="48.46609233414788" lon="7.7146824301398045"><ele>143.0</ele><time>2026-04-23T09:11:55Z</time></trkpt><trkpt lat="48.465972340566815" lon="7.7146438340502925"><ele>143.0</ele><time>2026-04-23T09:11:57Z</time></trkpt><trkpt lat="48.465852731386526" lon="7.714597374732541"><ele>143.0</ele><time>2026-04-23T09:11:59Z</time></trkpt><trkpt lat="48.46573072263975" lon="7.714555698167125"><ele>143.0</ele><time>2026-04-23T09:12:01Z</time></trkpt><trkpt lat="48.465613180973186" lon="7.71450402543931"><ele>143.0</ele><time>2026-04-23T09:12:03Z</time></trkpt><trkpt lat="48.46549872453437" lon="7.714456478461078"><ele>143.0</ele><time>2026-04-23T09:12:05Z</time></trkpt><trkpt lat="48.46543675629942" lon="7.71443296172394"><ele>143.0</ele><time>2026-04-23T09:12:06Z</time></trkpt><trkpt lat="48.46537456749837" lon="7.714408025182426"><ele>143.0</ele><time>2026-04-23T09:12:07Z</time></trkpt><trkpt lat="48.46525485414921" lon="7.714367156661411"><ele>143.0</ele><time>2026-04-23T09:12:09Z</time></trkpt><trkpt lat="48.465135729305096" lon="7.714321762597501"><ele>143.0</ele><time>2026-04-23T09:12:11Z</time></trkpt><trkpt lat="48.465017823257746" lon="7.714271779881776"><ele>143.0</ele><time>2026-04-23T09:12:13Z</time></trkpt><trkpt lat="48.464898754031516" lon="7.714226466703616"><ele>143.0</ele><time>2026-04-23T09:12:15Z</time></trkpt><trkpt lat="48.46477912573728" lon="7.714185419811203"><ele>143.0</ele><time>2026-04-23T09:12:17Z</time></trkpt><trkpt lat="48.46466357898885" lon="7.71413479434051"><ele>143.0</ele><time>2026-04-23T09:12:19Z</time></trkpt><trkpt lat="48.46454761676264" lon="7.714088605057996"><ele>143.0</ele><time>2026-04-23T09:12:21Z</time></trkpt><trkpt lat="48.46443035481053" lon="7.714050723017987"><ele>143.0</ele><time>2026-04-23T09:12:23Z</time></trkpt><trkpt lat="48.46431585898073" lon="7.714003824915747"><ele>143.0</ele><time>2026-04-23T09:12:25Z</time></trkpt><trkpt lat="48.4642034090248" lon="7.713955555027302"><ele>143.0</ele><time>2026-04-23T09:12:27Z</time></trkpt><trkpt lat="48.46409495072557" lon="7.713918041572595"><ele>143.0</ele><time>2026-04-23T09:12:29Z</time></trkpt><trkpt lat="48.46400464440702" lon="7.713882127812532"><ele>143.0</ele><time>2026-04-23T09:12:31Z</time></trkpt><trkpt lat="48.46393537556835" lon="7.713868298559636"><ele>143.0</ele><time>2026-04-23T09:12:32Z</time></trkpt><trkpt lat="48.46381900925533" lon="7.7138240259555335"><ele>143.0</ele><time>2026-04-23T09:12:34Z</time></trkpt><trkpt lat="48.46375738971247" lon="7.713799516196745"><ele>143.0</ele><time>2026-04-23T09:12:35Z</time></trkpt><trkpt lat="48.463691237111846" lon="7.7137729857218655"><ele>143.0</ele><time>2026-04-23T09:12:36Z</time></trkpt><trkpt lat="48.46362751828493" lon="7.7137540890594325"><ele>143.0</ele><time>2026-04-23T09:12:37Z</time></trkpt><trkpt lat="48.46351206569698" lon="7.713697522497206"><ele>143.0</ele><time>2026-04-23T09:12:39Z</time></trkpt><trkpt lat="48.46339466243971" lon="7.713653406055989"><ele>143.0</ele><time>2026-04-23T09:12:41Z</time></trkpt><trkpt lat="48.46327586090539" lon="7.713599233828887"><ele>143.0</ele><time>2026-04-23T09:12:43Z</time></trkpt><trkpt lat="48.46321254907646" lon="7.713576934074797"><ele>143.0</ele><time>2026-04-23T09:12:44Z</time></trkpt><trkpt lat="48.46309213857598" lon="7.7135341299762885"><ele>143.0</ele><time>2026-04-23T09:12:46Z</time></trkpt><trkpt lat="48.46297972397203" lon="7.713493652744716"><ele>143.0</ele><time>2026-04-23T09:12:48Z</time></trkpt><trkpt lat="48.46291543328558" lon="7.713468443156478"><ele>143.0</ele><time>2026-04-23T09:12:49Z</time></trkpt><trkpt lat="48.46279225528627" lon="7.713416487857844"><ele>143.0</ele><time>2026-04-23T09:12:51Z</time></trkpt><trkpt lat="48.462671529783854" lon="7.71336891516752"><ele>143.0</ele><time>2026-04-23T09:12:53Z</time></trkpt><trkpt lat="48.4625489622909" lon="7.713321975479859"><ele>143.0</ele><time>2026-04-23T09:12:55Z</time></trkpt><trkpt lat="48.462427757435336" lon="7.713276630784712"><ele>143.0</ele><time>2026-04-23T09:12:57Z</time></trkpt><trkpt lat="48.462365199522374" lon="7.713256087809347"><ele>143.0</ele><time>2026-04-23T09:12:58Z</time></trkpt><trkpt lat="48.46224743765481" lon="7.71321075317793"><ele>143.0</ele><time>2026-04-23T09:13:00Z</time></trkpt><trkpt lat="48.462185479481825" lon="7.713191005991193"><ele>143.0</ele><time>2026-04-23T09:13:01Z</time></trkpt><trkpt lat="48.46212497120597" lon="7.713163948951511"><ele>143.0</ele><time>2026-04-23T09:13:02Z</time></trkpt><trkpt lat="48.462007561971966" lon="7.713118965708413"><ele>143.0</ele><time>2026-04-23T09:13:04Z</time></trkpt><trkpt lat="48.46189395885387" lon="7.713076689850481"><ele>143.0</ele><time>2026-04-23T09:13:06Z</time></trkpt><trkpt lat="48.461830568272525" lon="7.713043809157049"><ele>143.0</ele><time>2026-04-23T09:13:07Z</time></trkpt><trkpt lat="48.4617157517921" lon="7.713002927935389"><ele>143.0</ele><time>2026-04-23T09:13:09Z</time></trkpt><trkpt lat="48.46160513758305" lon="7.712963821590109"><ele>143.0</ele><time>2026-04-23T09:13:11Z</time></trkpt><trkpt lat="48.46150480921029" lon="7.712889152521836"><ele>143.0</ele><time>2026-04-23T09:13:13Z</time></trkpt><trkpt lat="48.46139224193435" lon="7.712880214861823"><ele>143.0</ele><time>2026-04-23T09:13:15Z</time></trkpt><trkpt lat="48.461329439136364" lon="7.712850080369124"><ele>143.0</ele><time>2026-04-23T09:13:16Z</time></trkpt><trkpt lat="48.46121884897143" lon="7.7128176769676156"><ele>143.33333333333331</ele><time>2026-04-23T09:13:18Z</time></trkpt><trkpt lat="48.46115671205719" lon="7.712789241174867"><ele>143.66666666666666</ele><time>2026-04-23T09:13:19Z</time></trkpt><trkpt lat="48.461048098560426" lon="7.712722508185063"><ele>144.0</ele><time>2026-04-23T09:13:21Z</time></trkpt><trkpt lat="48.46098248008054" lon="7.712705392803843"><ele>144.33333333333334</ele><time>2026-04-23T09:13:22Z</time></trkpt><trkpt lat="48.460867030629615" lon="7.712661222675874"><ele>144.66666666666669</ele><time>2026-04-23T09:13:24Z</time></trkpt><trkpt lat="48.46080540284243" lon="7.712635835390681"><ele>145.0</ele><time>2026-04-23T09:13:25Z</time></trkpt><trkpt lat="48.460683542276314" lon="7.712593451986879"><ele>145.0</ele><time>2026-04-23T09:13:27Z</time></trkpt><trkpt lat="48.46056037209711" lon="7.712545713319764"><ele>145.0</ele><time>2026-04-23T09:13:29Z</time></trkpt><trkpt lat="48.46049748506253" lon="7.712523815352411"><ele>145.0</ele><time>2026-04-23T09:13:30Z</time></trkpt><trkpt lat="48.46037429000958" lon="7.71248095182438"><ele>145.0</ele><time>2026-04-23T09:13:32Z</time></trkpt><trkpt lat="48.460311846220506" lon="7.71245484146018"><ele>145.0</ele><time>2026-04-23T09:13:33Z</time></trkpt><trkpt lat="48.46024867538494" lon="7.712427321537744"><ele>145.0</ele><time>2026-04-23T09:13:34Z</time></trkpt><trkpt lat="48.46018375948858" lon="7.712402930809039"><ele>145.6</ele><time>2026-04-23T09:13:35Z</time></trkpt><trkpt lat="48.46012003238191" lon="7.71238109200135"><ele>146.2</ele><time>2026-04-23T09:13:36Z</time></trkpt><trkpt lat="48.459994791274156" lon="7.712341850518954"><ele>146.8</ele><time>2026-04-23T09:13:38Z</time></trkpt><trkpt lat="48.45988091647228" lon="7.712262919329096"><ele>147.4</ele><time>2026-04-23T09:13:40Z</time></trkpt><trkpt lat="48.45981541149032" lon="7.712239797519581"><ele>148.0</ele><time>2026-04-23T09:13:41Z</time></trkpt><trkpt lat="48.45975075299087" lon="7.712216821562568"><ele>148.0</ele><time>2026-04-23T09:13:42Z</time></trkpt><trkpt lat="48.45968897038089" lon="7.712187181468946"><ele>148.0</ele><time>2026-04-23T09:13:43Z</time></trkpt><trkpt lat="48.45956411471611" lon="7.7121431522851625"><ele>148.0</ele><time>2026-04-23T09:13:45Z</time></trkpt><trkpt lat="48.45944384782612" lon="7.712095262244651"><ele>148.0</ele><time>2026-04-23T09:13:47Z</time></trkpt><trkpt lat="48.45932364875371" lon="7.71204045742721"><ele>148.0</ele><time>2026-04-23T09:13:49Z</time></trkpt><trkpt lat="48.459255436709725" lon="7.712020150597515"><ele>147.66666666666669</ele><time>2026-04-23T09:13:50Z</time></trkpt><trkpt lat="48.459191540945234" lon="7.711998748392271"><ele>147.33333333333334</ele><time>2026-04-23T09:13:51Z</time></trkpt><trkpt lat="48.45912607579558" lon="7.7119760182620265"><ele>147.0</ele><time>2026-04-23T09:13:52Z</time></trkpt><trkpt lat="48.459062885801224" lon="7.711949656944464"><ele>146.66666666666666</ele><time>2026-04-23T09:13:53Z</time></trkpt><trkpt lat="48.45894542973661" lon="7.711907550400546"><ele>146.33333333333331</ele><time>2026-04-23T09:13:55Z</time></trkpt><trkpt lat="48.45882976443735" lon="7.711864956014758"><ele>146.0</ele><time>2026-04-23T09:13:57Z</time></trkpt><trkpt lat="48.458717832010805" lon="7.711824015445185"><ele>145.8</ele><time>2026-04-23T09:13:59Z</time></trkpt><trkpt lat="48.458655954839365" lon="7.711801953611271"><ele>145.6</ele><time>2026-04-23T09:14:00Z</time></trkpt><trkpt lat="48.45853535374325" lon="7.711754281795188"><ele>145.4</ele><time>2026-04-23T09:14:02Z</time></trkpt><trkpt lat="48.45841483809199" lon="7.711703333280917"><ele>145.2</ele><time>2026-04-23T09:14:04Z</time></trkpt><trkpt lat="48.4582919917873" lon="7.71165994163674"><ele>145.0</ele><time>2026-04-23T09:14:06Z</time></trkpt><trkpt lat="48.45822295536418" lon="7.711635467863787"><ele>145.0</ele><time>2026-04-23T09:14:07Z</time></trkpt><trkpt lat="48.45810656385419" lon="7.711579848521596"><ele>145.0</ele><time>2026-04-23T09:14:09Z</time></trkpt><trkpt lat="48.458041503801226" lon="7.711557913879823"><ele>145.0</ele><time>2026-04-23T09:14:10Z</time></trkpt><trkpt lat="48.45791963391629" lon="7.711514781084825"><ele>145.0</ele><time>2026-04-23T09:14:12Z</time></trkpt><trkpt lat="48.45785424350301" lon="7.711496520625424"><ele>145.0</ele><time>2026-04-23T09:14:13Z</time></trkpt><trkpt lat="48.45779007139253" lon="7.711478235700689"><ele>145.0</ele><time>2026-04-23T09:14:14Z</time></trkpt><trkpt lat="48.457720709495895" lon="7.711448910814531"><ele>145.0</ele><time>2026-04-23T09:14:15Z</time></trkpt><trkpt lat="48.45765420030287" lon="7.711426233494834"><ele>145.0</ele><time>2026-04-23T09:14:16Z</time></trkpt><trkpt lat="48.457535580466065" lon="7.711375796254263"><ele>145.0</ele><time>2026-04-23T09:14:18Z</time></trkpt><trkpt lat="48.45746451953914" lon="7.7113536948048536"><ele>145.0</ele><time>2026-04-23T09:14:19Z</time></trkpt><trkpt lat="48.45740183344222" lon="7.71132829765888"><ele>145.0</ele><time>2026-04-23T09:14:20Z</time></trkpt><trkpt lat="48.457342458232255" lon="7.711295074597119"><ele>145.0</ele><time>2026-04-23T09:14:21Z</time></trkpt><trkpt lat="48.45721781097155" lon="7.71125677066522"><ele>145.0</ele><time>2026-04-23T09:14:23Z</time></trkpt><trkpt lat="48.45708923531751" lon="7.711202810429096"><ele>145.0</ele><time>2026-04-23T09:14:25Z</time></trkpt><trkpt lat="48.45702401900954" lon="7.7111771163127125"><ele>145.0</ele><time>2026-04-23T09:14:26Z</time></trkpt><trkpt lat="48.45695669512427" lon="7.711147087255514"><ele>145.0</ele><time>2026-04-23T09:14:27Z</time></trkpt><trkpt lat="48.45684022722264" lon="7.711107058612355"><ele>145.0</ele><time>2026-04-23T09:14:29Z</time></trkpt><trkpt lat="48.45677723033362" lon="7.711086424380477"><ele>145.0</ele><time>2026-04-23T09:14:30Z</time></trkpt><trkpt lat="48.45671341958878" lon="7.71108033462164"><ele>145.0</ele><time>2026-04-23T09:14:31Z</time></trkpt><trkpt lat="48.456645620468514" lon="7.71103245704706"><ele>145.0</ele><time>2026-04-23T09:14:32Z</time></trkpt><trkpt lat="48.456526721928554" lon="7.710973387339769"><ele>145.0</ele><time>2026-04-23T09:14:34Z</time></trkpt><trkpt lat="48.45645705986643" lon="7.710945176858283"><ele>145.0</ele><time>2026-04-23T09:14:35Z</time></trkpt><trkpt lat="48.45634126905684" lon="7.710895862913437"><ele>145.16666666666669</ele><time>2026-04-23T09:14:37Z</time></trkpt><trkpt lat="48.45622369327368" lon="7.710868914987803"><ele>145.33333333333334</ele><time>2026-04-23T09:14:39Z</time></trkpt><trkpt lat="48.45615768399623" lon="7.7108379489916885"><ele>145.5</ele><time>2026-04-23T09:14:40Z</time></trkpt><trkpt lat="48.45609610216934" lon="7.710811611920235"><ele>145.66666666666666</ele><time>2026-04-23T09:14:41Z</time></trkpt><trkpt lat="48.45603163900811" lon="7.710792247504807"><ele>145.83333333333331</ele><time>2026-04-23T09:14:42Z</time></trkpt><trkpt lat="48.455968262766284" lon="7.710763891567615"><ele>146.0</ele><time>2026-04-23T09:14:43Z</time></trkpt><trkpt lat="48.45584393209559" lon="7.71071230646088"><ele>146.0</ele><time>2026-04-23T09:14:45Z</time></trkpt><trkpt lat="48.45577734874037" lon="7.710707937402743"><ele>146.0</ele><time>2026-04-23T09:14:46Z</time></trkpt><trkpt lat="48.455716820403886" lon="7.71067455627882"><ele>146.0</ele><time>2026-04-23T09:14:47Z</time></trkpt><trkpt lat="48.45559951737776" lon="7.710622156732599"><ele>146.0</ele><time>2026-04-23T09:14:49Z</time></trkpt><trkpt lat="48.45553860821954" lon="7.710597646500189"><ele>146.0</ele><time>2026-04-23T09:14:50Z</time></trkpt><trkpt lat="48.45547750640697" lon="7.710574304876786"><ele>146.0</ele><time>2026-04-23T09:14:51Z</time></trkpt><trkpt lat="48.45535725372573" lon="7.710543990130992"><ele>146.5</ele><time>2026-04-23T09:14:53Z</time></trkpt><trkpt lat="48.45528772432862" lon="7.710519158650705"><ele>147.0</ele><time>2026-04-23T09:14:54Z</time></trkpt><trkpt lat="48.45522269475989" lon="7.710484251687856"><ele>147.5</ele><time>2026-04-23T09:14:55Z</time></trkpt><trkpt lat="48.45510262475357" lon="7.710440071335327"><ele>148.0</ele><time>2026-04-23T09:14:57Z</time></trkpt><trkpt lat="48.4550408363767" lon="7.710412195534093"><ele>148.5</ele><time>2026-04-23T09:14:58Z</time></trkpt><trkpt lat="48.454975474558154" lon="7.710378309502445"><ele>149.0</ele><time>2026-04-23T09:14:59Z</time></trkpt><trkpt lat="48.45491035227429" lon="7.710378548009967"><ele>149.0</ele><time>2026-04-23T09:15:00Z</time></trkpt><trkpt lat="48.45479782341612" lon="7.710325882777801"><ele>149.0</ele><time>2026-04-23T09:15:02Z</time></trkpt><trkpt lat="48.454736281510684" lon="7.710293742761168"><ele>149.0</ele><time>2026-04-23T09:15:03Z</time></trkpt><trkpt lat="48.454614960970964" lon="7.710251953599271"><ele>149.0</ele><time>2026-04-23T09:15:05Z</time></trkpt><trkpt lat="48.454495047817" lon="7.710197555169581"><ele>149.0</ele><time>2026-04-23T09:15:07Z</time></trkpt><trkpt lat="48.454432412634915" lon="7.710171130642231"><ele>148.66666666666666</ele><time>2026-04-23T09:15:08Z</time></trkpt><trkpt lat="48.454370207180965" lon="7.7101506649239715"><ele>148.33333333333331</ele><time>2026-04-23T09:15:09Z</time></trkpt><trkpt lat="48.45430796098603" lon="7.710117442992457"><ele>148.0</ele><time>2026-04-23T09:15:10Z</time></trkpt><trkpt lat="48.45424642670335" lon="7.710089028439877"><ele>147.66666666666666</ele><time>2026-04-23T09:15:11Z</time></trkpt><trkpt lat="48.45418354609686" lon="7.710068432958661"><ele>147.33333333333334</ele><time>2026-04-23T09:15:12Z</time></trkpt><trkpt lat="48.45411985758413" lon="7.710039701145327"><ele>147.0</ele><time>2026-04-23T09:15:13Z</time></trkpt><trkpt lat="48.453997500598255" lon="7.709997456804653"><ele>147.0</ele><time>2026-04-23T09:15:15Z</time></trkpt><trkpt lat="48.45387621321288" lon="7.709951176240927"><ele>147.0</ele><time>2026-04-23T09:15:17Z</time></trkpt><trkpt lat="48.453759067667775" lon="7.709906221180164"><ele>147.0</ele><time>2026-04-23T09:15:19Z</time></trkpt><trkpt lat="48.45363880043505" lon="7.709854583499345"><ele>147.0</ele><time>2026-04-23T09:15:21Z</time></trkpt><trkpt lat="48.45351741108195" lon="7.709808130155074"><ele>146.4</ele><time>2026-04-23T09:15:23Z</time></trkpt><trkpt lat="48.45345270722694" lon="7.7097819420027225"><ele>145.79999999999998</ele><time>2026-04-23T09:15:24Z</time></trkpt><trkpt lat="48.453337546775956" lon="7.709739142500083"><ele>145.2</ele><time>2026-04-23T09:15:26Z</time></trkpt><trkpt lat="48.45326954788412" lon="7.709701788463346"><ele>144.6</ele><time>2026-04-23T09:15:27Z</time></trkpt><trkpt lat="48.45314838351926" lon="7.7096605303189705"><ele>144.0</ele><time>2026-04-23T09:15:29Z</time></trkpt><trkpt lat="48.4530244522069" lon="7.709615935919764"><ele>144.0</ele><time>2026-04-23T09:15:31Z</time></trkpt><trkpt lat="48.45296451733828" lon="7.709585815621831"><ele>144.0</ele><time>2026-04-23T09:15:32Z</time></trkpt><trkpt lat="48.45284391211856" lon="7.709539914958682"><ele>144.0</ele><time>2026-04-23T09:15:34Z</time></trkpt><trkpt lat="48.45272794591338" lon="7.709502411056764"><ele>144.0</ele><time>2026-04-23T09:15:36Z</time></trkpt><trkpt lat="48.452609576873776" lon="7.709459871338773"><ele>144.0</ele><time>2026-04-23T09:15:38Z</time></trkpt><trkpt lat="48.452488041537016" lon="7.709440059300882"><ele>144.0</ele><time>2026-04-23T09:15:40Z</time></trkpt><trkpt lat="48.452367619534876" lon="7.709410336040591"><ele>144.0</ele><time>2026-04-23T09:15:42Z</time></trkpt><trkpt lat="48.45224418860404" lon="7.709372034895767"><ele>144.0</ele><time>2026-04-23T09:15:44Z</time></trkpt><trkpt lat="48.452176066256236" lon="7.7093794073248505"><ele>144.0</ele><time>2026-04-23T09:15:45Z</time></trkpt><trkpt lat="48.45206104720659" lon="7.709335345352506"><ele>144.0</ele><time>2026-04-23T09:15:47Z</time></trkpt><trkpt lat="48.45195131697532" lon="7.709253867741431"><ele>144.6</ele><time>2026-04-23T09:15:49Z</time></trkpt><trkpt lat="48.45184780693728" lon="7.709208587752648"><ele>145.2</ele><time>2026-04-23T09:15:51Z</time></trkpt><trkpt lat="48.45173653057188" lon="7.709173691622649"><ele>145.79999999999998</ele><time>2026-04-23T09:15:53Z</time></trkpt><trkpt lat="48.45164462927147" lon="7.709072972003897"><ele>146.4</ele><time>2026-04-23T09:15:55Z</time></trkpt><trkpt lat="48.45153595299214" lon="7.70902059930727"><ele>147.0</ele><time>2026-04-23T09:15:57Z</time></trkpt><trkpt lat="48.4514024586218" lon="7.7089889837440415"><ele>147.0</ele><time>2026-04-23T09:15:59Z</time></trkpt><trkpt lat="48.451293351887216" lon="7.708942633647948"><ele>147.0</ele><time>2026-04-23T09:16:01Z</time></trkpt><trkpt lat="48.45117175866487" lon="7.70889091828018"><ele>147.0</ele><time>2026-04-23T09:16:03Z</time></trkpt><trkpt lat="48.45110891573458" lon="7.708867838915849"><ele>147.0</ele><time>2026-04-23T09:16:04Z</time></trkpt><trkpt lat="48.450996676277654" lon="7.708833591890469"><ele>147.0</ele><time>2026-04-23T09:16:06Z</time></trkpt><trkpt lat="48.45087459367421" lon="7.708832852785232"><ele>147.6</ele><time>2026-04-23T09:16:08Z</time></trkpt><trkpt lat="48.45077802353127" lon="7.708843401137182"><ele>148.2</ele><time>2026-04-23T09:16:10Z</time></trkpt><trkpt lat="48.450689871296504" lon="7.708775501317638"><ele>148.8</ele><time>2026-04-23T09:16:12Z</time></trkpt><trkpt lat="48.450629210360354" lon="7.708687376331874"><ele>149.4</ele><time>2026-04-23T09:16:14Z</time></trkpt><trkpt lat="48.45053792958304" lon="7.7086187928444305"><ele>150.0</ele><time>2026-04-23T09:16:16Z</time></trkpt><trkpt lat="48.45044528446001" lon="7.7085512862943215"><ele>149.99999999999997</ele><time>2026-04-23T09:16:18Z</time></trkpt><trkpt lat="48.450371212599904" lon="7.708533236777343"><ele>150.0</ele><time>2026-04-23T09:16:19Z</time></trkpt><trkpt lat="48.45031510887148" lon="7.70848245736841"><ele>150.0</ele><time>2026-04-23T09:16:20Z</time></trkpt><trkpt lat="48.450235925217974" lon="7.708466346149042"><ele>150.0</ele><time>2026-04-23T09:16:21Z</time></trkpt><trkpt lat="48.45017456896838" lon="7.708422217640075"><ele>150.0</ele><time>2026-04-23T09:16:22Z</time></trkpt><trkpt lat="48.45011144574815" lon="7.7084004894738865"><ele>149.99999999999997</ele><time>2026-04-23T09:16:23Z</time></trkpt><trkpt lat="48.45003603571215" lon="7.708374288886327"><ele>150.0</ele><time>2026-04-23T09:16:24Z</time></trkpt><trkpt lat="48.449971837162785" lon="7.708339221854676"><ele>150.0</ele><time>2026-04-23T09:16:25Z</time></trkpt><trkpt lat="48.44989875994725" lon="7.708318781144771"><ele>150.0</ele><time>2026-04-23T09:16:26Z</time></trkpt><trkpt lat="48.44976672330065" lon="7.708270348233027"><ele>150.0</ele><time>2026-04-23T09:16:28Z</time></trkpt><trkpt lat="48.449641535516" lon="7.708228010563266"><ele>150.0</ele><time>2026-04-23T09:16:30Z</time></trkpt><trkpt lat="48.44958527904794" lon="7.708173856699112"><ele>150.0</ele><time>2026-04-23T09:16:31Z</time></trkpt><trkpt lat="48.44952080347724" lon="7.708132489846825"><ele>149.8</ele><time>2026-04-23T09:16:32Z</time></trkpt><trkpt lat="48.44945248414607" lon="7.708128898025462"><ele>149.6</ele><time>2026-04-23T09:16:33Z</time></trkpt><trkpt lat="48.449307276492526" lon="7.708093822206845"><ele>149.4</ele><time>2026-04-23T09:16:35Z</time></trkpt><trkpt lat="48.449243482646075" lon="7.70807939542955"><ele>149.2</ele><time>2026-04-23T09:16:36Z</time></trkpt><trkpt lat="48.44910058802942" lon="7.708023920073462"><ele>149.0</ele><time>2026-04-23T09:16:38Z</time></trkpt><trkpt lat="48.44903981918439" lon="7.707961096515991"><ele>149.0</ele><time>2026-04-23T09:16:39Z</time></trkpt><trkpt lat="48.448972305650145" lon="7.707937422159986"><ele>149.0</ele><time>2026-04-23T09:16:40Z</time></trkpt><trkpt lat="48.44885308379928" lon="7.707881578560136"><ele>149.0</ele><time>2026-04-23T09:16:42Z</time></trkpt><trkpt lat="48.44879379815326" lon="7.707837464983863"><ele>149.0</ele><time>2026-04-23T09:16:43Z</time></trkpt><trkpt lat="48.44871583687148" lon="7.707819491219159"><ele>149.0</ele><time>2026-04-23T09:16:44Z</time></trkpt><trkpt lat="48.448592161660144" lon="7.70778004848865"><ele>149.0</ele><time>2026-04-23T09:16:46Z</time></trkpt><trkpt lat="48.44852289689612" lon="7.7077750357298465"><ele>149.0</ele><time>2026-04-23T09:16:47Z</time></trkpt><trkpt lat="48.44846022626247" lon="7.707742616576154"><ele>149.0</ele><time>2026-04-23T09:16:48Z</time></trkpt><trkpt lat="48.44839474957053" lon="7.70772029178736"><ele>149.0</ele><time>2026-04-23T09:16:49Z</time></trkpt><trkpt lat="48.4482815921337" lon="7.707688950357078"><ele>149.0</ele><time>2026-04-23T09:16:51Z</time></trkpt><trkpt lat="48.4481557706076" lon="7.707670987585768"><ele>149.0</ele><time>2026-04-23T09:16:53Z</time></trkpt><trkpt lat="48.44808719509978" lon="7.7076415298605205"><ele>149.0</ele><time>2026-04-23T09:16:54Z</time></trkpt><trkpt lat="48.44800459032019" lon="7.707634539912898"><ele>149.0</ele><time>2026-04-23T09:16:56Z</time></trkpt><trkpt lat="48.447877594883415" lon="7.707572992973904"><ele>149.0</ele><time>2026-04-23T09:16:58Z</time></trkpt><trkpt lat="48.447816804533666" lon="7.707534907547747"><ele>149.0</ele><time>2026-04-23T09:16:59Z</time></trkpt><trkpt lat="48.44771745672567" lon="7.707502769644361"><ele>149.0</ele><time>2026-04-23T09:17:01Z</time></trkpt><trkpt lat="48.44757909332289" lon="7.707456844151798"><ele>149.4</ele><time>2026-04-23T09:17:03Z</time></trkpt><trkpt lat="48.44745217288686" lon="7.707404539123787"><ele>149.8</ele><time>2026-04-23T09:17:05Z</time></trkpt><trkpt lat="48.4473764636737" lon="7.707379847406342"><ele>150.2</ele><time>2026-04-23T09:17:06Z</time></trkpt><trkpt lat="48.447255930746024" lon="7.7073500829397705"><ele>150.6</ele><time>2026-04-23T09:17:08Z</time></trkpt><trkpt lat="48.447189187622534" lon="7.707304819262709"><ele>151.0</ele><time>2026-04-23T09:17:09Z</time></trkpt><trkpt lat="48.44712597350157" lon="7.707274252722319"><ele>151.33333333333334</ele><time>2026-04-23T09:17:10Z</time></trkpt><trkpt lat="48.44705941547372" lon="7.707250409461523"><ele>151.66666666666669</ele><time>2026-04-23T09:17:11Z</time></trkpt><trkpt lat="48.44699959031451" lon="7.707215175914194"><ele>152.0</ele><time>2026-04-23T09:17:12Z</time></trkpt><trkpt lat="48.44691903133798" lon="7.707188370813798"><ele>152.33333333333334</ele><time>2026-04-23T09:17:15Z</time></trkpt><trkpt lat="48.44682722063664" lon="7.707205835068394"><ele>152.66666666666666</ele><time>2026-04-23T09:17:17Z</time></trkpt><trkpt lat="48.44674657984316" lon="7.707143452324451"><ele>153.0</ele><time>2026-04-23T09:17:19Z</time></trkpt><trkpt lat="48.44666661202069" lon="7.707152946134948"><ele>153.0</ele><time>2026-04-23T09:17:22Z</time></trkpt><trkpt lat="48.44659802449355" lon="7.707103013305252"><ele>153.0</ele><time>2026-04-23T09:17:24Z</time></trkpt><trkpt lat="48.446529211863776" lon="7.707121058751203"><ele>153.0</ele><time>2026-04-23T09:17:26Z</time></trkpt><trkpt lat="48.44645256948953" lon="7.7071196248558556"><ele>153.0</ele><time>2026-04-23T09:17:28Z</time></trkpt><trkpt lat="48.446359256429865" lon="7.707121160052561"><ele>153.0</ele><time>2026-04-23T09:17:31Z</time></trkpt><trkpt lat="48.44627891066698" lon="7.707131623926513"><ele>153.0</ele><time>2026-04-23T09:17:34Z</time></trkpt><trkpt lat="48.44622606967333" lon="7.707202577890224"><ele>152.83333333333334</ele><time>2026-04-23T09:17:35Z</time></trkpt><trkpt lat="48.44615192415741" lon="7.70723584710005"><ele>152.66666666666666</ele><time>2026-04-23T09:17:38Z</time></trkpt><trkpt lat="48.446082167700155" lon="7.707195852420548"><ele>152.5</ele><time>2026-04-23T09:17:41Z</time></trkpt><trkpt lat="48.445997351451936" lon="7.707219305780312"><ele>152.33333333333331</ele><time>2026-04-23T09:17:44Z</time></trkpt><trkpt lat="48.44591734398557" lon="7.707229896816875"><ele>152.16666666666666</ele><time>2026-04-23T09:17:47Z</time></trkpt><trkpt lat="48.44585373313492" lon="7.707219960305006"><ele>152.0</ele><time>2026-04-23T09:17:49Z</time></trkpt><trkpt lat="48.44577978878281" lon="7.707224548503108"><ele>152.0</ele><time>2026-04-23T09:17:52Z</time></trkpt><trkpt lat="48.44569136597056" lon="7.707170415676707"><ele>152.0</ele><time>2026-04-23T09:17:55Z</time></trkpt><trkpt lat="48.445606291583076" lon="7.707123333575948"><ele>152.0</ele><time>2026-04-23T09:17:58Z</time></trkpt><trkpt lat="48.44554822871262" lon="7.707066875500859"><ele>152.0</ele><time>2026-04-23T09:18:00Z</time></trkpt><trkpt lat="48.44546725580585" lon="7.707057775797158"><ele>152.0</ele><time>2026-04-23T09:18:02Z</time></trkpt><trkpt lat="48.44357898278173" lon="7.705876937929256"><ele>152.0</ele><time>2026-04-23T09:18:04Z</time></trkpt><trkpt lat="48.4435164313678" lon="7.7058587162436725"><ele>152.0</ele><time>2026-04-23T09:18:05Z</time></trkpt><trkpt lat="48.44343552911775" lon="7.705839629340769"><ele>152.0</ele><time>2026-04-23T09:18:06Z</time></trkpt><trkpt lat="48.443348439721085" lon="7.705796272081124"><ele>152.0</ele><time>2026-04-23T09:18:08Z</time></trkpt><trkpt lat="48.44328349723628" lon="7.705758087089292"><ele>152.0</ele><time>2026-04-23T09:18:09Z</time></trkpt><trkpt lat="48.443196898280554" lon="7.705768768971083"><ele>152.0</ele><time>2026-04-23T09:18:10Z</time></trkpt><trkpt lat="48.44311380542042" lon="7.705686950514169"><ele>152.0</ele><time>2026-04-23T09:18:11Z</time></trkpt><trkpt lat="48.44304747347618" lon="7.705707659590382"><ele>152.0</ele><time>2026-04-23T09:18:12Z</time></trkpt><trkpt lat="48.44294340612879" lon="7.705624165654787"><ele>152.0</ele><time>2026-04-23T09:18:14Z</time></trkpt><trkpt lat="48.44283608778046" lon="7.7055712681101705"><ele>152.0</ele><time>2026-04-23T09:18:16Z</time></trkpt><trkpt lat="48.442699295952714" lon="7.7055299980611665"><ele>152.0</ele><time>2026-04-23T09:18:18Z</time></trkpt><trkpt lat="48.44263553683108" lon="7.705517202913292"><ele>151.85714285714286</ele><time>2026-04-23T09:18:19Z</time></trkpt><trkpt lat="48.44255277450002" lon="7.705496573866587"><ele>151.71428571428572</ele><time>2026-04-23T09:18:20Z</time></trkpt><trkpt lat="48.4424914996139" lon="7.705445605613463"><ele>151.57142857142858</ele><time>2026-04-23T09:18:21Z</time></trkpt><trkpt lat="48.44241586351603" lon="7.705406788023067"><ele>151.42857142857144</ele><time>2026-04-23T09:18:22Z</time></trkpt><trkpt lat="48.44234654881118" lon="7.705404384666511"><ele>151.28571428571428</ele><time>2026-04-23T09:18:23Z</time></trkpt><trkpt lat="48.442279722310644" lon="7.705386886895112"><ele>151.14285714285717</ele><time>2026-04-23T09:18:24Z</time></trkpt><trkpt lat="48.44221515066991" lon="7.705377147254587"><ele>151.0</ele><time>2026-04-23T09:18:25Z</time></trkpt><trkpt lat="48.44214548391205" lon="7.705358453592186"><ele>151.0</ele><time>2026-04-23T09:18:26Z</time></trkpt><trkpt lat="48.44202577314974" lon="7.705327958982146"><ele>151.0</ele><time>2026-04-23T09:18:28Z</time></trkpt><trkpt lat="48.44196352354553" lon="7.705306930062253"><ele>151.0</ele><time>2026-04-23T09:18:29Z</time></trkpt><trkpt lat="48.44190172283442" lon="7.705284680527104"><ele>151.0</ele><time>2026-04-23T09:18:30Z</time></trkpt><trkpt lat="48.441829242645454" lon="7.705247281515596"><ele>151.0</ele><time>2026-04-23T09:18:31Z</time></trkpt><trkpt lat="48.44170794987459" lon="7.70523348032469"><ele>151.0</ele><time>2026-04-23T09:18:33Z</time></trkpt><trkpt lat="48.44160648162947" lon="7.705218676116641"><ele>150.71428571428572</ele><time>2026-04-23T09:18:35Z</time></trkpt><trkpt lat="48.44153801443852" lon="7.705195707913004"><ele>150.42857142857144</ele><time>2026-04-23T09:18:36Z</time></trkpt><trkpt lat="48.44146920705864" lon="7.705131761195027"><ele>150.14285714285714</ele><time>2026-04-23T09:18:37Z</time></trkpt><trkpt lat="48.44140280845575" lon="7.705088619991909"><ele>149.85714285714286</ele><time>2026-04-23T09:18:38Z</time></trkpt><trkpt lat="48.441341021445595" lon="7.705045014305758"><ele>149.57142857142856</ele><time>2026-04-23T09:18:39Z</time></trkpt><trkpt lat="48.44127752619737" lon="7.705010626425418"><ele>149.28571428571428</ele><time>2026-04-23T09:18:40Z</time></trkpt><trkpt lat="48.44121209517523" lon="7.704992161071937"><ele>149.0</ele><time>2026-04-23T09:18:41Z</time></trkpt><trkpt lat="48.441149443123486" lon="7.704969134311822"><ele>148.5</ele><time>2026-04-23T09:18:42Z</time></trkpt><trkpt lat="48.44108167531355" lon="7.704943788038708"><ele>148.0</ele><time>2026-04-23T09:18:43Z</time></trkpt><trkpt lat="48.44096037215901" lon="7.704898986525487"><ele>147.5</ele><time>2026-04-23T09:18:45Z</time></trkpt><trkpt lat="48.44089272502981" lon="7.704875264426192"><ele>147.0</ele><time>2026-04-23T09:18:46Z</time></trkpt><trkpt lat="48.440828247956105" lon="7.704858327847416"><ele>146.5</ele><time>2026-04-23T09:18:47Z</time></trkpt><trkpt lat="48.440766782836896" lon="7.704835781753888"><ele>146.0</ele><time>2026-04-23T09:18:48Z</time></trkpt><trkpt lat="48.44070056952549" lon="7.704812431786833"><ele>146.0</ele><time>2026-04-23T09:18:49Z</time></trkpt><trkpt lat="48.44063409924606" lon="7.704788035887429"><ele>146.0</ele><time>2026-04-23T09:18:50Z</time></trkpt><trkpt lat="48.44051221393011" lon="7.704740125699093"><ele>146.0</ele><time>2026-04-23T09:18:52Z</time></trkpt><trkpt lat="48.440440566423916" lon="7.704722198392406"><ele>146.0</ele><time>2026-04-23T09:18:53Z</time></trkpt><trkpt lat="48.4403185059341" lon="7.704677133214991"><ele>146.0</ele><time>2026-04-23T09:18:55Z</time></trkpt><trkpt lat="48.44025148065049" lon="7.704647510108434"><ele>146.33333333333331</ele><time>2026-04-23T09:18:56Z</time></trkpt><trkpt lat="48.440185617692855" lon="7.704629552219989"><ele>146.66666666666666</ele><time>2026-04-23T09:18:57Z</time></trkpt><trkpt lat="48.440121936002626" lon="7.704609647619978"><ele>147.0</ele><time>2026-04-23T09:18:58Z</time></trkpt><trkpt lat="48.44005400376468" lon="7.704580381484243"><ele>147.33333333333334</ele><time>2026-04-23T09:18:59Z</time></trkpt><trkpt lat="48.439934001961795" lon="7.704528069171734"><ele>147.66666666666669</ele><time>2026-04-23T09:19:01Z</time></trkpt><trkpt lat="48.439870314514366" lon="7.704506437572101"><ele>148.0</ele><time>2026-04-23T09:19:02Z</time></trkpt><trkpt lat="48.439805377556716" lon="7.704490087042709"><ele>148.0</ele><time>2026-04-23T09:19:03Z</time></trkpt><trkpt lat="48.43967669533684" lon="7.704439581799348"><ele>148.0</ele><time>2026-04-23T09:19:05Z</time></trkpt><trkpt lat="48.43961184877405" lon="7.7044145966814295"><ele>148.0</ele><time>2026-04-23T09:19:06Z</time></trkpt><trkpt lat="48.439548665199325" lon="7.70439888821142"><ele>148.0</ele><time>2026-04-23T09:19:07Z</time></trkpt><trkpt lat="48.43942829646782" lon="7.7043433113655135"><ele>148.0</ele><time>2026-04-23T09:19:09Z</time></trkpt><trkpt lat="48.439370717519004" lon="7.70428881197782"><ele>148.5</ele><time>2026-04-23T09:19:10Z</time></trkpt><trkpt lat="48.43931084552213" lon="7.7042395878141345"><ele>149.0</ele><time>2026-04-23T09:19:11Z</time></trkpt><trkpt lat="48.43924290314323" lon="7.704211853537239"><ele>149.5</ele><time>2026-04-23T09:19:12Z</time></trkpt><trkpt lat="48.439181643406044" lon="7.704177916427711"><ele>150.0</ele><time>2026-04-23T09:19:13Z</time></trkpt><trkpt lat="48.43911253147112" lon="7.704154826783248"><ele>150.5</ele><time>2026-04-23T09:19:14Z</time></trkpt><trkpt lat="48.439010525747996" lon="7.704151539737993"><ele>151.0</ele><time>2026-04-23T09:19:16Z</time></trkpt><trkpt lat="48.43889070987538" lon="7.704084047846177"><ele>151.0</ele><time>2026-04-23T09:19:18Z</time></trkpt><trkpt lat="48.438810296897415" lon="7.704067341026458"><ele>151.0</ele><time>2026-04-23T09:19:19Z</time></trkpt><trkpt lat="48.43873137818308" lon="7.704037202231594"><ele>151.0</ele><time>2026-04-23T09:19:20Z</time></trkpt><trkpt lat="48.43860779038484" lon="7.703986192958239"><ele>151.0</ele><time>2026-04-23T09:19:22Z</time></trkpt><trkpt lat="48.43848891520413" lon="7.703955017887397"><ele>151.0</ele><time>2026-04-23T09:19:24Z</time></trkpt><trkpt lat="48.43841844395816" lon="7.703916649001135"><ele>151.33333333333334</ele><time>2026-04-23T09:19:25Z</time></trkpt><trkpt lat="48.43830430842599" lon="7.703898297851824"><ele>151.66666666666669</ele><time>2026-04-23T09:19:27Z</time></trkpt><trkpt lat="48.43823977010349" lon="7.7038578825261785"><ele>152.0</ele><time>2026-04-23T09:19:28Z</time></trkpt><trkpt lat="48.43818160644793" lon="7.7038059533590735"><ele>152.33333333333334</ele><time>2026-04-23T09:19:29Z</time></trkpt><trkpt lat="48.438112801336636" lon="7.703772142153607"><ele>152.66666666666666</ele><time>2026-04-23T09:19:30Z</time></trkpt><trkpt lat="48.43804384161087" lon="7.703749141439526"><ele>153.0</ele><time>2026-04-23T09:19:31Z</time></trkpt><trkpt lat="48.437988767088896" lon="7.7036982749140765"><ele>152.6</ele><time>2026-04-23T09:19:32Z</time></trkpt><trkpt lat="48.43791341047098" lon="7.703663994395777"><ele>152.20000000000002</ele><time>2026-04-23T09:19:33Z</time></trkpt><trkpt lat="48.4378485735288" lon="7.7036333746848165"><ele>151.8</ele><time>2026-04-23T09:19:34Z</time></trkpt><trkpt lat="48.437725057954765" lon="7.70358777647363"><ele>151.4</ele><time>2026-04-23T09:19:36Z</time></trkpt><trkpt lat="48.43766043891675" lon="7.703556613281055"><ele>151.0</ele><time>2026-04-23T09:19:37Z</time></trkpt><trkpt lat="48.437539756920515" lon="7.7035082736336"><ele>151.0</ele><time>2026-04-23T09:19:39Z</time></trkpt><trkpt lat="48.43741841533319" lon="7.703457466852761"><ele>151.0</ele><time>2026-04-23T09:19:41Z</time></trkpt><trkpt lat="48.43734873668843" lon="7.703435331105724"><ele>151.0</ele><time>2026-04-23T09:19:42Z</time></trkpt><trkpt lat="48.437229670651696" lon="7.703387997475868"><ele>151.0</ele><time>2026-04-23T09:19:44Z</time></trkpt><trkpt lat="48.437109962625954" lon="7.703340768769026"><ele>151.0</ele><time>2026-04-23T09:19:46Z</time></trkpt><trkpt lat="48.43704756534381" lon="7.7033173328307365"><ele>150.71428571428572</ele><time>2026-04-23T09:19:47Z</time></trkpt><trkpt lat="48.43698499193696" lon="7.703298102342885"><ele>150.42857142857144</ele><time>2026-04-23T09:19:48Z</time></trkpt><trkpt lat="48.436877005169364" lon="7.703252928551031"><ele>150.14285714285714</ele><time>2026-04-23T09:19:50Z</time></trkpt><trkpt lat="48.43680817800052" lon="7.703230861767428"><ele>149.85714285714286</ele><time>2026-04-23T09:19:51Z</time></trkpt><trkpt lat="48.43674213706331" lon="7.70321078840966"><ele>149.57142857142856</ele><time>2026-04-23T09:19:52Z</time></trkpt><trkpt lat="48.43667568092848" lon="7.703185134871823"><ele>149.28571428571428</ele><time>2026-04-23T09:19:53Z</time></trkpt><trkpt lat="48.436611363788664" lon="7.7031608035630335"><ele>149.0</ele><time>2026-04-23T09:19:54Z</time></trkpt><trkpt lat="48.43654795700247" lon="7.703139209539016"><ele>149.0</ele><time>2026-04-23T09:19:55Z</time></trkpt><trkpt lat="48.436477957731405" lon="7.703102872663204"><ele>149.0</ele><time>2026-04-23T09:19:56Z</time></trkpt><trkpt lat="48.43635658305687" lon="7.703067850447345"><ele>149.0</ele><time>2026-04-23T09:19:58Z</time></trkpt><trkpt lat="48.436291764237254" lon="7.703064221338679"><ele>149.0</ele><time>2026-04-23T09:19:59Z</time></trkpt><trkpt lat="48.43617448170011" lon="7.703045980236849"><ele>149.0</ele><time>2026-04-23T09:20:01Z</time></trkpt><trkpt lat="48.436119373949076" lon="7.7029806576115725"><ele>149.33333333333331</ele><time>2026-04-23T09:20:02Z</time></trkpt><trkpt lat="48.43605988585646" lon="7.7029492161449316"><ele>149.66666666666666</ele><time>2026-04-23T09:20:03Z</time></trkpt><trkpt lat="48.43599073601983" lon="7.70292284152491"><ele>150.0</ele><time>2026-04-23T09:20:04Z</time></trkpt><trkpt lat="48.43592525278884" lon="7.702878034594021"><ele>150.33333333333334</ele><time>2026-04-23T09:20:06Z</time></trkpt><trkpt lat="48.43581458893748" lon="7.702844353288726"><ele>150.66666666666669</ele><time>2026-04-23T09:20:08Z</time></trkpt><trkpt lat="48.43573870950431" lon="7.702821361573181"><ele>151.0</ele><time>2026-04-23T09:20:09Z</time></trkpt><trkpt lat="48.43565475159345" lon="7.702785470112064"><ele>151.0</ele><time>2026-04-23T09:20:12Z</time></trkpt><trkpt lat="48.43557109101639" lon="7.702816039418256"><ele>151.0</ele><time>2026-04-23T09:20:15Z</time></trkpt><trkpt lat="48.43547558662972" lon="7.702819653553631"><ele>151.0</ele><time>2026-04-23T09:20:17Z</time></trkpt><trkpt lat="48.43537467561123" lon="7.702819823518197"><ele>151.0</ele><time>2026-04-23T09:20:19Z</time></trkpt><trkpt lat="48.43529843996908" lon="7.702830079733824"><ele>151.0</ele><time>2026-04-23T09:20:21Z</time></trkpt><trkpt lat="48.43481903353208" lon="7.702541523489536"><ele>151.16666666666669</ele><time>2026-04-23T09:20:23Z</time></trkpt><trkpt lat="48.434740255628206" lon="7.702558993002756"><ele>151.33333333333334</ele><time>2026-04-23T09:20:24Z</time></trkpt><trkpt lat="48.43468099973904" lon="7.702477153529504"><ele>151.5</ele><time>2026-04-23T09:20:25Z</time></trkpt><trkpt lat="48.43461795808057" lon="7.702476616088971"><ele>151.66666666666666</ele><time>2026-04-23T09:20:26Z</time></trkpt><trkpt lat="48.434569594889695" lon="7.7023886390897935"><ele>151.83333333333331</ele><time>2026-04-23T09:20:27Z</time></trkpt><trkpt lat="48.4344547518826" lon="7.702388479266983"><ele>152.0</ele><time>2026-04-23T09:20:29Z</time></trkpt><trkpt lat="48.43439071218397" lon="7.702362389887768"><ele>152.0</ele><time>2026-04-23T09:20:30Z</time></trkpt><trkpt lat="48.434321937412186" lon="7.702340186982214"><ele>152.0</ele><time>2026-04-23T09:20:31Z</time></trkpt><trkpt lat="48.434248244028474" lon="7.702313476882313"><ele>152.0</ele><time>2026-04-23T09:20:32Z</time></trkpt><trkpt lat="48.4341841163679" lon="7.702282230759109"><ele>152.0</ele><time>2026-04-23T09:20:33Z</time></trkpt><trkpt lat="48.434116253563175" lon="7.7022858567625265"><ele>152.0</ele><time>2026-04-23T09:20:34Z</time></trkpt><trkpt lat="48.43404939418082" lon="7.702242384748326"><ele>152.0</ele><time>2026-04-23T09:20:35Z</time></trkpt><trkpt lat="48.433949899017556" lon="7.702213644786445"><ele>152.0</ele><time>2026-04-23T09:20:37Z</time></trkpt><trkpt lat="48.43385495694058" lon="7.702171331533663"><ele>152.0</ele><time>2026-04-23T09:20:39Z</time></trkpt><trkpt lat="48.4337917765444" lon="7.702168065532143"><ele>152.0</ele><time>2026-04-23T09:20:40Z</time></trkpt><trkpt lat="48.433725743179636" lon="7.70212806837054"><ele>152.0</ele><time>2026-04-23T09:20:41Z</time></trkpt><trkpt lat="48.43362021910909" lon="7.702104108857375"><ele>152.0</ele><time>2026-04-23T09:20:43Z</time></trkpt><trkpt lat="48.43348387002767" lon="7.702037797323572"><ele>152.0</ele><time>2026-04-23T09:20:45Z</time></trkpt><trkpt lat="48.43342177056151" lon="7.702014167907763"><ele>152.0</ele><time>2026-04-23T09:20:46Z</time></trkpt><trkpt lat="48.43331639069473" lon="7.7019871643355104"><ele>152.0</ele><time>2026-04-23T09:20:48Z</time></trkpt><trkpt lat="48.43319158154945" lon="7.701918844797432"><ele>152.0</ele><time>2026-04-23T09:20:50Z</time></trkpt><trkpt lat="48.43313052294799" lon="7.701888592368226"><ele>152.0</ele><time>2026-04-23T09:20:51Z</time></trkpt><trkpt lat="48.43306546542071" lon="7.70186411627026"><ele>152.0</ele><time>2026-04-23T09:20:52Z</time></trkpt><trkpt lat="48.43295199949737" lon="7.70181545929431"><ele>152.0</ele><time>2026-04-23T09:20:54Z</time></trkpt><trkpt lat="48.43289095721635" lon="7.701790073122886"><ele>152.0</ele><time>2026-04-23T09:20:55Z</time></trkpt><trkpt lat="48.432826219944374" lon="7.701767052042925"><ele>152.0</ele><time>2026-04-23T09:20:56Z</time></trkpt><trkpt lat="48.43275343583908" lon="7.701758861875368"><ele>152.0</ele><time>2026-04-23T09:20:57Z</time></trkpt><trkpt lat="48.432684556113884" lon="7.701708934913216"><ele>152.0</ele><time>2026-04-23T09:20:58Z</time></trkpt><trkpt lat="48.43256066679753" lon="7.701670547465282"><ele>152.0</ele><time>2026-04-23T09:21:00Z</time></trkpt><trkpt lat="48.432440094239865" lon="7.70163223569494"><ele>152.0</ele><time>2026-04-23T09:21:02Z</time></trkpt><trkpt lat="48.432368325387856" lon="7.701616228338351"><ele>152.0</ele><time>2026-04-23T09:21:03Z</time></trkpt><trkpt lat="48.43230422588625" lon="7.701598717787975"><ele>152.0</ele><time>2026-04-23T09:21:04Z</time></trkpt><trkpt lat="48.43219468347114" lon="7.701545678400455"><ele>152.0</ele><time>2026-04-23T09:21:06Z</time></trkpt><trkpt lat="48.43213644487672" lon="7.701506829905745"><ele>152.0</ele><time>2026-04-23T09:21:07Z</time></trkpt><trkpt lat="48.43202215869331" lon="7.701464630194344"><ele>152.0</ele><time>2026-04-23T09:21:09Z</time></trkpt><trkpt lat="48.4319099101967" lon="7.7014315807688964"><ele>151.79999999999998</ele><time>2026-04-23T09:21:11Z</time></trkpt><trkpt lat="48.431783077691996" lon="7.701386105498024"><ele>151.6</ele><time>2026-04-23T09:21:13Z</time></trkpt><trkpt lat="48.43172168266736" lon="7.701350897356059"><ele>151.39999999999998</ele><time>2026-04-23T09:21:14Z</time></trkpt><trkpt lat="48.43166058891422" lon="7.701323533613547"><ele>151.2</ele><time>2026-04-23T09:21:15Z</time></trkpt><trkpt lat="48.431596945683076" lon="7.701301492633557"><ele>151.0</ele><time>2026-04-23T09:21:16Z</time></trkpt><trkpt lat="48.43147449448303" lon="7.7012621348587045"><ele>151.0</ele><time>2026-04-23T09:21:18Z</time></trkpt><trkpt lat="48.43141024013258" lon="7.701233410583024"><ele>151.0</ele><time>2026-04-23T09:21:19Z</time></trkpt><trkpt lat="48.43134402547127" lon="7.70121996962096"><ele>151.0</ele><time>2026-04-23T09:21:20Z</time></trkpt><trkpt lat="48.43128411974286" lon="7.7011850127343795"><ele>151.0</ele><time>2026-04-23T09:21:21Z</time></trkpt><trkpt lat="48.43115887474938" lon="7.701143594640802"><ele>151.0</ele><time>2026-04-23T09:21:23Z</time></trkpt><trkpt lat="48.43109731447473" lon="7.7011224775519915"><ele>151.0</ele><time>2026-04-23T09:21:24Z</time></trkpt><trkpt lat="48.431033886422156" lon="7.70110036725384"><ele>151.0</ele><time>2026-04-23T09:21:25Z</time></trkpt><trkpt lat="48.43091007687957" lon="7.701051471618466"><ele>151.0</ele><time>2026-04-23T09:21:27Z</time></trkpt><trkpt lat="48.430792023443075" lon="7.701001455310973"><ele>151.0</ele><time>2026-04-23T09:21:29Z</time></trkpt><trkpt lat="48.430714945098316" lon="7.700955703616485"><ele>151.0</ele><time>2026-04-23T09:21:30Z</time></trkpt><trkpt lat="48.430598148543154" lon="7.700908331134878"><ele>151.0</ele><time>2026-04-23T09:21:32Z</time></trkpt><trkpt lat="48.430532217248505" lon="7.7008873966142515"><ele>151.0</ele><time>2026-04-23T09:21:33Z</time></trkpt><trkpt lat="48.43041916104063" lon="7.700841061865845"><ele>151.0</ele><time>2026-04-23T09:21:35Z</time></trkpt><trkpt lat="48.43030176152593" lon="7.700804399141251"><ele>151.0</ele><time>2026-04-23T09:21:37Z</time></trkpt><trkpt lat="48.43023547550853" lon="7.700784394356796"><ele>151.0</ele><time>2026-04-23T09:21:38Z</time></trkpt><trkpt lat="48.43017005564084" lon="7.700763309696956"><ele>151.0</ele><time>2026-04-23T09:21:39Z</time></trkpt><trkpt lat="48.43010717757949" lon="7.70074054689129"><ele>151.0</ele><time>2026-04-23T09:21:40Z</time></trkpt><trkpt lat="48.429998566632996" lon="7.700701913227726"><ele>151.0</ele><time>2026-04-23T09:21:42Z</time></trkpt><trkpt lat="48.42986798722805" lon="7.700643317843186"><ele>151.0</ele><time>2026-04-23T09:21:44Z</time></trkpt><trkpt lat="48.42975755951673" lon="7.700573533381659"><ele>151.0</ele><time>2026-04-23T09:21:46Z</time></trkpt><trkpt lat="48.429696736361095" lon="7.700545603905794"><ele>151.0</ele><time>2026-04-23T09:21:47Z</time></trkpt><trkpt lat="48.42962547565405" lon="7.700525269439966"><ele>150.5</ele><time>2026-04-23T09:21:48Z</time></trkpt><trkpt lat="48.42955697303798" lon="7.700508698358262"><ele>150.0</ele><time>2026-04-23T09:21:49Z</time></trkpt><trkpt lat="48.42949046302864" lon="7.700483198170042"><ele>149.5</ele><time>2026-04-23T09:21:50Z</time></trkpt><trkpt lat="48.42942944413228" lon="7.700458507238101"><ele>149.0</ele><time>2026-04-23T09:21:51Z</time></trkpt><trkpt lat="48.429363260439956" lon="7.7004259988497195"><ele>148.5</ele><time>2026-04-23T09:21:52Z</time></trkpt><trkpt lat="48.42924147983738" lon="7.700381179375336"><ele>148.0</ele><time>2026-04-23T09:21:54Z</time></trkpt><trkpt lat="48.42917653101118" lon="7.700361470926851"><ele>148.0</ele><time>2026-04-23T09:21:55Z</time></trkpt><trkpt lat="48.429109892106645" lon="7.700337347847715"><ele>148.0</ele><time>2026-04-23T09:21:56Z</time></trkpt><trkpt lat="48.42904518671557" lon="7.700318512783209"><ele>148.0</ele><time>2026-04-23T09:21:57Z</time></trkpt><trkpt lat="48.42892421308487" lon="7.700269722959917"><ele>148.0</ele><time>2026-04-23T09:21:59Z</time></trkpt><trkpt lat="48.42885887105767" lon="7.700245589603452"><ele>148.0</ele><time>2026-04-23T09:22:00Z</time></trkpt><trkpt lat="48.42873757978238" lon="7.700188156520933"><ele>147.83333333333334</ele><time>2026-04-23T09:22:02Z</time></trkpt><trkpt lat="48.42867417147822" lon="7.700161126629243"><ele>147.66666666666669</ele><time>2026-04-23T09:22:03Z</time></trkpt><trkpt lat="48.42854566198052" lon="7.700116872975427"><ele>147.5</ele><time>2026-04-23T09:22:05Z</time></trkpt><trkpt lat="48.42848338897507" lon="7.700097269068101"><ele>147.33333333333334</ele><time>2026-04-23T09:22:06Z</time></trkpt><trkpt lat="48.428421990374105" lon="7.700066504315493"><ele>147.16666666666666</ele><time>2026-04-23T09:22:07Z</time></trkpt><trkpt lat="48.428307654994235" lon="7.700019646450642"><ele>147.0</ele><time>2026-04-23T09:22:09Z</time></trkpt><trkpt lat="48.428246212074164" lon="7.699997368593833"><ele>147.0</ele><time>2026-04-23T09:22:10Z</time></trkpt><trkpt lat="48.42814371100951" lon="7.699960221017767"><ele>147.0</ele><time>2026-04-23T09:22:12Z</time></trkpt><trkpt lat="48.42803841561728" lon="7.699919323743843"><ele>147.0</ele><time>2026-04-23T09:22:14Z</time></trkpt><trkpt lat="48.42792825248651" lon="7.699882059797385"><ele>147.0</ele><time>2026-04-23T09:22:16Z</time></trkpt><trkpt lat="48.42782411911006" lon="7.699835271469339"><ele>147.0</ele><time>2026-04-23T09:22:18Z</time></trkpt><trkpt lat="48.427716154908154" lon="7.69980005674355"><ele>147.2</ele><time>2026-04-23T09:22:20Z</time></trkpt><trkpt lat="48.42761469500941" lon="7.6997642409324065"><ele>147.39999999999998</ele><time>2026-04-23T09:22:22Z</time></trkpt><trkpt lat="48.427500285424" lon="7.699715970697067"><ele>147.60000000000002</ele><time>2026-04-23T09:22:24Z</time></trkpt><trkpt lat="48.427392524523405" lon="7.699665587565041"><ele>147.8</ele><time>2026-04-23T09:22:26Z</time></trkpt><trkpt lat="48.42732905371731" lon="7.699644414569538"><ele>148.0</ele><time>2026-04-23T09:22:27Z</time></trkpt><trkpt lat="48.42722450617209" lon="7.699611797210316"><ele>148.0</ele><time>2026-04-23T09:22:29Z</time></trkpt><trkpt lat="48.42715884572596" lon="7.699591250495782"><ele>148.0</ele><time>2026-04-23T09:22:30Z</time></trkpt><trkpt lat="48.427097846896764" lon="7.699565482723748"><ele>148.0</ele><time>2026-04-23T09:22:31Z</time></trkpt><trkpt lat="48.427037747390784" lon="7.699529263392169"><ele>148.0</ele><time>2026-04-23T09:22:32Z</time></trkpt><trkpt lat="48.42691895154244" lon="7.699492349821941"><ele>148.0</ele><time>2026-04-23T09:22:34Z</time></trkpt><trkpt lat="48.42679751144306" lon="7.699445631736247"><ele>148.0</ele><time>2026-04-23T09:22:36Z</time></trkpt><trkpt lat="48.426736010507874" lon="7.699418850648361"><ele>147.83333333333334</ele><time>2026-04-23T09:22:37Z</time></trkpt><trkpt lat="48.426670487090036" lon="7.699397078010351"><ele>147.66666666666669</ele><time>2026-04-23T09:22:38Z</time></trkpt><trkpt lat="48.42655153397274" lon="7.699341643141408"><ele>147.5</ele><time>2026-04-23T09:22:40Z</time></trkpt><trkpt lat="48.426488959995844" lon="7.699318481701584"><ele>147.33333333333334</ele><time>2026-04-23T09:22:41Z</time></trkpt><trkpt lat="48.42642069089479" lon="7.69929550597569"><ele>147.16666666666666</ele><time>2026-04-23T09:22:42Z</time></trkpt><trkpt lat="48.426356859965246" lon="7.699275459877485"><ele>147.0</ele><time>2026-04-23T09:22:43Z</time></trkpt><trkpt lat="48.42629372566233" lon="7.699243199232341"><ele>147.0</ele><time>2026-04-23T09:22:44Z</time></trkpt><trkpt lat="48.426229824681265" lon="7.69921051633819"><ele>147.0</ele><time>2026-04-23T09:22:45Z</time></trkpt><trkpt lat="48.4261681896445" lon="7.699183534900156"><ele>147.0</ele><time>2026-04-23T09:22:46Z</time></trkpt><trkpt lat="48.42610395820601" lon="7.699160194623156"><ele>147.0</ele><time>2026-04-23T09:22:47Z</time></trkpt><trkpt lat="48.42598822964067" lon="7.699087517640468"><ele>147.0</ele><time>2026-04-23T09:22:49Z</time></trkpt><trkpt lat="48.4258626743583" lon="7.699039129609609"><ele>147.0</ele><time>2026-04-23T09:22:51Z</time></trkpt><trkpt lat="48.42580119491837" lon="7.699016866792097"><ele>147.0</ele><time>2026-04-23T09:22:52Z</time></trkpt><trkpt lat="48.425735530631094" lon="7.6990008789708755"><ele>147.0</ele><time>2026-04-23T09:22:53Z</time></trkpt><trkpt lat="48.425669287982366" lon="7.698971034377474"><ele>147.0</ele><time>2026-04-23T09:22:54Z</time></trkpt><trkpt lat="48.42560528022306" lon="7.6989504693808355"><ele>147.0</ele><time>2026-04-23T09:22:55Z</time></trkpt><trkpt lat="48.42554480060499" lon="7.69892311350173"><ele>147.0</ele><time>2026-04-23T09:22:56Z</time></trkpt><trkpt lat="48.425478422697715" lon="7.698910211504187"><ele>147.0</ele><time>2026-04-23T09:22:57Z</time></trkpt><trkpt lat="48.42540052127639" lon="7.69891801969325"><ele>147.16666666666666</ele><time>2026-04-23T09:22:58Z</time></trkpt><trkpt lat="48.42527997683806" lon="7.698875040888261"><ele>147.33333333333334</ele><time>2026-04-23T09:23:00Z</time></trkpt><trkpt lat="48.42521540707327" lon="7.698832215378945"><ele>147.5</ele><time>2026-04-23T09:23:01Z</time></trkpt><trkpt lat="48.4251522662376" lon="7.698783331834795"><ele>147.66666666666669</ele><time>2026-04-23T09:23:02Z</time></trkpt><trkpt lat="48.42508857281924" lon="7.698762821102502"><ele>147.83333333333334</ele><time>2026-04-23T09:23:03Z</time></trkpt><trkpt lat="48.42497904825065" lon="7.698714511950086"><ele>148.0</ele><time>2026-04-23T09:23:05Z</time></trkpt><trkpt lat="48.424916995981796" lon="7.698689166086306"><ele>148.0</ele><time>2026-04-23T09:23:06Z</time></trkpt><trkpt lat="48.42484875492771" lon="7.6986686426359885"><ele>148.0</ele><time>2026-04-23T09:23:07Z</time></trkpt><trkpt lat="48.42478405908092" lon="7.698643960551151"><ele>148.0</ele><time>2026-04-23T09:23:08Z</time></trkpt><trkpt lat="48.424714525209" lon="7.69861760232285"><ele>148.0</ele><time>2026-04-23T09:23:09Z</time></trkpt><trkpt lat="48.42464387348587" lon="7.698594124494882"><ele>148.0</ele><time>2026-04-23T09:23:10Z</time></trkpt><trkpt lat="48.42458062537734" lon="7.698567988341908"><ele>148.0</ele><time>2026-04-23T09:23:11Z</time></trkpt><trkpt lat="48.42451299951718" lon="7.69853943724719"><ele>148.0</ele><time>2026-04-23T09:23:12Z</time></trkpt><trkpt lat="48.424451303170855" lon="7.698511306697376"><ele>148.42857142857144</ele><time>2026-04-23T09:23:13Z</time></trkpt><trkpt lat="48.42438133505536" lon="7.69849523167683"><ele>148.85714285714286</ele><time>2026-04-23T09:23:14Z</time></trkpt><trkpt lat="48.424317539755414" lon="7.698466812211251"><ele>149.28571428571428</ele><time>2026-04-23T09:23:15Z</time></trkpt><trkpt lat="48.424256832725206" lon="7.6984381118998115"><ele>149.71428571428572</ele><time>2026-04-23T09:23:16Z</time></trkpt><trkpt lat="48.4241914798601" lon="7.69841381994411"><ele>150.14285714285714</ele><time>2026-04-23T09:23:17Z</time></trkpt><trkpt lat="48.42411851401321" lon="7.698390695163422"><ele>150.57142857142858</ele><time>2026-04-23T09:23:18Z</time></trkpt><trkpt lat="48.42404841033922" lon="7.698369055074783"><ele>151.0</ele><time>2026-04-23T09:23:19Z</time></trkpt><trkpt lat="48.42398194696771" lon="7.698347172659467"><ele>151.00000000000003</ele><time>2026-04-23T09:23:20Z</time></trkpt><trkpt lat="48.42391984541916" lon="7.69831323420963"><ele>151.0</ele><time>2026-04-23T09:23:21Z</time></trkpt><trkpt lat="48.42385458980664" lon="7.698277915168518"><ele>151.0</ele><time>2026-04-23T09:23:22Z</time></trkpt><trkpt lat="48.4237902859515" lon="7.698257053047378"><ele>151.0</ele><time>2026-04-23T09:23:23Z</time></trkpt><trkpt lat="48.42371853403759" lon="7.698238369465884"><ele>151.0</ele><time>2026-04-23T09:23:24Z</time></trkpt><trkpt lat="48.42365806136843" lon="7.698210876775816"><ele>151.00000000000003</ele><time>2026-04-23T09:23:25Z</time></trkpt><trkpt lat="48.42359029282394" lon="7.6981805903784775"><ele>151.0</ele><time>2026-04-23T09:23:26Z</time></trkpt><trkpt lat="48.423520607696275" lon="7.6981534077715645"><ele>150.83333333333334</ele><time>2026-04-23T09:23:27Z</time></trkpt><trkpt lat="48.42345137768642" lon="7.6981184212266225"><ele>150.66666666666669</ele><time>2026-04-23T09:23:28Z</time></trkpt><trkpt lat="48.4233695132364" lon="7.698089347906854"><ele>150.5</ele><time>2026-04-23T09:23:29Z</time></trkpt><trkpt lat="48.42325555270421" lon="7.698005871798146"><ele>150.33333333333334</ele><time>2026-04-23T09:23:31Z</time></trkpt><trkpt lat="48.42317872766742" lon="7.697983929462435"><ele>150.16666666666666</ele><time>2026-04-23T09:23:32Z</time></trkpt><trkpt lat="48.423104119669674" lon="7.6979617960647175"><ele>150.0</ele><time>2026-04-23T09:23:33Z</time></trkpt><trkpt lat="48.423038098985955" lon="7.69792505783803"><ele>149.66666666666666</ele><time>2026-04-23T09:23:34Z</time></trkpt><trkpt lat="48.422902706256046" lon="7.697873503025041"><ele>149.33333333333334</ele><time>2026-04-23T09:23:36Z</time></trkpt><trkpt lat="48.4228329976484" lon="7.697852062873477"><ele>149.0</ele><time>2026-04-23T09:23:37Z</time></trkpt><trkpt lat="48.42275908567829" lon="7.69782105804418"><ele>148.66666666666669</ele><time>2026-04-23T09:23:38Z</time></trkpt><trkpt lat="48.42269443029104" lon="7.6978152135818805"><ele>148.33333333333334</ele><time>2026-04-23T09:23:39Z</time></trkpt><trkpt lat="48.42262789548972" lon="7.697806504594596"><ele>148.0</ele><time>2026-04-23T09:23:40Z</time></trkpt><trkpt lat="48.422510363792846" lon="7.6977579657326585"><ele>148.4</ele><time>2026-04-23T09:23:42Z</time></trkpt><trkpt lat="48.42239405962813" lon="7.6977130099690045"><ele>148.8</ele><time>2026-04-23T09:23:44Z</time></trkpt><trkpt lat="48.42228502533387" lon="7.697671055522163"><ele>149.2</ele><time>2026-04-23T09:23:46Z</time></trkpt><trkpt lat="48.42217896612136" lon="7.697615398162739"><ele>149.6</ele><time>2026-04-23T09:23:48Z</time></trkpt><trkpt lat="48.422097151137926" lon="7.697552160197204"><ele>150.0</ele><time>2026-04-23T09:23:50Z</time></trkpt><trkpt lat="48.42201987797924" lon="7.697470645674351"><ele>150.0</ele><time>2026-04-23T09:23:52Z</time></trkpt><trkpt lat="48.421937259537536" lon="7.697414762970556"><ele>150.0</ele><time>2026-04-23T09:23:54Z</time></trkpt><trkpt lat="48.42187278175349" lon="7.697343325743695"><ele>150.0</ele><time>2026-04-23T09:23:56Z</time></trkpt><trkpt lat="48.42181813016941" lon="7.697271016209477"><ele>150.0</ele><time>2026-04-23T09:23:58Z</time></trkpt><trkpt lat="48.421766513860646" lon="7.697188776839908"><ele>150.0</ele><time>2026-04-23T09:24:02Z</time></trkpt><trkpt lat="48.421684985062775" lon="7.697163739410791"><ele>150.0</ele><time>2026-04-23T09:24:06Z</time></trkpt><trkpt lat="48.421603538357445" lon="7.697154551241814"><ele>149.99999999999997</ele><time>2026-04-23T09:24:09Z</time></trkpt><trkpt lat="48.42152481889177" lon="7.697155427026867"><ele>150.0</ele><time>2026-04-23T09:24:14Z</time></trkpt><trkpt lat="48.42158983734044" lon="7.697179253800344"><ele>150.0</ele><time>2026-04-23T09:24:49Z</time></trkpt><trkpt lat="48.42165508448739" lon="7.697173432648344"><ele>150.0</ele><time>2026-04-23T09:24:52Z</time></trkpt><trkpt lat="48.42173834878857" lon="7.697207267740721"><ele>150.0</ele><time>2026-04-23T09:24:55Z</time></trkpt><trkpt lat="48.42179944916175" lon="7.697148356183437"><ele>149.99999999999997</ele><time>2026-04-23T09:25:00Z</time></trkpt><trkpt lat="48.4218054323103" lon="7.6970345591673395"><ele>150.0</ele><time>2026-04-23T09:25:03Z</time></trkpt><trkpt lat="48.421773192483634" lon="7.696941703003893"><ele>150.57142857142856</ele><time>2026-04-23T09:25:06Z</time></trkpt><trkpt lat="48.4217603561323" lon="7.696839206381218"><ele>151.14285714285714</ele><time>2026-04-23T09:25:09Z</time></trkpt><trkpt lat="48.42174718207079" lon="7.696739771428739"><ele>151.71428571428572</ele><time>2026-04-23T09:25:12Z</time></trkpt><trkpt lat="48.421730222052425" lon="7.6966369921066935"><ele>152.28571428571428</ele><time>2026-04-23T09:25:15Z</time></trkpt><trkpt lat="48.42170040742036" lon="7.696508970671814"><ele>152.85714285714286</ele><time>2026-04-23T09:25:18Z</time></trkpt><trkpt lat="48.42166918682049" lon="7.696422701441746"><ele>153.42857142857142</ele><time>2026-04-23T09:25:20Z</time></trkpt><trkpt lat="48.421636175732175" lon="7.696302025099058"><ele>154.0</ele><time>2026-04-23T09:25:23Z</time></trkpt><trkpt lat="48.42160566969687" lon="7.696171454554952"><ele>154.33333333333334</ele><time>2026-04-23T09:25:26Z</time></trkpt><trkpt lat="48.421581951706244" lon="7.696081802759093"><ele>154.66666666666669</ele><time>2026-04-23T09:25:28Z</time></trkpt><trkpt lat="48.42155752292684" lon="7.695962430044816"><ele>155.0</ele><time>2026-04-23T09:25:31Z</time></trkpt><trkpt lat="48.42153879668148" lon="7.695839009865477"><ele>155.33333333333334</ele><time>2026-04-23T09:25:34Z</time></trkpt><trkpt lat="48.421523520754675" lon="7.695743679101321"><ele>155.66666666666666</ele><time>2026-04-23T09:25:36Z</time></trkpt><trkpt lat="48.42150268436528" lon="7.6956059600414495"><ele>156.0</ele><time>2026-04-23T09:25:39Z</time></trkpt><trkpt lat="48.421499135846126" lon="7.695492952097747"><ele>156.0</ele><time>2026-04-23T09:25:42Z</time></trkpt><trkpt lat="48.42147343196668" lon="7.695377471084287"><ele>156.0</ele><time>2026-04-23T09:25:45Z</time></trkpt><trkpt lat="48.421462579285254" lon="7.6952720260758145"><ele>156.0</ele><time>2026-04-23T09:25:48Z</time></trkpt><trkpt lat="48.42144426187547" lon="7.695178349678829"><ele>158.0</ele><time>2026-04-23T09:25:59Z</time></trkpt></trkseg><trkseg><trkpt lat="48.42316924587054" lon="7.697998581847781"><ele>149.99999999999997</ele><time>2026-04-23T10:22:01.028Z</time></trkpt><trkpt lat="48.42323665182983" lon="7.698030657625558"><ele>150.0</ele><time>2026-04-23T10:22:03Z</time></trkpt><trkpt lat="48.42330358430954" lon="7.69806324016365"><ele>150.0</ele><time>2026-04-23T10:22:05Z</time></trkpt><trkpt lat="48.42337313352195" lon="7.6980905178548005"><ele>150.0</ele><time>2026-04-23T10:22:07Z</time></trkpt><trkpt lat="48.42343915425384" lon="7.69812251405002"><ele>150.0</ele><time>2026-04-23T10:22:09Z</time></trkpt><trkpt lat="48.42350974512992" lon="7.698155804061959"><ele>149.99999999999997</ele><time>2026-04-23T10:22:11Z</time></trkpt><trkpt lat="48.42357877413239" lon="7.69818372810085"><ele>150.0</ele><time>2026-04-23T10:22:13Z</time></trkpt><trkpt lat="48.42365097767438" lon="7.698216022418202"><ele>150.0</ele><time>2026-04-23T10:22:15Z</time></trkpt><trkpt lat="48.42372568215106" lon="7.698253419070391"><ele>150.0</ele><time>2026-04-23T10:22:17Z</time></trkpt><trkpt lat="48.423798405733166" lon="7.698279791092381"><ele>150.0</ele><time>2026-04-23T10:22:19Z</time></trkpt><trkpt lat="48.42388842732983" lon="7.698307244449361"><ele>150.0</ele><time>2026-04-23T10:22:21Z</time></trkpt><trkpt lat="48.42397017800068" lon="7.698345557093921"><ele>150.0</ele><time>2026-04-23T10:22:23Z</time></trkpt><trkpt lat="48.42406227164405" lon="7.698381530498501"><ele>150.0</ele><time>2026-04-23T10:22:25Z</time></trkpt><trkpt lat="48.42415178739726" lon="7.698428640913223"><ele>150.2</ele><time>2026-04-23T10:22:27Z</time></trkpt><trkpt lat="48.424250718884814" lon="7.698467548819624"><ele>150.4</ele><time>2026-04-23T10:22:29Z</time></trkpt><trkpt lat="48.424282518248376" lon="7.698606021673766"><ele>150.6</ele><time>2026-04-23T10:22:30Z</time></trkpt><trkpt lat="48.42438480291645" lon="7.698634158990925"><ele>150.8</ele><time>2026-04-23T10:22:32Z</time></trkpt><trkpt lat="48.42448722194627" lon="7.698661227231235"><ele>151.0</ele><time>2026-04-23T10:22:34Z</time></trkpt><trkpt lat="48.42459399536346" lon="7.698691050926365"><ele>150.4</ele><time>2026-04-23T10:22:36Z</time></trkpt><trkpt lat="48.42469923460239" lon="7.69872696364867"><ele>149.8</ele><time>2026-04-23T10:22:38Z</time></trkpt><trkpt lat="48.42480409185009" lon="7.698760358249802"><ele>149.20000000000002</ele><time>2026-04-23T10:22:40Z</time></trkpt><trkpt lat="48.42490309254912" lon="7.698780644663751"><ele>148.6</ele><time>2026-04-23T10:22:42Z</time></trkpt><trkpt lat="48.4249947101974" lon="7.698846280311169"><ele>148.0</ele><time>2026-04-23T10:22:44Z</time></trkpt><trkpt lat="48.42508180960547" lon="7.698913725326149"><ele>148.0</ele><time>2026-04-23T10:22:46Z</time></trkpt><trkpt lat="48.425171905652135" lon="7.698978579180166"><ele>148.0</ele><time>2026-04-23T10:22:48Z</time></trkpt><trkpt lat="48.4252771907035" lon="7.699035852800868"><ele>148.0</ele><time>2026-04-23T10:22:50Z</time></trkpt><trkpt lat="48.42536450092318" lon="7.699077466800878"><ele>148.0</ele><time>2026-04-23T10:22:52Z</time></trkpt><trkpt lat="48.425474857377104" lon="7.699049769893511"><ele>148.0</ele><time>2026-04-23T10:22:54Z</time></trkpt><trkpt lat="48.42558519992282" lon="7.699040147661241"><ele>147.8</ele><time>2026-04-23T10:22:56Z</time></trkpt><trkpt lat="48.42569046489062" lon="7.699091578599023"><ele>147.60000000000002</ele><time>2026-04-23T10:22:58Z</time></trkpt><trkpt lat="48.42579155375194" lon="7.699135721695186"><ele>147.39999999999998</ele><time>2026-04-23T10:23:00Z</time></trkpt><trkpt lat="48.42590393948353" lon="7.699167823218497"><ele>147.2</ele><time>2026-04-23T10:23:02Z</time></trkpt><trkpt lat="48.42601308141257" lon="7.699181913082807"><ele>147.0</ele><time>2026-04-23T10:23:04Z</time></trkpt><trkpt lat="48.426117248810726" lon="7.699221452508473"><ele>147.0</ele><time>2026-04-23T10:23:06Z</time></trkpt><trkpt lat="48.426222616328474" lon="7.699275783426771"><ele>147.0</ele><time>2026-04-23T10:23:08Z</time></trkpt><trkpt lat="48.42633216489601" lon="7.699313091368791"><ele>147.0</ele><time>2026-04-23T10:23:10Z</time></trkpt><trkpt lat="48.4264396125682" lon="7.69936741061556"><ele>147.0</ele><time>2026-04-23T10:23:12Z</time></trkpt><trkpt lat="48.42654815252754" lon="7.6994114183134235"><ele>147.0</ele><time>2026-04-23T10:23:14Z</time></trkpt><trkpt lat="48.42664853417205" lon="7.699459476117091"><ele>147.2</ele><time>2026-04-23T10:23:16Z</time></trkpt><trkpt lat="48.42675363847509" lon="7.69950312101107"><ele>147.39999999999998</ele><time>2026-04-23T10:23:18Z</time></trkpt><trkpt lat="48.42685931060346" lon="7.699552977027952"><ele>147.60000000000002</ele><time>2026-04-23T10:23:20Z</time></trkpt><trkpt lat="48.426966960700305" lon="7.6995927967075515"><ele>147.8</ele><time>2026-04-23T10:23:22Z</time></trkpt><trkpt lat="48.427069841237355" lon="7.699631293072548"><ele>148.0</ele><time>2026-04-23T10:23:24Z</time></trkpt><trkpt lat="48.42716564622056" lon="7.699667554644856"><ele>148.0</ele><time>2026-04-23T10:23:26Z</time></trkpt><trkpt lat="48.42726717202696" lon="7.699709079231097"><ele>148.0</ele><time>2026-04-23T10:23:28Z</time></trkpt><trkpt lat="48.42736700472038" lon="7.699749152797108"><ele>148.0</ele><time>2026-04-23T10:23:30Z</time></trkpt><trkpt lat="48.42746793529693" lon="7.699790367965575"><ele>148.0</ele><time>2026-04-23T10:23:32Z</time></trkpt><trkpt lat="48.42756565346284" lon="7.69982301559736"><ele>148.0</ele><time>2026-04-23T10:23:34Z</time></trkpt><trkpt lat="48.42766217646948" lon="7.69986118453715"><ele>148.0</ele><time>2026-04-23T10:23:36Z</time></trkpt><trkpt lat="48.42775268052324" lon="7.699915377662341"><ele>148.0</ele><time>2026-04-23T10:23:38Z</time></trkpt><trkpt lat="48.42784827353824" lon="7.6999514402312155"><ele>148.0</ele><time>2026-04-23T10:23:40Z</time></trkpt><trkpt lat="48.42794540476719" lon="7.699990470376158"><ele>148.0</ele><time>2026-04-23T10:23:42Z</time></trkpt><trkpt lat="48.428042497818836" lon="7.700036034716962"><ele>148.0</ele><time>2026-04-23T10:23:44Z</time></trkpt><trkpt lat="48.4281438549882" lon="7.700067867507325"><ele>147.8</ele><time>2026-04-23T10:23:46Z</time></trkpt><trkpt lat="48.42824269219841" lon="7.700112439778943"><ele>147.60000000000002</ele><time>2026-04-23T10:23:48Z</time></trkpt><trkpt lat="48.428343085944256" lon="7.700150420478425"><ele>147.39999999999998</ele><time>2026-04-23T10:23:50Z</time></trkpt><trkpt lat="48.42844452277747" lon="7.700184331892852"><ele>147.2</ele><time>2026-04-23T10:23:52Z</time></trkpt><trkpt lat="48.42854429491136" lon="7.7002213146707"><ele>147.0</ele><time>2026-04-23T10:23:54Z</time></trkpt><trkpt lat="48.42864775491282" lon="7.7002516680816635"><ele>146.79999999999998</ele><time>2026-04-23T10:23:56Z</time></trkpt><trkpt lat="48.42874923185258" lon="7.700288125280352"><ele>146.6</ele><time>2026-04-23T10:23:58Z</time></trkpt><trkpt lat="48.42884851398843" lon="7.700322322579537"><ele>146.39999999999998</ele><time>2026-04-23T10:24:00Z</time></trkpt><trkpt lat="48.4289518258934" lon="7.700363305147685"><ele>146.2</ele><time>2026-04-23T10:24:02Z</time></trkpt><trkpt lat="48.429054781166364" lon="7.700397333402943"><ele>146.0</ele><time>2026-04-23T10:24:04Z</time></trkpt><trkpt lat="48.42915826148727" lon="7.700433232623774"><ele>146.4</ele><time>2026-04-23T10:24:06Z</time></trkpt><trkpt lat="48.42925841678413" lon="7.700471957884372"><ele>146.8</ele><time>2026-04-23T10:24:08Z</time></trkpt><trkpt lat="48.42936093482593" lon="7.700512616148485"><ele>147.20000000000002</ele><time>2026-04-23T10:24:10Z</time></trkpt><trkpt lat="48.42946173825152" lon="7.700546297827925"><ele>147.6</ele><time>2026-04-23T10:24:12Z</time></trkpt><trkpt lat="48.42956647459147" lon="7.700593967245192"><ele>148.0</ele><time>2026-04-23T10:24:14Z</time></trkpt><trkpt lat="48.429664732344534" lon="7.700632986773693"><ele>148.6</ele><time>2026-04-23T10:24:16Z</time></trkpt><trkpt lat="48.429760968689024" lon="7.700674412172058"><ele>149.20000000000002</ele><time>2026-04-23T10:24:18Z</time></trkpt><trkpt lat="48.42986161542535" lon="7.700716058310582"><ele>149.8</ele><time>2026-04-23T10:24:20Z</time></trkpt><trkpt lat="48.429965173781376" lon="7.7007553404621465"><ele>150.4</ele><time>2026-04-23T10:24:22Z</time></trkpt><trkpt lat="48.43006084501678" lon="7.700795285827118"><ele>151.0</ele><time>2026-04-23T10:24:24Z</time></trkpt><trkpt lat="48.43015994273557" lon="7.700832034621334"><ele>151.0</ele><time>2026-04-23T10:24:26Z</time></trkpt><trkpt lat="48.43025906783798" lon="7.70087301835872"><ele>151.0</ele><time>2026-04-23T10:24:28Z</time></trkpt><trkpt lat="48.43035805704731" lon="7.700906658098106"><ele>151.0</ele><time>2026-04-23T10:24:30Z</time></trkpt><trkpt lat="48.430450637305015" lon="7.700953399454244"><ele>151.0</ele><time>2026-04-23T10:24:32Z</time></trkpt><trkpt lat="48.43054951711775" lon="7.700989940369885"><ele>151.0</ele><time>2026-04-23T10:24:34Z</time></trkpt><trkpt lat="48.43064808667573" lon="7.7010299728228295"><ele>151.0</ele><time>2026-04-23T10:24:36Z</time></trkpt><trkpt lat="48.43074482767292" lon="7.701073035735462"><ele>151.0</ele><time>2026-04-23T10:24:38Z</time></trkpt><trkpt lat="48.430842813761075" lon="7.701101115464555"><ele>151.0</ele><time>2026-04-23T10:24:40Z</time></trkpt><trkpt lat="48.430938101051765" lon="7.7011403674263805"><ele>151.0</ele><time>2026-04-23T10:24:42Z</time></trkpt><trkpt lat="48.43102896686783" lon="7.7011662916731645"><ele>151.0</ele><time>2026-04-23T10:24:44Z</time></trkpt><trkpt lat="48.43112280911146" lon="7.701205503568217"><ele>151.0</ele><time>2026-04-23T10:24:46Z</time></trkpt><trkpt lat="48.43121862119886" lon="7.7012480955024945"><ele>151.0</ele><time>2026-04-23T10:24:48Z</time></trkpt><trkpt lat="48.431313181653714" lon="7.701286691787066"><ele>151.0</ele><time>2026-04-23T10:24:50Z</time></trkpt><trkpt lat="48.431411428869836" lon="7.701311160302973"><ele>151.0</ele><time>2026-04-23T10:24:52Z</time></trkpt><trkpt lat="48.431507010778624" lon="7.701348634647204"><ele>151.0</ele><time>2026-04-23T10:24:54Z</time></trkpt><trkpt lat="48.431604226620934" lon="7.701389059033825"><ele>151.0</ele><time>2026-04-23T10:24:56Z</time></trkpt><trkpt lat="48.431700787787825" lon="7.701419798866075"><ele>151.0</ele><time>2026-04-23T10:24:58Z</time></trkpt><trkpt lat="48.43180172556844" lon="7.70145949448042"><ele>151.0</ele><time>2026-04-23T10:25:00Z</time></trkpt><trkpt lat="48.43189662887844" lon="7.701508527308347"><ele>151.0</ele><time>2026-04-23T10:25:02Z</time></trkpt><trkpt lat="48.43199488308016" lon="7.701553294335144"><ele>151.0</ele><time>2026-04-23T10:25:04Z</time></trkpt><trkpt lat="48.432077777999645" lon="7.701606905215515"><ele>151.0</ele><time>2026-04-23T10:25:07Z</time></trkpt><trkpt lat="48.43212333406045" lon="7.701674772676936"><ele>151.0</ele><time>2026-04-23T10:25:10Z</time></trkpt><trkpt lat="48.43222301084275" lon="7.701696603362356"><ele>151.0</ele><time>2026-04-23T10:25:11Z</time></trkpt><trkpt lat="48.43228855220014" lon="7.701690651132649"><ele>151.0</ele><time>2026-04-23T10:25:13Z</time></trkpt><trkpt lat="48.4324898132459" lon="7.701691655346524"><ele>151.0</ele><time>2026-04-23T10:25:15Z</time></trkpt><trkpt lat="48.432581035949106" lon="7.7017316513216345"><ele>151.2</ele><time>2026-04-23T10:25:17Z</time></trkpt><trkpt lat="48.43267304944009" lon="7.7017603441425795"><ele>151.39999999999998</ele><time>2026-04-23T10:25:19Z</time></trkpt><trkpt lat="48.432764708317386" lon="7.701800276498822"><ele>151.6</ele><time>2026-04-23T10:25:21Z</time></trkpt><trkpt lat="48.43285035595222" lon="7.701822509858752"><ele>151.79999999999998</ele><time>2026-04-23T10:25:23Z</time></trkpt><trkpt lat="48.432932041730474" lon="7.701867040725851"><ele>152.0</ele><time>2026-04-23T10:25:25Z</time></trkpt><trkpt lat="48.433020759032175" lon="7.70189474245998"><ele>152.0</ele><time>2026-04-23T10:25:27Z</time></trkpt><trkpt lat="48.43310806969524" lon="7.701936318655988"><ele>152.0</ele><time>2026-04-23T10:25:29Z</time></trkpt><trkpt lat="48.433203222347544" lon="7.701961362274199"><ele>152.0</ele><time>2026-04-23T10:25:31Z</time></trkpt><trkpt lat="48.43329839892129" lon="7.702002583604574"><ele>152.0</ele><time>2026-04-23T10:25:33Z</time></trkpt><trkpt lat="48.43336357594287" lon="7.702134768665067"><ele>152.0</ele><time>2026-04-23T10:25:35Z</time></trkpt><trkpt lat="48.43346028646202" lon="7.70217997555419"><ele>152.0</ele><time>2026-04-23T10:25:37Z</time></trkpt><trkpt lat="48.43354465686864" lon="7.702189785170191"><ele>152.0</ele><time>2026-04-23T10:25:39Z</time></trkpt><trkpt lat="48.43364806590848" lon="7.7022419318003426"><ele>152.0</ele><time>2026-04-23T10:25:41Z</time></trkpt><trkpt lat="48.43375280597052" lon="7.7022723865556975"><ele>152.0</ele><time>2026-04-23T10:25:43Z</time></trkpt><trkpt lat="48.433851582101916" lon="7.702324213633902"><ele>152.0</ele><time>2026-04-23T10:25:45Z</time></trkpt><trkpt lat="48.433954645679684" lon="7.702371960732807"><ele>152.0</ele><time>2026-04-23T10:25:47Z</time></trkpt><trkpt lat="48.43406248039563" lon="7.7024081532174336"><ele>152.0</ele><time>2026-04-23T10:25:49Z</time></trkpt><trkpt lat="48.434170258059574" lon="7.702450179217848"><ele>152.0</ele><time>2026-04-23T10:25:51Z</time></trkpt><trkpt lat="48.43427889520626" lon="7.702505992685477"><ele>152.0</ele><time>2026-04-23T10:25:53Z</time></trkpt><trkpt lat="48.434384487843694" lon="7.702548282305536"><ele>152.0</ele><time>2026-04-23T10:25:55Z</time></trkpt><trkpt lat="48.43448522852524" lon="7.702585038686653"><ele>152.0</ele><time>2026-04-23T10:25:57Z</time></trkpt><trkpt lat="48.43459382060713" lon="7.702624676277435"><ele>152.0</ele><time>2026-04-23T10:25:59Z</time></trkpt><trkpt lat="48.43470536316048" lon="7.702665857204237"><ele>152.0</ele><time>2026-04-23T10:26:01Z</time></trkpt><trkpt lat="48.43480867019339" lon="7.7027408736140135"><ele>152.0</ele><time>2026-04-23T10:26:03Z</time></trkpt><trkpt lat="48.43491750187666" lon="7.702755305485165"><ele>151.79999999999998</ele><time>2026-04-23T10:26:05Z</time></trkpt><trkpt lat="48.43502018960401" lon="7.702799535527781"><ele>151.6</ele><time>2026-04-23T10:26:07Z</time></trkpt><trkpt lat="48.43512025812227" lon="7.70284032589943"><ele>151.39999999999998</ele><time>2026-04-23T10:26:09Z</time></trkpt><trkpt lat="48.4352217215811" lon="7.702871221862453"><ele>151.2</ele><time>2026-04-23T10:26:11Z</time></trkpt><trkpt lat="48.43533030983356" lon="7.702871454518409"><ele>151.0</ele><time>2026-04-23T10:26:13Z</time></trkpt><trkpt lat="48.43542511906985" lon="7.702900916583964"><ele>151.0</ele><time>2026-04-23T10:26:15Z</time></trkpt><trkpt lat="48.435552671090065" lon="7.702922791808741"><ele>151.0</ele><time>2026-04-23T10:26:17Z</time></trkpt><trkpt lat="48.43564064267187" lon="7.7029669930831774"><ele>151.0</ele><time>2026-04-23T10:26:19Z</time></trkpt><trkpt lat="48.43573065397014" lon="7.703036595947325"><ele>151.0</ele><time>2026-04-23T10:26:21Z</time></trkpt><trkpt lat="48.43582136026445" lon="7.703103645918049"><ele>151.0</ele><time>2026-04-23T10:26:23Z</time></trkpt><trkpt lat="48.43595196537894" lon="7.703146095714208"><ele>151.0</ele><time>2026-04-23T10:26:25Z</time></trkpt><trkpt lat="48.43606122621786" lon="7.703217241405776"><ele>151.0</ele><time>2026-04-23T10:26:27Z</time></trkpt><trkpt lat="48.43615239047166" lon="7.703246935308769"><ele>151.0</ele><time>2026-04-23T10:26:29Z</time></trkpt><trkpt lat="48.43626293935028" lon="7.703272435329522"><ele>151.0</ele><time>2026-04-23T10:26:31Z</time></trkpt><trkpt lat="48.43638011767445" lon="7.703291478451646"><ele>151.0</ele><time>2026-04-23T10:26:33Z</time></trkpt><trkpt lat="48.436478616044084" lon="7.7032999707126555"><ele>150.6</ele><time>2026-04-23T10:26:35Z</time></trkpt><trkpt lat="48.43658633039565" lon="7.703317384947868"><ele>150.2</ele><time>2026-04-23T10:26:37Z</time></trkpt><trkpt lat="48.43669842298886" lon="7.7033517664392575"><ele>149.8</ele><time>2026-04-23T10:26:39Z</time></trkpt><trkpt lat="48.436793850733174" lon="7.703379738221557"><ele>149.4</ele><time>2026-04-23T10:26:41Z</time></trkpt><trkpt lat="48.43688803396846" lon="7.703421402156784"><ele>149.0</ele><time>2026-04-23T10:26:43Z</time></trkpt><trkpt lat="48.43700302257" lon="7.703445317429652"><ele>149.0</ele><time>2026-04-23T10:26:45Z</time></trkpt><trkpt lat="48.437064743933675" lon="7.70347345100104"><ele>149.0</ele><time>2026-04-23T10:26:46Z</time></trkpt><trkpt lat="48.4371636582555" lon="7.703496947196005"><ele>149.0</ele><time>2026-04-23T10:26:48Z</time></trkpt><trkpt lat="48.43726051526441" lon="7.703535764700773"><ele>149.0</ele><time>2026-04-23T10:26:50Z</time></trkpt><trkpt lat="48.43736906201875" lon="7.70357330916405"><ele>149.0</ele><time>2026-04-23T10:26:52Z</time></trkpt><trkpt lat="48.43748657590931" lon="7.703607485771923"><ele>149.0</ele><time>2026-04-23T10:26:54Z</time></trkpt><trkpt lat="48.43753954716653" lon="7.70367485058843"><ele>149.0</ele><time>2026-04-23T10:26:55Z</time></trkpt><trkpt lat="48.43763243516584" lon="7.703693199738083"><ele>149.0</ele><time>2026-04-23T10:26:57Z</time></trkpt><trkpt lat="48.43774166415357" lon="7.703733628195958"><ele>149.0</ele><time>2026-04-23T10:26:59Z</time></trkpt><trkpt lat="48.43783635579946" lon="7.70376111496986"><ele>149.0</ele><time>2026-04-23T10:27:01Z</time></trkpt><trkpt lat="48.4379253245642" lon="7.703817201723873"><ele>149.8</ele><time>2026-04-23T10:27:03Z</time></trkpt><trkpt lat="48.438027656449606" lon="7.703840295777084"><ele>150.60000000000002</ele><time>2026-04-23T10:27:05Z</time></trkpt><trkpt lat="48.438095160924796" lon="7.703887843625037"><ele>151.4</ele><time>2026-04-23T10:27:06Z</time></trkpt><trkpt lat="48.43820402589894" lon="7.703898042051184"><ele>152.20000000000002</ele><time>2026-04-23T10:27:08Z</time></trkpt><trkpt lat="48.43830166374173" lon="7.70396987281773"><ele>153.0</ele><time>2026-04-23T10:27:10Z</time></trkpt><trkpt lat="48.438398173370494" lon="7.7040140904655985"><ele>153.0</ele><time>2026-04-23T10:27:12Z</time></trkpt><trkpt lat="48.43847462490126" lon="7.704025980411509"><ele>153.0</ele><time>2026-04-23T10:27:13Z</time></trkpt><trkpt lat="48.438551924729616" lon="7.704131875795358"><ele>153.0</ele><time>2026-04-23T10:27:15Z</time></trkpt><trkpt lat="48.438616649683254" lon="7.704148809859043"><ele>153.0</ele><time>2026-04-23T10:27:16Z</time></trkpt><trkpt lat="48.43873033920512" lon="7.704203001545539"><ele>153.0</ele><time>2026-04-23T10:27:18Z</time></trkpt><trkpt lat="48.438824792572824" lon="7.704256453038885"><ele>152.6</ele><time>2026-04-23T10:27:20Z</time></trkpt><trkpt lat="48.43891489421529" lon="7.704354990504538"><ele>152.20000000000002</ele><time>2026-04-23T10:27:22Z</time></trkpt><trkpt lat="48.43901617327717" lon="7.7043849249904754"><ele>151.8</ele><time>2026-04-23T10:27:24Z</time></trkpt><trkpt lat="48.43912624246077" lon="7.704403991029167"><ele>151.4</ele><time>2026-04-23T10:27:26Z</time></trkpt><trkpt lat="48.439236065139156" lon="7.704402807779315"><ele>151.0</ele><time>2026-04-23T10:27:28Z</time></trkpt><trkpt lat="48.43932869708151" lon="7.704451739101713"><ele>151.0</ele><time>2026-04-23T10:27:30Z</time></trkpt><trkpt lat="48.439417275762594" lon="7.704527073381017"><ele>151.0</ele><time>2026-04-23T10:27:32Z</time></trkpt><trkpt lat="48.43952187208879" lon="7.704565423479826"><ele>151.0</ele><time>2026-04-23T10:27:34Z</time></trkpt><trkpt lat="48.439628725020604" lon="7.704565253368579"><ele>151.0</ele><time>2026-04-23T10:27:36Z</time></trkpt><trkpt lat="48.43973332252774" lon="7.7045963347336"><ele>151.0</ele><time>2026-04-23T10:27:38Z</time></trkpt><trkpt lat="48.43983430983548" lon="7.704631536803465"><ele>150.4</ele><time>2026-04-23T10:27:40Z</time></trkpt><trkpt lat="48.43994364956932" lon="7.704650732229814"><ele>149.8</ele><time>2026-04-23T10:27:42Z</time></trkpt><trkpt lat="48.440048908622465" lon="7.704677757489089"><ele>149.20000000000002</ele><time>2026-04-23T10:27:44Z</time></trkpt><trkpt lat="48.440144397588256" lon="7.704709657977087"><ele>148.6</ele><time>2026-04-23T10:27:46Z</time></trkpt><trkpt lat="48.44024200358035" lon="7.704746203062119"><ele>148.0</ele><time>2026-04-23T10:27:48Z</time></trkpt><trkpt lat="48.44034151107182" lon="7.7047815671308"><ele>148.0</ele><time>2026-04-23T10:27:50Z</time></trkpt><trkpt lat="48.440442548024485" lon="7.704803517964366"><ele>148.0</ele><time>2026-04-23T10:27:52Z</time></trkpt><trkpt lat="48.44054017999222" lon="7.704852003640381"><ele>148.0</ele><time>2026-04-23T10:27:54Z</time></trkpt><trkpt lat="48.44064220882075" lon="7.704877075902008"><ele>148.0</ele><time>2026-04-23T10:27:56Z</time></trkpt><trkpt lat="48.44074601448948" lon="7.704914730257368"><ele>148.0</ele><time>2026-04-23T10:27:58Z</time></trkpt><trkpt lat="48.44084732693367" lon="7.704942687145989"><ele>148.20000000000002</ele><time>2026-04-23T10:28:00Z</time></trkpt><trkpt lat="48.440952311951186" lon="7.704974967375816"><ele>148.4</ele><time>2026-04-23T10:28:02Z</time></trkpt><trkpt lat="48.44105644520502" lon="7.705013714955645"><ele>148.60000000000002</ele><time>2026-04-23T10:28:04Z</time></trkpt><trkpt lat="48.441156435162355" lon="7.705051336367424"><ele>148.8</ele><time>2026-04-23T10:28:06Z</time></trkpt><trkpt lat="48.44126528978748" lon="7.70508582052925"><ele>149.0</ele><time>2026-04-23T10:28:08Z</time></trkpt><trkpt lat="48.4413660920196" lon="7.705114697414495"><ele>149.0</ele><time>2026-04-23T10:28:10Z</time></trkpt><trkpt lat="48.4414640564288" lon="7.705187128876863"><ele>149.0</ele><time>2026-04-23T10:28:12Z</time></trkpt><trkpt lat="48.44156873933533" lon="7.705243184590168"><ele>149.0</ele><time>2026-04-23T10:28:14Z</time></trkpt><trkpt lat="48.441669918825966" lon="7.705273243125918"><ele>149.0</ele><time>2026-04-23T10:28:16Z</time></trkpt><trkpt lat="48.441773545820865" lon="7.705295345925587"><ele>149.0</ele><time>2026-04-23T10:28:18Z</time></trkpt><trkpt lat="48.441883313317426" lon="7.705308524678265"><ele>149.4</ele><time>2026-04-23T10:28:20Z</time></trkpt><trkpt lat="48.44197945280795" lon="7.705360344248649"><ele>149.8</ele><time>2026-04-23T10:28:22Z</time></trkpt><trkpt lat="48.44207877847042" lon="7.705421199248075"><ele>150.2</ele><time>2026-04-23T10:28:24Z</time></trkpt><trkpt lat="48.44218758941739" lon="7.7054545591056565"><ele>150.6</ele><time>2026-04-23T10:28:26Z</time></trkpt><trkpt lat="48.4422971791981" lon="7.705491928775427"><ele>151.0</ele><time>2026-04-23T10:28:28Z</time></trkpt><trkpt lat="48.44240820798872" lon="7.705526875948978"><ele>151.0</ele><time>2026-04-23T10:28:30Z</time></trkpt><trkpt lat="48.44249662921742" lon="7.7055959358337125"><ele>151.0</ele><time>2026-04-23T10:28:32Z</time></trkpt><trkpt lat="48.44255600049771" lon="7.705629495396406"><ele>151.0</ele><time>2026-04-23T10:28:33Z</time></trkpt><trkpt lat="48.4426558834289" lon="7.70566598322644"><ele>151.0</ele><time>2026-04-23T10:28:35Z</time></trkpt><trkpt lat="48.44274998597264" lon="7.705722690790541"><ele>151.0</ele><time>2026-04-23T10:28:37Z</time></trkpt><trkpt lat="48.442838419738" lon="7.705792581862023"><ele>151.0</ele><time>2026-04-23T10:28:39Z</time></trkpt><trkpt lat="48.44293345639774" lon="7.705838974114753"><ele>151.0</ele><time>2026-04-23T10:28:41Z</time></trkpt><trkpt lat="48.44304383755297" lon="7.7058959789942065"><ele>151.0</ele><time>2026-04-23T10:28:43Z</time></trkpt><trkpt lat="48.44314834639005" lon="7.705948522981794"><ele>151.0</ele><time>2026-04-23T10:28:45Z</time></trkpt><trkpt lat="48.44320904519346" lon="7.70598740577923"><ele>151.0</ele><time>2026-04-23T10:28:46Z</time></trkpt><trkpt lat="48.44332669466976" lon="7.70603254807871"><ele>151.0</ele><time>2026-04-23T10:28:48Z</time></trkpt><trkpt lat="48.443425014960624" lon="7.7060651146314365"><ele>151.0</ele><time>2026-04-23T10:28:50Z</time></trkpt><trkpt lat="48.44352873899437" lon="7.70610372160973"><ele>151.0</ele><time>2026-04-23T10:28:52Z</time></trkpt><trkpt lat="48.44365808919151" lon="7.706148467563255"><ele>151.0</ele><time>2026-04-23T10:28:54Z</time></trkpt><trkpt lat="48.44372146061402" lon="7.706172379145466"><ele>151.0</ele><time>2026-04-23T10:28:55Z</time></trkpt><trkpt lat="48.443801374969354" lon="7.706203760015895"><ele>151.0</ele><time>2026-04-23T10:28:57Z</time></trkpt><trkpt lat="48.44390072919329" lon="7.706243486945543"><ele>151.0</ele><time>2026-04-23T10:28:59Z</time></trkpt><trkpt lat="48.44400484829303" lon="7.706287459739358"><ele>151.0</ele><time>2026-04-23T10:29:01Z</time></trkpt><trkpt lat="48.44411095006832" lon="7.7063774507336715"><ele>151.0</ele><time>2026-04-23T10:29:03Z</time></trkpt><trkpt lat="48.44419489459843" lon="7.706409385625048"><ele>151.0</ele><time>2026-04-23T10:29:05Z</time></trkpt><trkpt lat="48.44425805314924" lon="7.706408999624745"><ele>151.0</ele><time>2026-04-23T10:29:06Z</time></trkpt><trkpt lat="48.44435368457086" lon="7.706448338454428"><ele>151.0</ele><time>2026-04-23T10:29:08Z</time></trkpt><trkpt lat="48.44445856576574" lon="7.70647601682071"><ele>151.0</ele><time>2026-04-23T10:29:10Z</time></trkpt><trkpt lat="48.44454352747043" lon="7.706518478360519"><ele>151.0</ele><time>2026-04-23T10:29:12Z</time></trkpt><trkpt lat="48.44464018345632" lon="7.706557597187515"><ele>151.0</ele><time>2026-04-23T10:29:14Z</time></trkpt><trkpt lat="48.44473499313614" lon="7.706606272796195"><ele>151.16666666666669</ele><time>2026-04-23T10:29:16Z</time></trkpt><trkpt lat="48.444821634145434" lon="7.7066612786594995"><ele>151.33333333333334</ele><time>2026-04-23T10:29:18Z</time></trkpt><trkpt lat="48.44488227814407" lon="7.706687922437511"><ele>151.5</ele><time>2026-04-23T10:29:19Z</time></trkpt><trkpt lat="48.444982220949335" lon="7.706717143822718"><ele>151.66666666666666</ele><time>2026-04-23T10:29:21Z</time></trkpt><trkpt lat="48.44509028018409" lon="7.706708175570206"><ele>151.83333333333331</ele><time>2026-04-23T10:29:23Z</time></trkpt><trkpt lat="48.44515848041323" lon="7.706708480550491"><ele>152.0</ele><time>2026-04-23T10:29:24Z</time></trkpt><trkpt lat="48.44525191769281" lon="7.706791212982283"><ele>152.0</ele><time>2026-04-23T10:29:26Z</time></trkpt><trkpt lat="48.44535571993715" lon="7.70684844752152"><ele>152.0</ele><time>2026-04-23T10:29:28Z</time></trkpt><trkpt lat="48.44542415956884" lon="7.706845872222265"><ele>152.0</ele><time>2026-04-23T10:29:30Z</time></trkpt><trkpt lat="48.44551492839742" lon="7.706888827274763"><ele>152.0</ele><time>2026-04-23T10:29:32Z</time></trkpt><trkpt lat="48.44562573132432" lon="7.7069252631436544"><ele>152.0</ele><time>2026-04-23T10:29:34Z</time></trkpt><trkpt lat="48.44570629745498" lon="7.706984280439669"><ele>152.0</ele><time>2026-04-23T10:29:36Z</time></trkpt><trkpt lat="48.44581435717837" lon="7.707031429626413"><ele>152.0</ele><time>2026-04-23T10:29:38Z</time></trkpt><trkpt lat="48.445880109572784" lon="7.707031298805787"><ele>152.0</ele><time>2026-04-23T10:29:39Z</time></trkpt><trkpt lat="48.44596611424909" lon="7.707071404371818"><ele>152.0</ele><time>2026-04-23T10:29:41Z</time></trkpt><trkpt lat="48.44603458146762" lon="7.707148980761274"><ele>152.0</ele><time>2026-04-23T10:29:43Z</time></trkpt><trkpt lat="48.44614691989687" lon="7.707191606498114"><ele>152.0</ele><time>2026-04-23T10:29:45Z</time></trkpt><trkpt lat="48.446263547974766" lon="7.707192498735781"><ele>152.0</ele><time>2026-04-23T10:29:47Z</time></trkpt><trkpt lat="48.44630641595967" lon="7.707285199894519"><ele>152.0</ele><time>2026-04-23T10:29:50Z</time></trkpt><trkpt lat="48.446386812256335" lon="7.707298794905662"><ele>152.0</ele><time>2026-04-23T10:29:52Z</time></trkpt><trkpt lat="48.44645686158653" lon="7.707292766807234"><ele>152.0</ele><time>2026-04-23T10:29:53Z</time></trkpt><trkpt lat="48.44652755132387" lon="7.707345009888631"><ele>152.0</ele><time>2026-04-23T10:29:55Z</time></trkpt><trkpt lat="48.44662898813424" lon="7.707347704751982"><ele>152.2</ele><time>2026-04-23T10:29:57Z</time></trkpt><trkpt lat="48.44672449982887" lon="7.707354784768053"><ele>152.39999999999998</ele><time>2026-04-23T10:29:59Z</time></trkpt><trkpt lat="48.44681181803812" lon="7.707405476704349"><ele>152.60000000000002</ele><time>2026-04-23T10:30:01Z</time></trkpt><trkpt lat="48.44688549775272" lon="7.707437380981414"><ele>152.8</ele><time>2026-04-23T10:30:03Z</time></trkpt><trkpt lat="48.4469978419557" lon="7.707506101234204"><ele>153.0</ele><time>2026-04-23T10:30:05Z</time></trkpt><trkpt lat="48.447097158535165" lon="7.707540529156494"><ele>152.66666666666666</ele><time>2026-04-23T10:30:07Z</time></trkpt><trkpt lat="48.44719928710435" lon="7.707550415469568"><ele>152.33333333333334</ele><time>2026-04-23T10:30:09Z</time></trkpt><trkpt lat="48.44726134821126" lon="7.707568921056827"><ele>152.0</ele><time>2026-04-23T10:30:10Z</time></trkpt><trkpt lat="48.447347029378854" lon="7.707638257036405"><ele>151.66666666666669</ele><time>2026-04-23T10:30:12Z</time></trkpt><trkpt lat="48.44746680720951" lon="7.707634245041196"><ele>151.33333333333334</ele><time>2026-04-23T10:30:14Z</time></trkpt><trkpt lat="48.44752824308466" lon="7.707656717944144"><ele>151.0</ele><time>2026-04-23T10:30:15Z</time></trkpt><trkpt lat="48.447625641660096" lon="7.7076800664673595"><ele>151.0</ele><time>2026-04-23T10:30:17Z</time></trkpt><trkpt lat="48.447687556323295" lon="7.707702364940839"><ele>151.0</ele><time>2026-04-23T10:30:18Z</time></trkpt><trkpt lat="48.447789563133526" lon="7.707735004307832"><ele>151.0</ele><time>2026-04-23T10:30:20Z</time></trkpt><trkpt lat="48.447884102884714" lon="7.707802967896987"><ele>151.0</ele><time>2026-04-23T10:30:22Z</time></trkpt><trkpt lat="48.44799608448732" lon="7.707874631029834"><ele>151.0</ele><time>2026-04-23T10:30:24Z</time></trkpt><trkpt lat="48.448092426023" lon="7.707924043102619"><ele>150.83333333333334</ele><time>2026-04-23T10:30:26Z</time></trkpt><trkpt lat="48.44819354639926" lon="7.707934321110286"><ele>150.66666666666669</ele><time>2026-04-23T10:30:28Z</time></trkpt><trkpt lat="48.44826232933932" lon="7.708012302191829"><ele>150.5</ele><time>2026-04-23T10:30:30Z</time></trkpt><trkpt lat="48.4483267402447" lon="7.708017835198917"><ele>150.33333333333334</ele><time>2026-04-23T10:30:31Z</time></trkpt><trkpt lat="48.44842990805214" lon="7.708035921795763"><ele>150.16666666666666</ele><time>2026-04-23T10:30:33Z</time></trkpt><trkpt lat="48.44848984770608" lon="7.708068375604919"><ele>150.0</ele><time>2026-04-23T10:30:34Z</time></trkpt><trkpt lat="48.44858970948992" lon="7.708126790969921"><ele>150.0</ele><time>2026-04-23T10:30:36Z</time></trkpt><trkpt lat="48.44870521190684" lon="7.708175077098573"><ele>150.0</ele><time>2026-04-23T10:30:38Z</time></trkpt><trkpt lat="48.44879313454905" lon="7.708198060233542"><ele>150.0</ele><time>2026-04-23T10:30:40Z</time></trkpt><trkpt lat="48.44888843664474" lon="7.708202621645149"><ele>150.0</ele><time>2026-04-23T10:30:42Z</time></trkpt><trkpt lat="48.44894663600918" lon="7.7082465971894205"><ele>150.0</ele><time>2026-04-23T10:30:43Z</time></trkpt><trkpt lat="48.44903861339139" lon="7.7083124595036185"><ele>149.8</ele><time>2026-04-23T10:30:45Z</time></trkpt><trkpt lat="48.44913319361998" lon="7.708306939688466"><ele>149.6</ele><time>2026-04-23T10:30:47Z</time></trkpt><trkpt lat="48.449231710306236" lon="7.708328010001622"><ele>149.4</ele><time>2026-04-23T10:30:49Z</time></trkpt><trkpt lat="48.44934005942217" lon="7.708352602574324"><ele>149.2</ele><time>2026-04-23T10:30:51Z</time></trkpt><trkpt lat="48.449405747847635" lon="7.708418422867162"><ele>149.0</ele><time>2026-04-23T10:30:53Z</time></trkpt><trkpt lat="48.4495064547746" lon="7.708423136953829"><ele>149.0</ele><time>2026-04-23T10:30:55Z</time></trkpt><trkpt lat="48.44960184130421" lon="7.708480235464683"><ele>149.0</ele><time>2026-04-23T10:30:57Z</time></trkpt><trkpt lat="48.44969683680244" lon="7.708509091900051"><ele>149.0</ele><time>2026-04-23T10:30:59Z</time></trkpt><trkpt lat="48.44978809089868" lon="7.708555354285549"><ele>149.0</ele><time>2026-04-23T10:31:01Z</time></trkpt><trkpt lat="48.44986349998059" lon="7.70860241422411"><ele>149.0</ele><time>2026-04-23T10:31:03Z</time></trkpt><trkpt lat="48.44996127993942" lon="7.708612609593725"><ele>149.16666666666666</ele><time>2026-04-23T10:31:05Z</time></trkpt><trkpt lat="48.45002598706458" lon="7.7086776123586285"><ele>149.33333333333331</ele><time>2026-04-23T10:31:07Z</time></trkpt><trkpt lat="48.450110766689484" lon="7.708694538302653"><ele>149.5</ele><time>2026-04-23T10:31:09Z</time></trkpt><trkpt lat="48.450213033293984" lon="7.7087179061931845"><ele>149.66666666666666</ele><time>2026-04-23T10:31:11Z</time></trkpt><trkpt lat="48.45029588522757" lon="7.70876660450964"><ele>149.83333333333334</ele><time>2026-04-23T10:31:13Z</time></trkpt><trkpt lat="48.450364178249636" lon="7.708780029739371"><ele>150.0</ele><time>2026-04-23T10:31:14Z</time></trkpt><trkpt lat="48.45045999868635" lon="7.708848096131527"><ele>150.0</ele><time>2026-04-23T10:31:16Z</time></trkpt><trkpt lat="48.450534549906166" lon="7.708940841906419"><ele>150.0</ele><time>2026-04-23T10:31:18Z</time></trkpt><trkpt lat="48.450605401137224" lon="7.709023698809234"><ele>150.0</ele><time>2026-04-23T10:31:20Z</time></trkpt><trkpt lat="48.45068133624316" lon="7.709062446636225"><ele>150.0</ele><time>2026-04-23T10:31:22Z</time></trkpt><trkpt lat="48.45074511041153" lon="7.709044898223955"><ele>150.0</ele><time>2026-04-23T10:31:23Z</time></trkpt><trkpt lat="48.450832223979724" lon="7.70901362367135"><ele>150.0</ele><time>2026-04-23T10:31:25Z</time></trkpt><trkpt lat="48.450928722760715" lon="7.708980580511425"><ele>150.0</ele><time>2026-04-23T10:31:27Z</time></trkpt><trkpt lat="48.45103077623714" lon="7.709010967490215"><ele>150.0</ele><time>2026-04-23T10:31:29Z</time></trkpt><trkpt lat="48.45112166175219" lon="7.709053278907213"><ele>150.0</ele><time>2026-04-23T10:31:31Z</time></trkpt><trkpt lat="48.45121416057237" lon="7.709091998608911"><ele>150.0</ele><time>2026-04-23T10:31:33Z</time></trkpt><trkpt lat="48.45131169316174" lon="7.709127102480191"><ele>150.0</ele><time>2026-04-23T10:31:35Z</time></trkpt><trkpt lat="48.45141085427173" lon="7.7091472059583666"><ele>149.4</ele><time>2026-04-23T10:31:37Z</time></trkpt><trkpt lat="48.45150467550158" lon="7.709160717493981"><ele>148.8</ele><time>2026-04-23T10:31:39Z</time></trkpt><trkpt lat="48.45158925860702" lon="7.7092183893205934"><ele>148.2</ele><time>2026-04-23T10:31:41Z</time></trkpt><trkpt lat="48.45167621762793" lon="7.709283555274254"><ele>147.6</ele><time>2026-04-23T10:31:43Z</time></trkpt><trkpt lat="48.451769400808686" lon="7.70932737807333"><ele>147.0</ele><time>2026-04-23T10:31:45Z</time></trkpt><trkpt lat="48.4518627121509" lon="7.709345513242391"><ele>147.0</ele><time>2026-04-23T10:31:47Z</time></trkpt><trkpt lat="48.45195736747784" lon="7.709379765828042"><ele>147.0</ele><time>2026-04-23T10:31:49Z</time></trkpt><trkpt lat="48.45206443480984" lon="7.709429934707341"><ele>147.0</ele><time>2026-04-23T10:31:51Z</time></trkpt><trkpt lat="48.45212737525693" lon="7.709450099831355"><ele>147.0</ele><time>2026-04-23T10:31:52Z</time></trkpt><trkpt lat="48.452191543900476" lon="7.709469600764411"><ele>147.0</ele><time>2026-04-23T10:31:53Z</time></trkpt><trkpt lat="48.45226338608005" lon="7.709457331972635"><ele>147.0</ele><time>2026-04-23T10:31:54Z</time></trkpt><trkpt lat="48.4523710068812" lon="7.709485891263932"><ele>146.4</ele><time>2026-04-23T10:31:56Z</time></trkpt><trkpt lat="48.45247099935494" lon="7.709519170406222"><ele>145.79999999999998</ele><time>2026-04-23T10:31:58Z</time></trkpt><trkpt lat="48.452570599328034" lon="7.709525214126781"><ele>145.2</ele><time>2026-04-23T10:32:00Z</time></trkpt><trkpt lat="48.45266977426766" lon="7.709555642677787"><ele>144.6</ele><time>2026-04-23T10:32:02Z</time></trkpt><trkpt lat="48.452777183002716" lon="7.709596654215301"><ele>144.0</ele><time>2026-04-23T10:32:04Z</time></trkpt><trkpt lat="48.45287010504851" lon="7.709625110303193"><ele>144.0</ele><time>2026-04-23T10:32:06Z</time></trkpt><trkpt lat="48.45297575590665" lon="7.709661759176459"><ele>144.0</ele><time>2026-04-23T10:32:08Z</time></trkpt><trkpt lat="48.453075939197056" lon="7.709722716145539"><ele>144.0</ele><time>2026-04-23T10:32:10Z</time></trkpt><trkpt lat="48.453174353653665" lon="7.7097596039212695"><ele>144.0</ele><time>2026-04-23T10:32:12Z</time></trkpt><trkpt lat="48.45327979435704" lon="7.709795010881587"><ele>144.0</ele><time>2026-04-23T10:32:14Z</time></trkpt><trkpt lat="48.45337317474746" lon="7.709851586814558"><ele>144.0</ele><time>2026-04-23T10:32:16Z</time></trkpt><trkpt lat="48.453472110317946" lon="7.709888896193345"><ele>144.0</ele><time>2026-04-23T10:32:18Z</time></trkpt><trkpt lat="48.45356813916833" lon="7.709929788915715"><ele>144.0</ele><time>2026-04-23T10:32:20Z</time></trkpt><trkpt lat="48.453664442723785" lon="7.71000219054443"><ele>144.0</ele><time>2026-04-23T10:32:22Z</time></trkpt><trkpt lat="48.453763737896374" lon="7.7100303531644965"><ele>144.0</ele><time>2026-04-23T10:32:24Z</time></trkpt><trkpt lat="48.45385835670842" lon="7.710065063235564"><ele>144.6</ele><time>2026-04-23T10:32:26Z</time></trkpt><trkpt lat="48.45395919071634" lon="7.710104460663944"><ele>145.2</ele><time>2026-04-23T10:32:28Z</time></trkpt><trkpt lat="48.45406192074926" lon="7.710144967641354"><ele>145.79999999999998</ele><time>2026-04-23T10:32:30Z</time></trkpt><trkpt lat="48.45416546559923" lon="7.710176573509771"><ele>146.4</ele><time>2026-04-23T10:32:32Z</time></trkpt><trkpt lat="48.45426698736128" lon="7.710220783699311"><ele>147.0</ele><time>2026-04-23T10:32:34Z</time></trkpt><trkpt lat="48.45436987204788" lon="7.710258378994261"><ele>147.4</ele><time>2026-04-23T10:32:36Z</time></trkpt><trkpt lat="48.45447129576893" lon="7.71029529782261"><ele>147.79999999999998</ele><time>2026-04-23T10:32:38Z</time></trkpt><trkpt lat="48.4545693817801" lon="7.71033311643088"><ele>148.2</ele><time>2026-04-23T10:32:40Z</time></trkpt><trkpt lat="48.454666579295036" lon="7.710358392884053"><ele>148.6</ele><time>2026-04-23T10:32:42Z</time></trkpt><trkpt lat="48.454765750045766" lon="7.710401229712659"><ele>149.0</ele><time>2026-04-23T10:32:44Z</time></trkpt><trkpt lat="48.45485932331257" lon="7.710440331708159"><ele>149.0</ele><time>2026-04-23T10:32:46Z</time></trkpt><trkpt lat="48.45495843870532" lon="7.7104732981422845"><ele>149.0</ele><time>2026-04-23T10:32:48Z</time></trkpt><trkpt lat="48.45505716277831" lon="7.7105156916205555"><ele>149.0</ele><time>2026-04-23T10:32:50Z</time></trkpt><trkpt lat="48.45515537260266" lon="7.710548487554525"><ele>149.0</ele><time>2026-04-23T10:32:52Z</time></trkpt><trkpt lat="48.45525146001007" lon="7.710579814535661"><ele>149.0</ele><time>2026-04-23T10:32:54Z</time></trkpt><trkpt lat="48.45534454990714" lon="7.7106151943376435"><ele>149.0</ele><time>2026-04-23T10:32:56Z</time></trkpt><trkpt lat="48.45543262875691" lon="7.710666043846158"><ele>149.0</ele><time>2026-04-23T10:32:58Z</time></trkpt><trkpt lat="48.455526967388906" lon="7.710697745269205"><ele>149.0</ele><time>2026-04-23T10:33:00Z</time></trkpt><trkpt lat="48.45562150163082" lon="7.710730771500347"><ele>149.0</ele><time>2026-04-23T10:33:02Z</time></trkpt><trkpt lat="48.45571837341976" lon="7.710758073913259"><ele>149.0</ele><time>2026-04-23T10:33:04Z</time></trkpt><trkpt lat="48.455815007198815" lon="7.710813210618708"><ele>148.4</ele><time>2026-04-23T10:33:06Z</time></trkpt><trkpt lat="48.45591297164652" lon="7.710852348841868"><ele>147.8</ele><time>2026-04-23T10:33:08Z</time></trkpt><trkpt lat="48.45601196235159" lon="7.710887823227071"><ele>147.2</ele><time>2026-04-23T10:33:10Z</time></trkpt><trkpt lat="48.45610792129455" lon="7.710922971879525"><ele>146.6</ele><time>2026-04-23T10:33:12Z</time></trkpt><trkpt lat="48.45620424591045" lon="7.710958743229547"><ele>146.0</ele><time>2026-04-23T10:33:14Z</time></trkpt><trkpt lat="48.4562971327207" lon="7.710990448171676"><ele>145.8</ele><time>2026-04-23T10:33:16Z</time></trkpt><trkpt lat="48.45639509702219" lon="7.711033721072586"><ele>145.6</ele><time>2026-04-23T10:33:18Z</time></trkpt><trkpt lat="48.456493547574176" lon="7.711058721624161"><ele>145.4</ele><time>2026-04-23T10:33:20Z</time></trkpt><trkpt lat="48.456592605349186" lon="7.711096987766685"><ele>145.2</ele><time>2026-04-23T10:33:22Z</time></trkpt><trkpt lat="48.45669647494266" lon="7.7111347417738445"><ele>145.0</ele><time>2026-04-23T10:33:24Z</time></trkpt><trkpt lat="48.45679462721996" lon="7.711180146662047"><ele>145.0</ele><time>2026-04-23T10:33:26Z</time></trkpt><trkpt lat="48.45689713492185" lon="7.711206749559504"><ele>145.0</ele><time>2026-04-23T10:33:28Z</time></trkpt><trkpt lat="48.45699850668416" lon="7.71124618662544"><ele>145.0</ele><time>2026-04-23T10:33:30Z</time></trkpt><trkpt lat="48.45709905039682" lon="7.711267389722658"><ele>145.0</ele><time>2026-04-23T10:33:32Z</time></trkpt><trkpt lat="48.45719980532494" lon="7.711307259187067"><ele>145.0</ele><time>2026-04-23T10:33:34Z</time></trkpt><trkpt lat="48.457298472077525" lon="7.711346419602952"><ele>145.0</ele><time>2026-04-23T10:33:36Z</time></trkpt><trkpt lat="48.45739593587103" lon="7.71137781380048"><ele>145.0</ele><time>2026-04-23T10:33:38Z</time></trkpt><trkpt lat="48.45749359583325" lon="7.711413818576365"><ele>145.0</ele><time>2026-04-23T10:33:40Z</time></trkpt><trkpt lat="48.45759056829424" lon="7.711461652500304"><ele>145.0</ele><time>2026-04-23T10:33:42Z</time></trkpt><trkpt lat="48.457687844854114" lon="7.711493686781154"><ele>145.0</ele><time>2026-04-23T10:33:44Z</time></trkpt><trkpt lat="48.45778045200437" lon="7.711535105989294"><ele>145.0</ele><time>2026-04-23T10:33:46Z</time></trkpt><trkpt lat="48.457876666069986" lon="7.711563938935001"><ele>145.0</ele><time>2026-04-23T10:33:48Z</time></trkpt><trkpt lat="48.457971220408375" lon="7.711609136287781"><ele>145.0</ele><time>2026-04-23T10:33:50Z</time></trkpt><trkpt lat="48.458067470943824" lon="7.711648507956644"><ele>145.0</ele><time>2026-04-23T10:33:52Z</time></trkpt><trkpt lat="48.45816516201053" lon="7.711675744285658"><ele>145.0</ele><time>2026-04-23T10:33:54Z</time></trkpt><trkpt lat="48.4582604513622" lon="7.711708949846868"><ele>145.0</ele><time>2026-04-23T10:33:56Z</time></trkpt><trkpt lat="48.45835763193731" lon="7.711748203178174"><ele>145.0</ele><time>2026-04-23T10:33:58Z</time></trkpt><trkpt lat="48.45845267410729" lon="7.711782381628115"><ele>145.0</ele><time>2026-04-23T10:34:00Z</time></trkpt><trkpt lat="48.45854795522828" lon="7.711818399498891"><ele>145.0</ele><time>2026-04-23T10:34:02Z</time></trkpt><trkpt lat="48.458639239609305" lon="7.711879760179673"><ele>145.0</ele><time>2026-04-23T10:34:04Z</time></trkpt><trkpt lat="48.45873531185975" lon="7.711906554067901"><ele>145.2</ele><time>2026-04-23T10:34:06Z</time></trkpt><trkpt lat="48.4588405633923" lon="7.7119445209958455"><ele>145.4</ele><time>2026-04-23T10:34:08Z</time></trkpt><trkpt lat="48.45894033921887" lon="7.711980733810858"><ele>145.6</ele><time>2026-04-23T10:34:10Z</time></trkpt><trkpt lat="48.4590443890008" lon="7.712011752047214"><ele>145.8</ele><time>2026-04-23T10:34:12Z</time></trkpt><trkpt lat="48.45914697143905" lon="7.712047203520022"><ele>146.0</ele><time>2026-04-23T10:34:14Z</time></trkpt><trkpt lat="48.4592461506272" lon="7.712083107532289"><ele>146.0</ele><time>2026-04-23T10:34:16Z</time></trkpt><trkpt lat="48.45934525242785" lon="7.71211602313636"><ele>146.0</ele><time>2026-04-23T10:34:18Z</time></trkpt><trkpt lat="48.459442562438205" lon="7.712157801872561"><ele>146.0</ele><time>2026-04-23T10:34:20Z</time></trkpt><trkpt lat="48.45953765732148" lon="7.7122006357012145"><ele>146.0</ele><time>2026-04-23T10:34:22Z</time></trkpt><trkpt lat="48.45963670713418" lon="7.712242123295711"><ele>146.0</ele><time>2026-04-23T10:34:24Z</time></trkpt><trkpt lat="48.45973043818006" lon="7.712291043974784"><ele>146.4</ele><time>2026-04-23T10:34:26Z</time></trkpt><trkpt lat="48.45981963761889" lon="7.712356994465288"><ele>146.8</ele><time>2026-04-23T10:34:28Z</time></trkpt><trkpt lat="48.45991713789809" lon="7.712414107039282"><ele>147.20000000000002</ele><time>2026-04-23T10:34:30Z</time></trkpt><trkpt lat="48.46001508156536" lon="7.712450268814381"><ele>147.6</ele><time>2026-04-23T10:34:32Z</time></trkpt><trkpt lat="48.46012064228125" lon="7.712505311728098"><ele>148.0</ele><time>2026-04-23T10:34:34Z</time></trkpt><trkpt lat="48.46022452923544" lon="7.7125386837046435"><ele>148.0</ele><time>2026-04-23T10:34:36Z</time></trkpt><trkpt lat="48.460330474400855" lon="7.712567339936596"><ele>148.0</ele><time>2026-04-23T10:34:38Z</time></trkpt><trkpt lat="48.46043374820812" lon="7.712616131719736"><ele>148.0</ele><time>2026-04-23T10:34:40Z</time></trkpt><trkpt lat="48.46053793924974" lon="7.712646133126773"><ele>148.0</ele><time>2026-04-23T10:34:42Z</time></trkpt><trkpt lat="48.46064069423264" lon="7.712680144608554"><ele>148.0</ele><time>2026-04-23T10:34:44Z</time></trkpt><trkpt lat="48.46074451675907" lon="7.71271392363775"><ele>147.4</ele><time>2026-04-23T10:34:46Z</time></trkpt><trkpt lat="48.46084798000708" lon="7.712751238005575"><ele>146.8</ele><time>2026-04-23T10:34:48Z</time></trkpt><trkpt lat="48.460950178002385" lon="7.712787508762601"><ele>146.2</ele><time>2026-04-23T10:34:50Z</time></trkpt><trkpt lat="48.46105143440589" lon="7.712827367504974"><ele>145.6</ele><time>2026-04-23T10:34:52Z</time></trkpt><trkpt lat="48.461153294459976" lon="7.71286430515536"><ele>145.0</ele><time>2026-04-23T10:34:54Z</time></trkpt><trkpt lat="48.46125747404487" lon="7.712900626806615"><ele>144.6</ele><time>2026-04-23T10:34:56Z</time></trkpt><trkpt lat="48.46135835077333" lon="7.712937658044483"><ele>144.2</ele><time>2026-04-23T10:34:58Z</time></trkpt><trkpt lat="48.4614571675826" lon="7.712970550650332"><ele>143.8</ele><time>2026-04-23T10:35:00Z</time></trkpt><trkpt lat="48.46155901321709" lon="7.71300459299289"><ele>143.4</ele><time>2026-04-23T10:35:02Z</time></trkpt><trkpt lat="48.46166017088445" lon="7.713036998985049"><ele>143.0</ele><time>2026-04-23T10:35:04Z</time></trkpt><trkpt lat="48.461758064911784" lon="7.713069479892785"><ele>143.0</ele><time>2026-04-23T10:35:06Z</time></trkpt><trkpt lat="48.46186076591932" lon="7.713111508979176"><ele>143.0</ele><time>2026-04-23T10:35:08Z</time></trkpt><trkpt lat="48.461958686288504" lon="7.713149817079466"><ele>143.0</ele><time>2026-04-23T10:35:10Z</time></trkpt><trkpt lat="48.46205916209166" lon="7.713187541603652"><ele>143.0</ele><time>2026-04-23T10:35:12Z</time></trkpt><trkpt lat="48.46215759523793" lon="7.713223280625643"><ele>143.0</ele><time>2026-04-23T10:35:14Z</time></trkpt><trkpt lat="48.46225740055833" lon="7.713257240503152"><ele>143.0</ele><time>2026-04-23T10:35:16Z</time></trkpt><trkpt lat="48.46234956380304" lon="7.713292531891883"><ele>143.0</ele><time>2026-04-23T10:35:18Z</time></trkpt><trkpt lat="48.46243405703995" lon="7.713306213644015"><ele>143.0</ele><time>2026-04-23T10:35:20Z</time></trkpt><trkpt lat="48.46251623338276" lon="7.713342571510781"><ele>143.0</ele><time>2026-04-23T10:35:22Z</time></trkpt><trkpt lat="48.46259978861605" lon="7.713372186824121"><ele>143.0</ele><time>2026-04-23T10:35:24Z</time></trkpt><trkpt lat="48.46268578070299" lon="7.7134015762089225"><ele>143.0</ele><time>2026-04-23T10:35:26Z</time></trkpt><trkpt lat="48.46277353965192" lon="7.7134337233402945"><ele>143.0</ele><time>2026-04-23T10:35:28Z</time></trkpt><trkpt lat="48.46286231292906" lon="7.713475383921436"><ele>143.0</ele><time>2026-04-23T10:35:30Z</time></trkpt><trkpt lat="48.46295084035428" lon="7.713513151247677"><ele>143.0</ele><time>2026-04-23T10:35:32Z</time></trkpt><trkpt lat="48.46303819503876" lon="7.713554825966384"><ele>143.0</ele><time>2026-04-23T10:35:34Z</time></trkpt><trkpt lat="48.46313152807235" lon="7.713586958309353"><ele>143.0</ele><time>2026-04-23T10:35:36Z</time></trkpt><trkpt lat="48.46322880022897" lon="7.713632704278712"><ele>143.0</ele><time>2026-04-23T10:35:38Z</time></trkpt><trkpt lat="48.4633195996109" lon="7.7136737113312455"><ele>143.0</ele><time>2026-04-23T10:35:40Z</time></trkpt><trkpt lat="48.463418962113906" lon="7.7137033399503565"><ele>143.0</ele><time>2026-04-23T10:35:42Z</time></trkpt><trkpt lat="48.46351473249927" lon="7.7137382793002764"><ele>143.0</ele><time>2026-04-23T10:35:44Z</time></trkpt><trkpt lat="48.46361186085719" lon="7.713773834041524"><ele>143.0</ele><time>2026-04-23T10:35:46Z</time></trkpt><trkpt lat="48.4637119534883" lon="7.713803939169638"><ele>143.0</ele><time>2026-04-23T10:35:48Z</time></trkpt><trkpt lat="48.46380845760291" lon="7.713843723198914"><ele>143.0</ele><time>2026-04-23T10:35:50Z</time></trkpt><trkpt lat="48.463908670115835" lon="7.713888092468218"><ele>143.0</ele><time>2026-04-23T10:35:52Z</time></trkpt><trkpt lat="48.46400854521045" lon="7.71392534846687"><ele>143.0</ele><time>2026-04-23T10:35:54Z</time></trkpt><trkpt lat="48.46410873996792" lon="7.713961638540242"><ele>143.0</ele><time>2026-04-23T10:35:56Z</time></trkpt><trkpt lat="48.46420917615324" lon="7.71399526788674"><ele>143.0</ele><time>2026-04-23T10:35:58Z</time></trkpt><trkpt lat="48.46430739424511" lon="7.714036136104162"><ele>143.0</ele><time>2026-04-23T10:36:00Z</time></trkpt><trkpt lat="48.46440901019856" lon="7.714070144715951"><ele>143.0</ele><time>2026-04-23T10:36:02Z</time></trkpt><trkpt lat="48.464510418256474" lon="7.714102835831987"><ele>143.0</ele><time>2026-04-23T10:36:04Z</time></trkpt><trkpt lat="48.464614893935234" lon="7.714146714378675"><ele>143.0</ele><time>2026-04-23T10:36:06Z</time></trkpt><trkpt lat="48.464719076047864" lon="7.714184559688194"><ele>143.0</ele><time>2026-04-23T10:36:08Z</time></trkpt><trkpt lat="48.46482245023215" lon="7.714216469589925"><ele>143.0</ele><time>2026-04-23T10:36:10Z</time></trkpt><trkpt lat="48.46492882320994" lon="7.714260830714759"><ele>143.0</ele><time>2026-04-23T10:36:12Z</time></trkpt><trkpt lat="48.4650338699973" lon="7.714298972597322"><ele>143.0</ele><time>2026-04-23T10:36:14Z</time></trkpt><trkpt lat="48.46513818358061" lon="7.714331306388715"><ele>143.0</ele><time>2026-04-23T10:36:16Z</time></trkpt><trkpt lat="48.46524070288601" lon="7.714372328423987"><ele>143.0</ele><time>2026-04-23T10:36:18Z</time></trkpt><trkpt lat="48.4653459730575" lon="7.714410356254802"><ele>143.0</ele><time>2026-04-23T10:36:20Z</time></trkpt><trkpt lat="48.465448848349055" lon="7.714451860473889"><ele>143.0</ele><time>2026-04-23T10:36:22Z</time></trkpt><trkpt lat="48.46555732140663" lon="7.714485047492503"><ele>143.0</ele><time>2026-04-23T10:36:24Z</time></trkpt><trkpt lat="48.46566322123063" lon="7.7145297530722265"><ele>143.0</ele><time>2026-04-23T10:36:26Z</time></trkpt><trkpt lat="48.4657698757349" lon="7.714573852362299"><ele>143.0</ele><time>2026-04-23T10:36:28Z</time></trkpt><trkpt lat="48.46587753384067" lon="7.714610547190451"><ele>143.0</ele><time>2026-04-23T10:36:30Z</time></trkpt><trkpt lat="48.46598098337563" lon="7.714653148759176"><ele>143.0</ele><time>2026-04-23T10:36:32Z</time></trkpt><trkpt lat="48.4660888610097" lon="7.714699358111147"><ele>143.0</ele><time>2026-04-23T10:36:34Z</time></trkpt><trkpt lat="48.46619978027447" lon="7.714737140865138"><ele>143.0</ele><time>2026-04-23T10:36:36Z</time></trkpt><trkpt lat="48.4663065164872" lon="7.714784162967379"><ele>143.0</ele><time>2026-04-23T10:36:38Z</time></trkpt><trkpt lat="48.46641711535364" lon="7.714827812817648"><ele>143.0</ele><time>2026-04-23T10:36:40Z</time></trkpt><trkpt lat="48.46652562888847" lon="7.71487391912726"><ele>143.0</ele><time>2026-04-23T10:36:42Z</time></trkpt><trkpt lat="48.46663430335622" lon="7.714917398583055"><ele>143.0</ele><time>2026-04-23T10:36:44Z</time></trkpt><trkpt lat="48.466741780876944" lon="7.714957063909079"><ele>143.0</ele><time>2026-04-23T10:36:46Z</time></trkpt><trkpt lat="48.46684825401086" lon="7.715001611016049"><ele>143.0</ele><time>2026-04-23T10:36:48Z</time></trkpt><trkpt lat="48.46694930658726" lon="7.715038280015134"><ele>143.0</ele><time>2026-04-23T10:36:50Z</time></trkpt><trkpt lat="48.46705012332205" lon="7.715077061379055"><ele>143.0</ele><time>2026-04-23T10:36:52Z</time></trkpt><trkpt lat="48.467149166321846" lon="7.715118497874884"><ele>143.0</ele><time>2026-04-23T10:36:54Z</time></trkpt><trkpt lat="48.46724927693591" lon="7.715157909498625"><ele>143.20000000000002</ele><time>2026-04-23T10:36:56Z</time></trkpt><trkpt lat="48.467350153606866" lon="7.715194574824619"><ele>143.4</ele><time>2026-04-23T10:36:58Z</time></trkpt><trkpt lat="48.467455573237075" lon="7.715230996263521"><ele>143.60000000000002</ele><time>2026-04-23T10:37:00Z</time></trkpt><trkpt lat="48.467558081821885" lon="7.715277529407132"><ele>143.8</ele><time>2026-04-23T10:37:02Z</time></trkpt><trkpt lat="48.4676600889724" lon="7.71532297489332"><ele>144.0</ele><time>2026-04-23T10:37:04Z</time></trkpt><trkpt lat="48.467763414297075" lon="7.7153704719712515"><ele>144.0</ele><time>2026-04-23T10:37:06Z</time></trkpt><trkpt lat="48.467866596516885" lon="7.715414791723724"><ele>144.0</ele><time>2026-04-23T10:37:08Z</time></trkpt><trkpt lat="48.467971351385124" lon="7.715461395008609"><ele>144.0</ele><time>2026-04-23T10:37:10Z</time></trkpt><trkpt lat="48.46807676542925" lon="7.7154993341570615"><ele>144.0</ele><time>2026-04-23T10:37:12Z</time></trkpt><trkpt lat="48.468181628437435" lon="7.715542577976067"><ele>144.0</ele><time>2026-04-23T10:37:14Z</time></trkpt><trkpt lat="48.46828407749465" lon="7.715578777473656"><ele>144.0</ele><time>2026-04-23T10:37:16Z</time></trkpt><trkpt lat="48.46838619492047" lon="7.715627944946182"><ele>144.0</ele><time>2026-04-23T10:37:18Z</time></trkpt><trkpt lat="48.46849128099608" lon="7.71567039575933"><ele>144.0</ele><time>2026-04-23T10:37:20Z</time></trkpt><trkpt lat="48.46859443911279" lon="7.715708078334557"><ele>144.0</ele><time>2026-04-23T10:37:22Z</time></trkpt><trkpt lat="48.46869367236731" lon="7.715750924174846"><ele>144.0</ele><time>2026-04-23T10:37:24Z</time></trkpt><trkpt lat="48.468794415766894" lon="7.715801185633557"><ele>144.2</ele><time>2026-04-23T10:37:26Z</time></trkpt><trkpt lat="48.468898960024404" lon="7.715839893318171"><ele>144.4</ele><time>2026-04-23T10:37:28Z</time></trkpt><trkpt lat="48.46900261710115" lon="7.715869064169698"><ele>144.6</ele><time>2026-04-23T10:37:30Z</time></trkpt><trkpt lat="48.469099363100206" lon="7.7159236603045365"><ele>144.8</ele><time>2026-04-23T10:37:32Z</time></trkpt><trkpt lat="48.469200013265734" lon="7.715959446972444"><ele>145.0</ele><time>2026-04-23T10:37:34Z</time></trkpt><trkpt lat="48.46929900647492" lon="7.71600339850256"><ele>145.0</ele><time>2026-04-23T10:37:36Z</time></trkpt><trkpt lat="48.469396939041204" lon="7.71604796848384"><ele>145.0</ele><time>2026-04-23T10:37:38Z</time></trkpt><trkpt lat="48.46950027808286" lon="7.716082643810526"><ele>145.0</ele><time>2026-04-23T10:37:40Z</time></trkpt><trkpt lat="48.46960002925157" lon="7.716122508047968"><ele>145.0</ele><time>2026-04-23T10:37:42Z</time></trkpt><trkpt lat="48.469701162875324" lon="7.7161560787646355"><ele>145.0</ele><time>2026-04-23T10:37:44Z</time></trkpt><trkpt lat="48.469795075450335" lon="7.716201477948226"><ele>145.2</ele><time>2026-04-23T10:37:46Z</time></trkpt><trkpt lat="48.469892024363645" lon="7.716235042854057"><ele>145.4</ele><time>2026-04-23T10:37:48Z</time></trkpt><trkpt lat="48.46999317664903" lon="7.716284434158"><ele>145.6</ele><time>2026-04-23T10:37:50Z</time></trkpt><trkpt lat="48.47009275566967" lon="7.716319249895003"><ele>145.8</ele><time>2026-04-23T10:37:52Z</time></trkpt><trkpt lat="48.4701977855596" lon="7.716356251046806"><ele>146.0</ele><time>2026-04-23T10:37:54Z</time></trkpt><trkpt lat="48.470294522625" lon="7.7164101722655625"><ele>146.0</ele><time>2026-04-23T10:37:56Z</time></trkpt><trkpt lat="48.47039292490641" lon="7.716442658047051"><ele>146.0</ele><time>2026-04-23T10:37:58Z</time></trkpt><trkpt lat="48.47049073529931" lon="7.716483329540303"><ele>146.0</ele><time>2026-04-23T10:38:00Z</time></trkpt><trkpt lat="48.47058042917927" lon="7.7165223900493265"><ele>146.0</ele><time>2026-04-23T10:38:02Z</time></trkpt><trkpt lat="48.47066382741387" lon="7.716561142797395"><ele>146.0</ele><time>2026-04-23T10:38:04Z</time></trkpt><trkpt lat="48.47076125369415" lon="7.716594772339256"><ele>145.8</ele><time>2026-04-23T10:38:06Z</time></trkpt><trkpt lat="48.470849463311744" lon="7.716661516552291"><ele>145.6</ele><time>2026-04-23T10:38:08Z</time></trkpt><trkpt lat="48.470946834363886" lon="7.7167034372463155"><ele>145.4</ele><time>2026-04-23T10:38:10Z</time></trkpt><trkpt lat="48.471044258520116" lon="7.716710050387054"><ele>145.2</ele><time>2026-04-23T10:38:12Z</time></trkpt><trkpt lat="48.47113311728807" lon="7.7167208315678115"><ele>145.0</ele><time>2026-04-23T10:38:14Z</time></trkpt><trkpt lat="48.471220104958185" lon="7.716738630559381"><ele>144.75</ele><time>2026-04-23T10:38:16Z</time></trkpt><trkpt lat="48.47132515861217" lon="7.716791373630643"><ele>144.5</ele><time>2026-04-23T10:38:18Z</time></trkpt><trkpt lat="48.47144252144951" lon="7.716843206964521"><ele>144.25</ele><time>2026-04-23T10:38:20Z</time></trkpt><trkpt lat="48.47156266961217" lon="7.716895656480382"><ele>144.0</ele><time>2026-04-23T10:38:22Z</time></trkpt><trkpt lat="48.47168193130372" lon="7.716928493731935"><ele>143.8</ele><time>2026-04-23T10:38:24Z</time></trkpt><trkpt lat="48.47180235378244" lon="7.716964713741437"><ele>143.60000000000002</ele><time>2026-04-23T10:38:26Z</time></trkpt><trkpt lat="48.47191723510324" lon="7.717009302550281"><ele>143.4</ele><time>2026-04-23T10:38:28Z</time></trkpt><trkpt lat="48.471978834120975" lon="7.71703014442063"><ele>143.20000000000002</ele><time>2026-04-23T10:38:29Z</time></trkpt><trkpt lat="48.47209253359063" lon="7.717078232939733"><ele>143.0</ele><time>2026-04-23T10:38:31Z</time></trkpt><trkpt lat="48.47220938936212" lon="7.717119340277452"><ele>143.0</ele><time>2026-04-23T10:38:33Z</time></trkpt><trkpt lat="48.4722713890447" lon="7.717142307864679"><ele>143.0</ele><time>2026-04-23T10:38:34Z</time></trkpt><trkpt lat="48.472383444232236" lon="7.717193019951792"><ele>143.0</ele><time>2026-04-23T10:38:36Z</time></trkpt><trkpt lat="48.472448389916515" lon="7.717214234101666"><ele>143.0</ele><time>2026-04-23T10:38:37Z</time></trkpt><trkpt lat="48.47256224124079" lon="7.717258373016789"><ele>143.0</ele><time>2026-04-23T10:38:39Z</time></trkpt><trkpt lat="48.47267532357912" lon="7.7173071704226155"><ele>143.0</ele><time>2026-04-23T10:38:41Z</time></trkpt><trkpt lat="48.472791360511366" lon="7.717354460833305"><ele>143.0</ele><time>2026-04-23T10:38:43Z</time></trkpt><trkpt lat="48.472908972216906" lon="7.71739241993707"><ele>143.0</ele><time>2026-04-23T10:38:45Z</time></trkpt><trkpt lat="48.47302286331796" lon="7.717439957019593"><ele>143.0</ele><time>2026-04-23T10:38:47Z</time></trkpt><trkpt lat="48.47313650375965" lon="7.717482933846382"><ele>143.25</ele><time>2026-04-23T10:38:49Z</time></trkpt><trkpt lat="48.473249622176226" lon="7.717534064494428"><ele>143.5</ele><time>2026-04-23T10:38:51Z</time></trkpt><trkpt lat="48.4733660603956" lon="7.7175753120474315"><ele>143.75</ele><time>2026-04-23T10:38:53Z</time></trkpt><trkpt lat="48.47347771787612" lon="7.7176245904191525"><ele>144.0</ele><time>2026-04-23T10:38:55Z</time></trkpt><trkpt lat="48.47359364772747" lon="7.717670185496272"><ele>144.0</ele><time>2026-04-23T10:38:57Z</time></trkpt><trkpt lat="48.47370747513794" lon="7.717708786600695"><ele>144.0</ele><time>2026-04-23T10:38:59Z</time></trkpt><trkpt lat="48.473817346542894" lon="7.717756400807575"><ele>144.0</ele><time>2026-04-23T10:39:01Z</time></trkpt><trkpt lat="48.473928116117115" lon="7.717794117092478"><ele>144.0</ele><time>2026-04-23T10:39:03Z</time></trkpt><trkpt lat="48.47403679458536" lon="7.717854413528806"><ele>144.25</ele><time>2026-04-23T10:39:05Z</time></trkpt><trkpt lat="48.47414942663422" lon="7.717896897620873"><ele>144.5</ele><time>2026-04-23T10:39:07Z</time></trkpt><trkpt lat="48.474259244946104" lon="7.71793425613001"><ele>144.75</ele><time>2026-04-23T10:39:09Z</time></trkpt><trkpt lat="48.47437336691868" lon="7.717969375484605"><ele>145.0</ele><time>2026-04-23T10:39:11Z</time></trkpt><trkpt lat="48.47449188335451" lon="7.718007771605948"><ele>145.0</ele><time>2026-04-23T10:39:13Z</time></trkpt><trkpt lat="48.47460683754925" lon="7.718076768615385"><ele>145.0</ele><time>2026-04-23T10:39:15Z</time></trkpt><trkpt lat="48.474725968014646" lon="7.718129107597844"><ele>145.0</ele><time>2026-04-23T10:39:17Z</time></trkpt><trkpt lat="48.474840058535946" lon="7.718172103129574"><ele>145.0</ele><time>2026-04-23T10:39:19Z</time></trkpt><trkpt lat="48.474956888757234" lon="7.718215304439095"><ele>145.0</ele><time>2026-04-23T10:39:21Z</time></trkpt><trkpt lat="48.475074064106934" lon="7.718262356280048"><ele>145.0</ele><time>2026-04-23T10:39:23Z</time></trkpt><trkpt lat="48.475188753892716" lon="7.718322921626976"><ele>145.0</ele><time>2026-04-23T10:39:25Z</time></trkpt><trkpt lat="48.47530939914275" lon="7.718368754880849"><ele>145.0</ele><time>2026-04-23T10:39:27Z</time></trkpt><trkpt lat="48.47542928344194" lon="7.718402694879444"><ele>145.0</ele><time>2026-04-23T10:39:29Z</time></trkpt><trkpt lat="48.475544449380706" lon="7.7184505642063765"><ele>145.0</ele><time>2026-04-23T10:39:31Z</time></trkpt><trkpt lat="48.47565987647026" lon="7.71850122125122"><ele>145.0</ele><time>2026-04-23T10:39:33Z</time></trkpt><trkpt lat="48.47577051973057" lon="7.718551498982348"><ele>145.0</ele><time>2026-04-23T10:39:35Z</time></trkpt><trkpt lat="48.47588438645667" lon="7.718601389270138"><ele>144.8</ele><time>2026-04-23T10:39:37Z</time></trkpt><trkpt lat="48.47599978536982" lon="7.7186498237531955"><ele>144.6</ele><time>2026-04-23T10:39:39Z</time></trkpt><trkpt lat="48.47611138090305" lon="7.718701127334075"><ele>144.4</ele><time>2026-04-23T10:39:41Z</time></trkpt><trkpt lat="48.476220660340836" lon="7.718751341872972"><ele>144.2</ele><time>2026-04-23T10:39:43Z</time></trkpt><trkpt lat="48.47628256313176" lon="7.7187696725984"><ele>144.0</ele><time>2026-04-23T10:39:44Z</time></trkpt><trkpt lat="48.47639767471498" lon="7.718812542378645"><ele>144.5</ele><time>2026-04-23T10:39:46Z</time></trkpt><trkpt lat="48.47651477679221" lon="7.7188669495823365"><ele>145.0</ele><time>2026-04-23T10:39:48Z</time></trkpt><trkpt lat="48.476627759467014" lon="7.71890113205986"><ele>145.5</ele><time>2026-04-23T10:39:50Z</time></trkpt><trkpt lat="48.476737980946" lon="7.718958752571089"><ele>146.0</ele><time>2026-04-23T10:39:52Z</time></trkpt><trkpt lat="48.476852638431524" lon="7.719002675851054"><ele>146.0</ele><time>2026-04-23T10:39:54Z</time></trkpt><trkpt lat="48.47696830937999" lon="7.719040007403731"><ele>146.0</ele><time>2026-04-23T10:39:56Z</time></trkpt><trkpt lat="48.4770300505141" lon="7.719062842831142"><ele>146.0</ele><time>2026-04-23T10:39:57Z</time></trkpt><trkpt lat="48.477143285495295" lon="7.7191089793391034"><ele>146.0</ele><time>2026-04-23T10:39:59Z</time></trkpt><trkpt lat="48.47725843159477" lon="7.719141257506092"><ele>146.0</ele><time>2026-04-23T10:40:01Z</time></trkpt><trkpt lat="48.47737080758779" lon="7.719179339596313"><ele>146.0</ele><time>2026-04-23T10:40:03Z</time></trkpt><trkpt lat="48.47748415595215" lon="7.719218338919789"><ele>146.0</ele><time>2026-04-23T10:40:05Z</time></trkpt><trkpt lat="48.47758933600724" lon="7.7192624019852225"><ele>146.0</ele><time>2026-04-23T10:40:07Z</time></trkpt><trkpt lat="48.47770260625212" lon="7.719307904129826"><ele>146.0</ele><time>2026-04-23T10:40:09Z</time></trkpt><trkpt lat="48.4778182509256" lon="7.71933959605847"><ele>146.0</ele><time>2026-04-23T10:40:11Z</time></trkpt><trkpt lat="48.47792913543791" lon="7.719392898036803"><ele>146.0</ele><time>2026-04-23T10:40:13Z</time></trkpt><trkpt lat="48.478040176991456" lon="7.7194446550713165"><ele>146.0</ele><time>2026-04-23T10:40:15Z</time></trkpt><trkpt lat="48.478145689135964" lon="7.719489050239749"><ele>146.0</ele><time>2026-04-23T10:40:17Z</time></trkpt><trkpt lat="48.47825548053038" lon="7.7195414683516175"><ele>145.75</ele><time>2026-04-23T10:40:19Z</time></trkpt><trkpt lat="48.47836706364138" lon="7.7195834459885395"><ele>145.5</ele><time>2026-04-23T10:40:21Z</time></trkpt><trkpt lat="48.478479788756836" lon="7.719635865524065"><ele>145.25</ele><time>2026-04-23T10:40:23Z</time></trkpt><trkpt lat="48.47859287371258" lon="7.719669048174201"><ele>145.0</ele><time>2026-04-23T10:40:25Z</time></trkpt><trkpt lat="48.478704091122566" lon="7.7197134940161165"><ele>144.75</ele><time>2026-04-23T10:40:27Z</time></trkpt><trkpt lat="48.47881352199883" lon="7.719764659899342"><ele>144.5</ele><time>2026-04-23T10:40:29Z</time></trkpt><trkpt lat="48.478920122875245" lon="7.719819357156627"><ele>144.25</ele><time>2026-04-23T10:40:31Z</time></trkpt><trkpt lat="48.47903440824089" lon="7.719870736639626"><ele>144.0</ele><time>2026-04-23T10:40:33Z</time></trkpt><trkpt lat="48.479147804470635" lon="7.719917334258196"><ele>144.0</ele><time>2026-04-23T10:40:35Z</time></trkpt><trkpt lat="48.47926213979363" lon="7.7199636034383765"><ele>144.0</ele><time>2026-04-23T10:40:37Z</time></trkpt><trkpt lat="48.479375911838666" lon="7.719995563552776"><ele>144.0</ele><time>2026-04-23T10:40:39Z</time></trkpt><trkpt lat="48.47949495315805" lon="7.720012808739379"><ele>144.0</ele><time>2026-04-23T10:40:41Z</time></trkpt><trkpt lat="48.47960862972807" lon="7.720058641303439"><ele>144.0</ele><time>2026-04-23T10:40:43Z</time></trkpt><trkpt lat="48.479720387045674" lon="7.72010396887589"><ele>144.0</ele><time>2026-04-23T10:40:45Z</time></trkpt><trkpt lat="48.47983232148115" lon="7.720145604104766"><ele>144.0</ele><time>2026-04-23T10:40:47Z</time></trkpt><trkpt lat="48.479944577882556" lon="7.7201822018417765"><ele>144.0</ele><time>2026-04-23T10:40:49Z</time></trkpt><trkpt lat="48.480057144480824" lon="7.720206526950457"><ele>143.75</ele><time>2026-04-23T10:40:51Z</time></trkpt><trkpt lat="48.4801674965602" lon="7.720246350891358"><ele>143.5</ele><time>2026-04-23T10:40:53Z</time></trkpt><trkpt lat="48.480279985862516" lon="7.720278735077149"><ele>143.25</ele><time>2026-04-23T10:40:55Z</time></trkpt><trkpt lat="48.480394034456204" lon="7.720323995887291"><ele>143.0</ele><time>2026-04-23T10:40:57Z</time></trkpt><trkpt lat="48.4805038305588" lon="7.720363134926112"><ele>143.0</ele><time>2026-04-23T10:40:59Z</time></trkpt><trkpt lat="48.48061442430692" lon="7.7204026621905095"><ele>143.0</ele><time>2026-04-23T10:41:01Z</time></trkpt><trkpt lat="48.48073167442955" lon="7.720445528675303"><ele>143.0</ele><time>2026-04-23T10:41:03Z</time></trkpt><trkpt lat="48.480841604227834" lon="7.720483302428307"><ele>143.0</ele><time>2026-04-23T10:41:05Z</time></trkpt><trkpt lat="48.48095248568039" lon="7.720522341729668"><ele>143.0</ele><time>2026-04-23T10:41:07Z</time></trkpt><trkpt lat="48.481062285670774" lon="7.7205658308052065"><ele>143.0</ele><time>2026-04-23T10:41:09Z</time></trkpt><trkpt lat="48.4811737053299" lon="7.720599650414715"><ele>143.0</ele><time>2026-04-23T10:41:11Z</time></trkpt><trkpt lat="48.48128004475009" lon="7.720654815010886"><ele>143.0</ele><time>2026-04-23T10:41:13Z</time></trkpt><trkpt lat="48.481395288496834" lon="7.720696968809727"><ele>143.0</ele><time>2026-04-23T10:41:15Z</time></trkpt><trkpt lat="48.48150697112753" lon="7.720735137922616"><ele>143.0</ele><time>2026-04-23T10:41:17Z</time></trkpt><trkpt lat="48.48161773923135" lon="7.720784876359941"><ele>143.0</ele><time>2026-04-23T10:41:19Z</time></trkpt><trkpt lat="48.4817232132812" lon="7.720831411433007"><ele>143.0</ele><time>2026-04-23T10:41:21Z</time></trkpt><trkpt lat="48.48183360914409" lon="7.72087282881689"><ele>143.0</ele><time>2026-04-23T10:41:23Z</time></trkpt><trkpt lat="48.481941195168666" lon="7.720927498302384"><ele>143.0</ele><time>2026-04-23T10:41:25Z</time></trkpt><trkpt lat="48.48204905352071" lon="7.720979630872923"><ele>143.0</ele><time>2026-04-23T10:41:27Z</time></trkpt><trkpt lat="48.48215554681841" lon="7.721046195041496"><ele>143.0</ele><time>2026-04-23T10:41:29Z</time></trkpt><trkpt lat="48.48226241868623" lon="7.721081523557855"><ele>143.0</ele><time>2026-04-23T10:41:31Z</time></trkpt><trkpt lat="48.4823777268981" lon="7.721136016576389"><ele>143.0</ele><time>2026-04-23T10:41:33Z</time></trkpt><trkpt lat="48.48244369207623" lon="7.721168308556359"><ele>143.0</ele><time>2026-04-23T10:41:34Z</time></trkpt><trkpt lat="48.48250677600937" lon="7.721187571464523"><ele>143.0</ele><time>2026-04-23T10:41:35Z</time></trkpt><trkpt lat="48.482614936765685" lon="7.72119925192008"><ele>143.0</ele><time>2026-04-23T10:41:37Z</time></trkpt><trkpt lat="48.48268134942403" lon="7.7212116907314385"><ele>143.0</ele><time>2026-04-23T10:41:38Z</time></trkpt><trkpt lat="48.482799476380244" lon="7.7212238167853595"><ele>143.0</ele><time>2026-04-23T10:41:40Z</time></trkpt><trkpt lat="48.48291524862523" lon="7.7212656299525815"><ele>143.0</ele><time>2026-04-23T10:41:42Z</time></trkpt><trkpt lat="48.483027355564104" lon="7.721309385919836"><ele>143.0</ele><time>2026-04-23T10:41:44Z</time></trkpt><trkpt lat="48.483090641999524" lon="7.7213290282105"><ele>143.0</ele><time>2026-04-23T10:41:45Z</time></trkpt><trkpt lat="48.48315363435907" lon="7.721334093590997"><ele>143.0</ele><time>2026-04-23T10:41:46Z</time></trkpt><trkpt lat="48.48326764799521" lon="7.721314061888019"><ele>143.25</ele><time>2026-04-23T10:41:48Z</time></trkpt><trkpt lat="48.48338035535582" lon="7.721357054264325"><ele>143.5</ele><time>2026-04-23T10:41:50Z</time></trkpt><trkpt lat="48.48348571084008" lon="7.721421432854036"><ele>143.75</ele><time>2026-04-23T10:41:52Z</time></trkpt><trkpt lat="48.48359280881782" lon="7.721460937892027"><ele>144.0</ele><time>2026-04-23T10:41:54Z</time></trkpt><trkpt lat="48.48369954755569" lon="7.721508048931791"><ele>144.0</ele><time>2026-04-23T10:41:56Z</time></trkpt><trkpt lat="48.48381547764947" lon="7.721556053035626"><ele>144.0</ele><time>2026-04-23T10:41:58Z</time></trkpt><trkpt lat="48.48392200081912" lon="7.721599949992828"><ele>144.0</ele><time>2026-04-23T10:42:00Z</time></trkpt><trkpt lat="48.484028474908456" lon="7.721633305663506"><ele>144.0</ele><time>2026-04-23T10:42:02Z</time></trkpt><trkpt lat="48.4841356394181" lon="7.721675490800861"><ele>144.0</ele><time>2026-04-23T10:42:04Z</time></trkpt><trkpt lat="48.4842260575168" lon="7.721724343651396"><ele>144.0</ele><time>2026-04-23T10:42:06Z</time></trkpt><trkpt lat="48.48429352983982" lon="7.721737290319099"><ele>144.0</ele><time>2026-04-23T10:42:07Z</time></trkpt><trkpt lat="48.48439323753918" lon="7.7218155340137855"><ele>144.0</ele><time>2026-04-23T10:42:09Z</time></trkpt><trkpt lat="48.48445724339017" lon="7.721818200220703"><ele>144.0</ele><time>2026-04-23T10:42:10Z</time></trkpt><trkpt lat="48.48451989559875" lon="7.721854258345278"><ele>144.0</ele><time>2026-04-23T10:42:11Z</time></trkpt><trkpt lat="48.48460427044319" lon="7.721940473729843"><ele>144.4</ele><time>2026-04-23T10:42:13Z</time></trkpt><trkpt lat="48.484667071758096" lon="7.7219567236073505"><ele>144.8</ele><time>2026-04-23T10:42:14Z</time></trkpt><trkpt lat="48.48478673713345" lon="7.721997622180844"><ele>145.2</ele><time>2026-04-23T10:42:16Z</time></trkpt><trkpt lat="48.484850073683596" lon="7.7220027426064135"><ele>145.6</ele><time>2026-04-23T10:42:17Z</time></trkpt><trkpt lat="48.48495225511606" lon="7.722048062670057"><ele>146.0</ele><time>2026-04-23T10:42:19Z</time></trkpt><trkpt lat="48.485078146877925" lon="7.722081876101258"><ele>146.0</ele><time>2026-04-23T10:42:21Z</time></trkpt><trkpt lat="48.48513990530828" lon="7.722116440396384"><ele>146.0</ele><time>2026-04-23T10:42:22Z</time></trkpt><trkpt lat="48.48520460395113" lon="7.7221273043711784"><ele>146.0</ele><time>2026-04-23T10:42:23Z</time></trkpt><trkpt lat="48.485315480687255" lon="7.722164176853365"><ele>146.0</ele><time>2026-04-23T10:42:25Z</time></trkpt><trkpt lat="48.48538191260404" lon="7.72218526602645"><ele>146.0</ele><time>2026-04-23T10:42:26Z</time></trkpt><trkpt lat="48.485501392035935" lon="7.722226768997026"><ele>146.0</ele><time>2026-04-23T10:42:28Z</time></trkpt><trkpt lat="48.485624787772615" lon="7.722266071788804"><ele>146.0</ele><time>2026-04-23T10:42:30Z</time></trkpt><trkpt lat="48.48573733041995" lon="7.722309819495166"><ele>146.0</ele><time>2026-04-23T10:42:32Z</time></trkpt><trkpt lat="48.485847412802634" lon="7.7223523034991475"><ele>146.0</ele><time>2026-04-23T10:42:34Z</time></trkpt><trkpt lat="48.485964545246226" lon="7.722386980524397"><ele>146.0</ele><time>2026-04-23T10:42:36Z</time></trkpt><trkpt lat="48.48607259750494" lon="7.722424900528178"><ele>146.0</ele><time>2026-04-23T10:42:38Z</time></trkpt><trkpt lat="48.48617887790152" lon="7.722468487293483"><ele>146.0</ele><time>2026-04-23T10:42:40Z</time></trkpt><trkpt lat="48.48629493047523" lon="7.722506351944248"><ele>146.0</ele><time>2026-04-23T10:42:42Z</time></trkpt><trkpt lat="48.486358974483984" lon="7.7225213057615"><ele>146.0</ele><time>2026-04-23T10:42:43Z</time></trkpt><trkpt lat="48.4864837346801" lon="7.722540936140936"><ele>146.0</ele><time>2026-04-23T10:42:45Z</time></trkpt><trkpt lat="48.486601390073204" lon="7.722591205373264"><ele>146.0</ele><time>2026-04-23T10:42:47Z</time></trkpt><trkpt lat="48.48668971515008" lon="7.722622930365928"><ele>146.0</ele><time>2026-04-23T10:42:49Z</time></trkpt><trkpt lat="48.48677686412265" lon="7.722726162722061"><ele>146.0</ele><time>2026-04-23T10:42:51Z</time></trkpt><trkpt lat="48.4868627022637" lon="7.722848501809516"><ele>146.0</ele><time>2026-04-23T10:42:53Z</time></trkpt><trkpt lat="48.48697089417087" lon="7.722902123118751"><ele>146.0</ele><time>2026-04-23T10:42:55Z</time></trkpt><trkpt lat="48.48708604679798" lon="7.722952186059173"><ele>146.0</ele><time>2026-04-23T10:42:57Z</time></trkpt><trkpt lat="48.4871926753263" lon="7.723010355895743"><ele>146.0</ele><time>2026-04-23T10:42:59Z</time></trkpt><trkpt lat="48.48729903026698" lon="7.723052193760854"><ele>146.0</ele><time>2026-04-23T10:43:01Z</time></trkpt><trkpt lat="48.48740813329871" lon="7.723108718938079"><ele>146.0</ele><time>2026-04-23T10:43:03Z</time></trkpt><trkpt lat="48.48751619065627" lon="7.723143696865266"><ele>146.0</ele><time>2026-04-23T10:43:05Z</time></trkpt><trkpt lat="48.487582986317" lon="7.723170239096471"><ele>146.0</ele><time>2026-04-23T10:43:06Z</time></trkpt><trkpt lat="48.48764800251578" lon="7.723199203674042"><ele>146.0</ele><time>2026-04-23T10:43:07Z</time></trkpt><trkpt lat="48.4877125722447" lon="7.723218721147746"><ele>146.0</ele><time>2026-04-23T10:43:08Z</time></trkpt><trkpt lat="48.487818658831515" lon="7.72325051489663"><ele>146.0</ele><time>2026-04-23T10:43:10Z</time></trkpt><trkpt lat="48.48791744161051" lon="7.723297900415488"><ele>146.0</ele><time>2026-04-23T10:43:12Z</time></trkpt><trkpt lat="48.48802214263183" lon="7.723344025557623"><ele>145.8</ele><time>2026-04-23T10:43:14Z</time></trkpt><trkpt lat="48.488131720230314" lon="7.7233894934786855"><ele>145.6</ele><time>2026-04-23T10:43:16Z</time></trkpt><trkpt lat="48.48822969767442" lon="7.723429128641785"><ele>145.4</ele><time>2026-04-23T10:43:18Z</time></trkpt><trkpt lat="48.48834237580128" lon="7.723467464092084"><ele>145.2</ele><time>2026-04-23T10:43:20Z</time></trkpt><trkpt lat="48.4884486823866" lon="7.72350464826737"><ele>145.0</ele><time>2026-04-23T10:43:22Z</time></trkpt><trkpt lat="48.48854856029312" lon="7.723547162256248"><ele>144.8</ele><time>2026-04-23T10:43:24Z</time></trkpt><trkpt lat="48.488644195959864" lon="7.723596041699683"><ele>144.6</ele><time>2026-04-23T10:43:26Z</time></trkpt><trkpt lat="48.48873904032166" lon="7.7235749162016125"><ele>144.4</ele><time>2026-04-23T10:43:28Z</time></trkpt><trkpt lat="48.48884399538415" lon="7.7235244734807775"><ele>144.2</ele><time>2026-04-23T10:43:30Z</time></trkpt><trkpt lat="48.488938329465164" lon="7.723578963101982"><ele>144.0</ele><time>2026-04-23T10:43:32Z</time></trkpt><trkpt lat="48.48902552184067" lon="7.723612615627477"><ele>144.0</ele><time>2026-04-23T10:43:34Z</time></trkpt><trkpt lat="48.48909917487481" lon="7.72364032357938"><ele>144.0</ele><time>2026-04-23T10:43:36Z</time></trkpt><trkpt lat="48.48917415147553" lon="7.723679887861124"><ele>144.0</ele><time>2026-04-23T10:43:38Z</time></trkpt><trkpt lat="48.489266539715985" lon="7.723713730354642"><ele>144.0</ele><time>2026-04-23T10:43:40Z</time></trkpt><trkpt lat="48.48936048249031" lon="7.723751564473564"><ele>144.0</ele><time>2026-04-23T10:43:42Z</time></trkpt><trkpt lat="48.489464879691134" lon="7.723796978105401"><ele>144.0</ele><time>2026-04-23T10:43:44Z</time></trkpt><trkpt lat="48.48955956369274" lon="7.723852711990429"><ele>144.0</ele><time>2026-04-23T10:43:46Z</time></trkpt><trkpt lat="48.48965191421707" lon="7.723896558849929"><ele>144.0</ele><time>2026-04-23T10:43:48Z</time></trkpt><trkpt lat="48.48973811675414" lon="7.723920062458366"><ele>144.0</ele><time>2026-04-23T10:43:50Z</time></trkpt><trkpt lat="48.48983502630864" lon="7.723965897012218"><ele>144.0</ele><time>2026-04-23T10:43:52Z</time></trkpt><trkpt lat="48.48993035580054" lon="7.724001399102999"><ele>144.83333333333334</ele><time>2026-04-23T10:43:54Z</time></trkpt><trkpt lat="48.49000965156123" lon="7.724056825643901"><ele>145.66666666666666</ele><time>2026-04-23T10:43:56Z</time></trkpt><trkpt lat="48.49007472809158" lon="7.724126646263666"><ele>146.5</ele><time>2026-04-23T10:43:58Z</time></trkpt><trkpt lat="48.49014260290594" lon="7.724163751200034"><ele>147.33333333333331</ele><time>2026-04-23T10:44:00Z</time></trkpt><trkpt lat="48.49021749236737" lon="7.724199402776409"><ele>148.16666666666666</ele><time>2026-04-23T10:44:02Z</time></trkpt><trkpt lat="48.49030115910831" lon="7.72423336454855"><ele>149.0</ele><time>2026-04-23T10:44:04Z</time></trkpt><trkpt lat="48.49037863265974" lon="7.7242769305455665"><ele>149.2</ele><time>2026-04-23T10:44:06Z</time></trkpt><trkpt lat="48.490479289969244" lon="7.7242972447434965"><ele>149.4</ele><time>2026-04-23T10:44:08Z</time></trkpt><trkpt lat="48.49055666910839" lon="7.724329355845379"><ele>149.6</ele><time>2026-04-23T10:44:10Z</time></trkpt><trkpt lat="48.490635716893124" lon="7.724377888782595"><ele>149.8</ele><time>2026-04-23T10:44:12Z</time></trkpt><trkpt lat="48.49072252463132" lon="7.72442688970682"><ele>150.0</ele><time>2026-04-23T10:44:14Z</time></trkpt><trkpt lat="48.49081439374293" lon="7.724471273968039"><ele>149.0</ele><time>2026-04-23T10:44:16Z</time></trkpt><trkpt lat="48.49092309723435" lon="7.724496344728389"><ele>148.0</ele><time>2026-04-23T10:44:18Z</time></trkpt><trkpt lat="48.491069665839554" lon="7.7245252259105905"><ele>147.0</ele><time>2026-04-23T10:44:21Z</time></trkpt><trkpt lat="48.49117508187205" lon="7.724571039123455"><ele>146.0</ele><time>2026-04-23T10:44:23Z</time></trkpt><trkpt lat="48.49126812598106" lon="7.724581653879466"><ele>146.0</ele><time>2026-04-23T10:44:25Z</time></trkpt><trkpt lat="48.491370694462816" lon="7.724631845114044"><ele>146.0</ele><time>2026-04-23T10:44:27Z</time></trkpt><trkpt lat="48.49147302312658" lon="7.7246480470675305"><ele>146.0</ele><time>2026-04-23T10:44:29Z</time></trkpt><trkpt lat="48.49155907372104" lon="7.724689818985502"><ele>146.0</ele><time>2026-04-23T10:44:31Z</time></trkpt><trkpt lat="48.491665125417086" lon="7.724719403011613"><ele>146.0</ele><time>2026-04-23T10:44:33Z</time></trkpt><trkpt lat="48.49175720724465" lon="7.724769993756867"><ele>146.0</ele><time>2026-04-23T10:44:35Z</time></trkpt><trkpt lat="48.49185235366988" lon="7.724802337952305"><ele>146.0</ele><time>2026-04-23T10:44:37Z</time></trkpt><trkpt lat="48.491957043561435" lon="7.724829172812887"><ele>146.0</ele><time>2026-04-23T10:44:39Z</time></trkpt><trkpt lat="48.49206992350842" lon="7.724856998659745"><ele>146.0</ele><time>2026-04-23T10:44:41Z</time></trkpt><trkpt lat="48.492173402692515" lon="7.724874684469228"><ele>146.0</ele><time>2026-04-23T10:44:43Z</time></trkpt><trkpt lat="48.4922582854866" lon="7.724913260451521"><ele>146.6</ele><time>2026-04-23T10:44:45Z</time></trkpt><trkpt lat="48.492343765306316" lon="7.724977382099381"><ele>147.2</ele><time>2026-04-23T10:44:47Z</time></trkpt><trkpt lat="48.4924288994051" lon="7.7249997825984975"><ele>147.8</ele><time>2026-04-23T10:44:49Z</time></trkpt><trkpt lat="48.49252638000869" lon="7.725015906241851"><ele>148.4</ele><time>2026-04-23T10:44:51Z</time></trkpt><trkpt lat="48.49261476416815" lon="7.725061096057424"><ele>149.0</ele><time>2026-04-23T10:44:53Z</time></trkpt><trkpt lat="48.492855579006736" lon="7.725064143064183"><ele>148.75</ele><time>2026-04-23T10:44:58Z</time></trkpt><trkpt lat="48.49295017632058" lon="7.725077555918084"><ele>148.5</ele><time>2026-04-23T10:45:00Z</time></trkpt><trkpt lat="48.49305601650333" lon="7.725100246791964"><ele>148.25</ele><time>2026-04-23T10:45:02Z</time></trkpt><trkpt lat="48.49316154919564" lon="7.725118347311917"><ele>148.0</ele><time>2026-04-23T10:45:04Z</time></trkpt><trkpt lat="48.493306295018904" lon="7.725136360653289"><ele>148.0</ele><time>2026-04-23T10:45:07Z</time></trkpt><trkpt lat="48.49343691538086" lon="7.72514171738853"><ele>148.0</ele><time>2026-04-23T10:45:10Z</time></trkpt><trkpt lat="48.49353465222078" lon="7.725160984445043"><ele>148.0</ele><time>2026-04-23T10:45:12Z</time></trkpt><trkpt lat="48.49362869638404" lon="7.725152357116331"><ele>148.0</ele><time>2026-04-23T10:45:14Z</time></trkpt><trkpt lat="48.49371873373346" lon="7.725192745731101"><ele>148.0</ele><time>2026-04-23T10:45:16Z</time></trkpt><trkpt lat="48.49386416181655" lon="7.725196896145635"><ele>147.4</ele><time>2026-04-23T10:45:19Z</time></trkpt><trkpt lat="48.493959097146636" lon="7.725206242356259"><ele>146.8</ele><time>2026-04-23T10:45:21Z</time></trkpt><trkpt lat="48.49405696742604" lon="7.72521731466975"><ele>146.2</ele><time>2026-04-23T10:45:23Z</time></trkpt><trkpt lat="48.494168316581174" lon="7.725225865234914"><ele>145.6</ele><time>2026-04-23T10:45:25Z</time></trkpt><trkpt lat="48.49425826070273" lon="7.7252353917009735"><ele>145.0</ele><time>2026-04-23T10:45:27Z</time></trkpt><trkpt lat="48.49433802083267" lon="7.7252675146564505"><ele>144.8</ele><time>2026-04-23T10:45:29Z</time></trkpt><trkpt lat="48.49448932211329" lon="7.72524655015568"><ele>144.6</ele><time>2026-04-23T10:45:32Z</time></trkpt><trkpt lat="48.49458771788116" lon="7.725265702218979"><ele>144.4</ele><time>2026-04-23T10:45:34Z</time></trkpt><trkpt lat="48.49468467869875" lon="7.72528960165861"><ele>144.2</ele><time>2026-04-23T10:45:36Z</time></trkpt><trkpt lat="48.494765631743185" lon="7.725301815359109"><ele>144.0</ele><time>2026-04-23T10:45:38Z</time></trkpt><trkpt lat="48.494853027711315" lon="7.725326783930706"><ele>144.0</ele><time>2026-04-23T10:45:40Z</time></trkpt><trkpt lat="48.49493430299499" lon="7.725340504381361"><ele>144.0</ele><time>2026-04-23T10:45:42Z</time></trkpt><trkpt lat="48.49501914084116" lon="7.725354941044134"><ele>144.0</ele><time>2026-04-23T10:45:44Z</time></trkpt><trkpt lat="48.49509507588582" lon="7.725364399742395"><ele>144.0</ele><time>2026-04-23T10:45:46Z</time></trkpt><trkpt lat="48.49517356740508" lon="7.725386826931975"><ele>144.0</ele><time>2026-04-23T10:45:48Z</time></trkpt><trkpt lat="48.49526076755258" lon="7.725393684250131"><ele>144.0</ele><time>2026-04-23T10:45:50Z</time></trkpt><trkpt lat="48.49534311190021" lon="7.725406533272172"><ele>143.66666666666666</ele><time>2026-04-23T10:45:52Z</time></trkpt><trkpt lat="48.4954309196955" lon="7.725430487917957"><ele>143.33333333333334</ele><time>2026-04-23T10:45:54Z</time></trkpt><trkpt lat="48.49551163248592" lon="7.7254658552452415"><ele>143.0</ele><time>2026-04-23T10:45:56Z</time></trkpt><trkpt lat="48.49559299242804" lon="7.72546524444232"><ele>142.66666666666669</ele><time>2026-04-23T10:45:58Z</time></trkpt><trkpt lat="48.49568246665141" lon="7.725495458565727"><ele>142.33333333333334</ele><time>2026-04-23T10:46:00Z</time></trkpt><trkpt lat="48.495759123107305" lon="7.72551702319484"><ele>142.0</ele><time>2026-04-23T10:46:02Z</time></trkpt><trkpt lat="48.49584480483151" lon="7.725537123698459"><ele>142.0</ele><time>2026-04-23T10:46:04Z</time></trkpt><trkpt lat="48.49591875186415" lon="7.725569330476305"><ele>142.0</ele><time>2026-04-23T10:46:06Z</time></trkpt><trkpt lat="48.49610124012197" lon="7.7255839644887025"><ele>142.0</ele><time>2026-04-23T10:46:10Z</time></trkpt><trkpt lat="48.49619112415186" lon="7.725576168454243"><ele>142.0</ele><time>2026-04-23T10:46:12Z</time></trkpt><trkpt lat="48.496427247922746" lon="7.72556947311206"><ele>142.0</ele><time>2026-04-23T10:46:17Z</time></trkpt><trkpt lat="48.496570889986124" lon="7.725556773611133"><ele>142.0</ele><time>2026-04-23T10:46:20Z</time></trkpt><trkpt lat="48.49669831245424" lon="7.725559446031251"><ele>142.0</ele><time>2026-04-23T10:46:23Z</time></trkpt><trkpt lat="48.49676458301776" lon="7.725562155090748"><ele>142.0</ele><time>2026-04-23T10:46:24Z</time></trkpt><trkpt lat="48.49685992185199" lon="7.725581234623249"><ele>142.0</ele><time>2026-04-23T10:46:26Z</time></trkpt><trkpt lat="48.496956606350004" lon="7.725578025633542"><ele>142.75</ele><time>2026-04-23T10:46:28Z</time></trkpt><trkpt lat="48.497151370455136" lon="7.72560508031802"><ele>143.5</ele><time>2026-04-23T10:46:32Z</time></trkpt><trkpt lat="48.49725440582609" lon="7.725606225309865"><ele>144.25</ele><time>2026-04-23T10:46:34Z</time></trkpt><trkpt lat="48.49735260245542" lon="7.725621346208283"><ele>145.0</ele><time>2026-04-23T10:46:36Z</time></trkpt><trkpt lat="48.49745486746508" lon="7.725633458857088"><ele>145.0</ele><time>2026-04-23T10:46:38Z</time></trkpt><trkpt lat="48.497613021720845" lon="7.725659598586339"><ele>145.0</ele><time>2026-04-23T10:46:41Z</time></trkpt><trkpt lat="48.49770645905078" lon="7.725679077908102"><ele>145.0</ele><time>2026-04-23T10:46:43Z</time></trkpt><trkpt lat="48.4978367729465" lon="7.7256920797668185"><ele>145.0</ele><time>2026-04-23T10:46:46Z</time></trkpt><trkpt lat="48.49791029688661" lon="7.725720137600159"><ele>145.25</ele><time>2026-04-23T10:46:48Z</time></trkpt><trkpt lat="48.497980217916684" lon="7.725730901927816"><ele>145.5</ele><time>2026-04-23T10:46:49Z</time></trkpt><trkpt lat="48.49807175312799" lon="7.725761293199517"><ele>145.75</ele><time>2026-04-23T10:46:51Z</time></trkpt><trkpt lat="48.49822488082849" lon="7.725766286894326"><ele>146.0</ele><time>2026-04-23T10:46:54Z</time></trkpt><trkpt lat="48.49842900269582" lon="7.725807217955907"><ele>146.0</ele><time>2026-04-23T10:46:58Z</time></trkpt><trkpt lat="48.498529511830824" lon="7.725804052737851"><ele>146.0</ele><time>2026-04-23T10:47:00Z</time></trkpt><trkpt lat="48.49861481842357" lon="7.725823149976046"><ele>146.0</ele><time>2026-04-23T10:47:03Z</time></trkpt><trkpt lat="48.498782328181576" lon="7.725835598102528"><ele>146.0</ele><time>2026-04-23T10:47:07Z</time></trkpt><trkpt lat="48.49885935757982" lon="7.72585937799313"><ele>146.0</ele><time>2026-04-23T10:47:08Z</time></trkpt><trkpt lat="48.499063899298655" lon="7.725841621960341"><ele>146.0</ele><time>2026-04-23T10:47:11Z</time></trkpt><trkpt lat="48.499170399038086" lon="7.725883909892562"><ele>146.0</ele><time>2026-04-23T10:47:13Z</time></trkpt><trkpt lat="48.49928129959664" lon="7.725888523304158"><ele>146.0</ele><time>2026-04-23T10:47:15Z</time></trkpt><trkpt lat="48.499387601575336" lon="7.725881906109124"><ele>146.0</ele><time>2026-04-23T10:47:17Z</time></trkpt><trkpt lat="48.499490749381266" lon="7.725882304081693"><ele>146.0</ele><time>2026-04-23T10:47:19Z</time></trkpt><trkpt lat="48.499598655417735" lon="7.725906362713779"><ele>145.8</ele><time>2026-04-23T10:47:21Z</time></trkpt><trkpt lat="48.49970253602804" lon="7.725914951848231"><ele>145.6</ele><time>2026-04-23T10:47:23Z</time></trkpt><trkpt lat="48.49979374461846" lon="7.725929279029588"><ele>145.4</ele><time>2026-04-23T10:47:25Z</time></trkpt><trkpt lat="48.49989969096449" lon="7.725929856306487"><ele>145.2</ele><time>2026-04-23T10:47:27Z</time></trkpt><trkpt lat="48.50000409459989" lon="7.72593293344542"><ele>145.0</ele><time>2026-04-23T10:47:29Z</time></trkpt><trkpt lat="48.50010154867088" lon="7.725959909410044"><ele>145.0</ele><time>2026-04-23T10:47:31Z</time></trkpt><trkpt lat="48.50019731909142" lon="7.725976390002326"><ele>145.0</ele><time>2026-04-23T10:47:33Z</time></trkpt><trkpt lat="48.50028912768088" lon="7.725995642722038"><ele>145.0</ele><time>2026-04-23T10:47:35Z</time></trkpt><trkpt lat="48.50038086012409" lon="7.72602593823475"><ele>145.0</ele><time>2026-04-23T10:47:37Z</time></trkpt><trkpt lat="48.5004702454379" lon="7.726065239130008"><ele>145.0</ele><time>2026-04-23T10:47:39Z</time></trkpt><trkpt lat="48.50055112512797" lon="7.726109551999509"><ele>145.25</ele><time>2026-04-23T10:47:41Z</time></trkpt><trkpt lat="48.50069289082143" lon="7.726087961311105"><ele>145.5</ele><time>2026-04-23T10:47:44Z</time></trkpt><trkpt lat="48.500837878835846" lon="7.72609651538215"><ele>145.75</ele><time>2026-04-23T10:47:47Z</time></trkpt><trkpt lat="48.50098255732948" lon="7.726080549899917"><ele>146.0</ele><time>2026-04-23T10:47:50Z</time></trkpt><trkpt lat="48.50107938527471" lon="7.726081587676978"><ele>146.0</ele><time>2026-04-23T10:47:52Z</time></trkpt><trkpt lat="48.501186399629205" lon="7.7260886846420975"><ele>146.0</ele><time>2026-04-23T10:47:54Z</time></trkpt><trkpt lat="48.5012882962168" lon="7.726101271405779"><ele>146.0</ele><time>2026-04-23T10:47:56Z</time></trkpt><trkpt lat="48.501388057214086" lon="7.726100538559824"><ele>146.0</ele><time>2026-04-23T10:47:58Z</time></trkpt><trkpt lat="48.50147117532342" lon="7.726150521554074"><ele>146.0</ele><time>2026-04-23T10:48:00Z</time></trkpt><trkpt lat="48.50155342038427" lon="7.726181809693805"><ele>145.0</ele><time>2026-04-23T10:48:02Z</time></trkpt><trkpt lat="48.501762204093836" lon="7.726237699841533"><ele>144.0</ele><time>2026-04-23T10:48:07Z</time></trkpt><trkpt lat="48.50182735910939" lon="7.726271136466418"><ele>143.0</ele><time>2026-04-23T10:48:08Z</time></trkpt><trkpt lat="48.50185788629071" lon="7.726173992070662"><ele>142.0</ele><time>2026-04-23T10:48:09Z</time></trkpt><trkpt lat="48.50203639264147" lon="7.726166749135646"><ele>142.75</ele><time>2026-04-23T10:48:12Z</time></trkpt><trkpt lat="48.50213642793054" lon="7.726156685896019"><ele>143.5</ele><time>2026-04-23T10:48:14Z</time></trkpt><trkpt lat="48.502386473476456" lon="7.726154545519283"><ele>144.25</ele><time>2026-04-23T10:48:21Z</time></trkpt><trkpt lat="48.50245994756849" lon="7.726175082024768"><ele>145.0</ele><time>2026-04-23T10:48:23Z</time></trkpt><trkpt lat="48.502534587479786" lon="7.726177256196436"><ele>145.0</ele><time>2026-04-23T10:48:25Z</time></trkpt><trkpt lat="48.50262052443237" lon="7.726215538841909"><ele>145.0</ele><time>2026-04-23T10:48:28Z</time></trkpt><trkpt lat="48.50270902732326" lon="7.726225444864308"><ele>145.0</ele><time>2026-04-23T10:48:31Z</time></trkpt><trkpt lat="48.50279646331954" lon="7.726267522296411"><ele>145.0</ele><time>2026-04-23T10:48:34Z</time></trkpt><trkpt lat="48.50286602768637" lon="7.726263195039262"><ele>145.0</ele><time>2026-04-23T10:48:36Z</time></trkpt><trkpt lat="48.502959265216255" lon="7.726293133092902"><ele>145.0</ele><time>2026-04-23T10:48:39Z</time></trkpt><trkpt lat="48.50303683395224" lon="7.726327220289365"><ele>148.0</ele><time>2026-04-23T10:48:42Z</time></trkpt><trkpt lat="48.50355504533147" lon="7.7262902077373825"><ele>148.0</ele><time>2026-04-23T10:48:46Z</time></trkpt><trkpt lat="48.50361867921575" lon="7.726292712971865"><ele>148.0</ele><time>2026-04-23T10:48:47Z</time></trkpt><trkpt lat="48.503684212875854" lon="7.726290254829647"><ele>148.0</ele><time>2026-04-23T10:48:48Z</time></trkpt><trkpt lat="48.50381009717529" lon="7.7263065098330745"><ele>148.0</ele><time>2026-04-23T10:48:50Z</time></trkpt><trkpt lat="48.50387381725176" lon="7.726300626813539"><ele>148.0</ele><time>2026-04-23T10:48:51Z</time></trkpt><trkpt lat="48.50399067058968" lon="7.726304800705494"><ele>148.0</ele><time>2026-04-23T10:48:53Z</time></trkpt><trkpt lat="48.50408301932757" lon="7.72634641507395"><ele>148.33333333333334</ele><time>2026-04-23T10:48:55Z</time></trkpt><trkpt lat="48.504181449452" lon="7.7263642983097345"><ele>148.66666666666666</ele><time>2026-04-23T10:48:57Z</time></trkpt><trkpt lat="48.50430835076259" lon="7.726324101690659"><ele>149.0</ele><time>2026-04-23T10:48:59Z</time></trkpt><trkpt lat="48.504532976121176" lon="7.726306328557176"><ele>148.5</ele><time>2026-04-23T10:49:04Z</time></trkpt><trkpt lat="48.50474778549912" lon="7.726344604454219"><ele>148.0</ele><time>2026-04-23T10:49:10Z</time></trkpt><trkpt lat="48.504832658988505" lon="7.726384990539282"><ele>147.5</ele><time>2026-04-23T10:49:12Z</time></trkpt><trkpt lat="48.50493206517415" lon="7.726411338115007"><ele>147.0</ele><time>2026-04-23T10:49:14Z</time></trkpt><trkpt lat="48.50499552983572" lon="7.726426129171645"><ele>147.0</ele><time>2026-04-23T10:49:15Z</time></trkpt><trkpt lat="48.50509145168874" lon="7.726451055905315"><ele>147.0</ele><time>2026-04-23T10:49:19Z</time></trkpt><trkpt lat="48.5051863367453" lon="7.726456441646579"><ele>147.0</ele><time>2026-04-23T10:49:21Z</time></trkpt><trkpt lat="48.50525488754654" lon="7.726459080601438"><ele>147.0</ele><time>2026-04-23T10:49:22Z</time></trkpt><trkpt lat="48.5054802174169" lon="7.72646484729641"><ele>146.75</ele><time>2026-04-23T10:49:26Z</time></trkpt><trkpt lat="48.50557860113096" lon="7.726475987797972"><ele>146.5</ele><time>2026-04-23T10:49:28Z</time></trkpt><trkpt lat="48.50573209616914" lon="7.726476473442148"><ele>146.25</ele><time>2026-04-23T10:49:31Z</time></trkpt><trkpt lat="48.505817972486575" lon="7.726498905449339"><ele>146.0</ele><time>2026-04-23T10:49:33Z</time></trkpt><trkpt lat="48.50604605375659" lon="7.726532535427864"><ele>146.0</ele><time>2026-04-23T10:49:38Z</time></trkpt><trkpt lat="48.506159978873946" lon="7.726582189627735"><ele>146.0</ele><time>2026-04-23T10:49:40Z</time></trkpt><trkpt lat="48.506408893534086" lon="7.726602081507461"><ele>146.0</ele><time>2026-04-23T10:49:45Z</time></trkpt><trkpt lat="48.50647757702623" lon="7.726622749394937"><ele>146.0</ele><time>2026-04-23T10:49:48Z</time></trkpt><trkpt lat="48.50657403257067" lon="7.726646435781081"><ele>145.8</ele><time>2026-04-23T10:49:51Z</time></trkpt><trkpt lat="48.50664663019977" lon="7.726694622267265"><ele>145.6</ele><time>2026-04-23T10:49:54Z</time></trkpt><trkpt lat="48.50672446966939" lon="7.72671322686561"><ele>145.4</ele><time>2026-04-23T10:49:56Z</time></trkpt><trkpt lat="48.506900737546616" lon="7.726742742364248"><ele>145.2</ele><time>2026-04-23T10:49:59Z</time></trkpt><trkpt lat="48.50696931822353" lon="7.726760969539483"><ele>145.0</ele><time>2026-04-23T10:50:00Z</time></trkpt><trkpt lat="48.50722000831445" lon="7.7267780312264245"><ele>145.0</ele><time>2026-04-23T10:50:05Z</time></trkpt><trkpt lat="48.50751564345257" lon="7.7267885659467685"><ele>145.0</ele><time>2026-04-23T10:50:11Z</time></trkpt><trkpt lat="48.50758525095345" lon="7.726790659234201"><ele>145.0</ele><time>2026-04-23T10:50:12Z</time></trkpt><trkpt lat="48.50771761161245" lon="7.726801409104392"><ele>145.0</ele><time>2026-04-23T10:50:14Z</time></trkpt><trkpt lat="48.50782413057418" lon="7.726813502430015"><ele>145.0</ele><time>2026-04-23T10:50:16Z</time></trkpt><trkpt lat="48.507930026179274" lon="7.726824083088885"><ele>145.0</ele><time>2026-04-23T10:50:18Z</time></trkpt><trkpt lat="48.508006619414196" lon="7.726824502521797"><ele>145.0</ele><time>2026-04-23T10:50:19Z</time></trkpt><trkpt lat="48.50812135665779" lon="7.726844216404827"><ele>145.0</ele><time>2026-04-23T10:50:21Z</time></trkpt><trkpt lat="48.508209974790276" lon="7.726873407466286"><ele>145.0</ele><time>2026-04-23T10:50:23Z</time></trkpt><trkpt lat="48.508407110093195" lon="7.726879418711562"><ele>145.0</ele><time>2026-04-23T10:50:27Z</time></trkpt><trkpt lat="48.50851158503136" lon="7.726896996804785"><ele>145.0</ele><time>2026-04-23T10:50:29Z</time></trkpt><trkpt lat="48.50860842572442" lon="7.726899383715434"><ele>145.0</ele><time>2026-04-23T10:50:31Z</time></trkpt><trkpt lat="48.50870662652527" lon="7.726915114732533"><ele>145.4</ele><time>2026-04-23T10:50:33Z</time></trkpt><trkpt lat="48.50878894055955" lon="7.726942496939212"><ele>145.8</ele><time>2026-04-23T10:50:35Z</time></trkpt><trkpt lat="48.508886916161266" lon="7.72697439836031"><ele>146.2</ele><time>2026-04-23T10:50:37Z</time></trkpt><trkpt lat="48.50897434431556" lon="7.727010752821858"><ele>146.6</ele><time>2026-04-23T10:50:39Z</time></trkpt><trkpt lat="48.50907616351088" lon="7.727020421750805"><ele>147.0</ele><time>2026-04-23T10:50:41Z</time></trkpt><trkpt lat="48.50916712307794" lon="7.727050070725913"><ele>147.0</ele><time>2026-04-23T10:50:43Z</time></trkpt><trkpt lat="48.50927923138117" lon="7.72706586459702"><ele>147.0</ele><time>2026-04-23T10:50:45Z</time></trkpt><trkpt lat="48.50938780979008" lon="7.727099618504277"><ele>147.0</ele><time>2026-04-23T10:50:47Z</time></trkpt><trkpt lat="48.50945178770265" lon="7.727136477176852"><ele>147.0</ele><time>2026-04-23T10:50:50Z</time></trkpt><trkpt lat="48.50951842277584" lon="7.727150318136279"><ele>147.0</ele><time>2026-04-23T10:50:52Z</time></trkpt><trkpt lat="48.50963724611515" lon="7.727161782062351"><ele>146.0</ele><time>2026-04-23T10:50:54Z</time></trkpt><trkpt lat="48.5097397464384" lon="7.72718384224892"><ele>145.0</ele><time>2026-04-23T10:50:56Z</time></trkpt><trkpt lat="48.509845719513216" lon="7.7271958976821296"><ele>144.0</ele><time>2026-04-23T10:50:58Z</time></trkpt><trkpt lat="48.51006659379601" lon="7.727210117866326"><ele>143.0</ele><time>2026-04-23T10:51:02Z</time></trkpt><trkpt lat="48.510174461629155" lon="7.72722177664946"><ele>143.0</ele><time>2026-04-23T10:51:04Z</time></trkpt><trkpt lat="48.510271951106944" lon="7.727239255556053"><ele>143.0</ele><time>2026-04-23T10:51:06Z</time></trkpt><trkpt lat="48.51036840987564" lon="7.7272624514316455"><ele>143.0</ele><time>2026-04-23T10:51:08Z</time></trkpt><trkpt lat="48.51045957239876" lon="7.7272788179215715"><ele>143.0</ele><time>2026-04-23T10:51:10Z</time></trkpt><trkpt lat="48.51055397067703" lon="7.727312043571283"><ele>143.0</ele><time>2026-04-23T10:51:12Z</time></trkpt><trkpt lat="48.51065084756185" lon="7.727337992021041"><ele>143.0</ele><time>2026-04-23T10:51:14Z</time></trkpt><trkpt lat="48.510770726486" lon="7.727365628296662"><ele>143.0</ele><time>2026-04-23T10:51:16Z</time></trkpt><trkpt lat="48.510887516432156" lon="7.727380748188746"><ele>143.0</ele><time>2026-04-23T10:51:18Z</time></trkpt><trkpt lat="48.51097632500622" lon="7.727294506927543"><ele>143.0</ele><time>2026-04-23T10:51:20Z</time></trkpt><trkpt lat="48.51107358229135" lon="7.727257224219951"><ele>143.0</ele><time>2026-04-23T10:51:22Z</time></trkpt><trkpt lat="48.511186393167016" lon="7.7272586981560645"><ele>144.20000000000002</ele><time>2026-04-23T10:51:24Z</time></trkpt><trkpt lat="48.51129981227399" lon="7.727264019155455"><ele>145.4</ele><time>2026-04-23T10:51:26Z</time></trkpt><trkpt lat="48.51140915318866" lon="7.7272737020230835"><ele>146.60000000000002</ele><time>2026-04-23T10:51:28Z</time></trkpt><trkpt lat="48.51151478209233" lon="7.727290526550658"><ele>147.8</ele><time>2026-04-23T10:51:30Z</time></trkpt><trkpt lat="48.51161511190223" lon="7.727308095134621"><ele>149.0</ele><time>2026-04-23T10:51:32Z</time></trkpt><trkpt lat="48.51181493417973" lon="7.727330232151673"><ele>149.0</ele><time>2026-04-23T10:51:36Z</time></trkpt><trkpt lat="48.511902225075495" lon="7.727340981585632"><ele>149.0</ele><time>2026-04-23T10:51:38Z</time></trkpt><trkpt lat="48.51201632016547" lon="7.727363205634038"><ele>149.0</ele><time>2026-04-23T10:51:40Z</time></trkpt><trkpt lat="48.51208057756239" lon="7.72737234037812"><ele>149.0</ele><time>2026-04-23T10:51:41Z</time></trkpt><trkpt lat="48.51221519434352" lon="7.727386248928576"><ele>149.0</ele><time>2026-04-23T10:51:44Z</time></trkpt><trkpt lat="48.51232561279621" lon="7.727389903489682"><ele>149.75</ele><time>2026-04-23T10:51:46Z</time></trkpt><trkpt lat="48.51242088656453" lon="7.727402487648203"><ele>150.5</ele><time>2026-04-23T10:51:48Z</time></trkpt><trkpt lat="48.5125252368237" lon="7.727418364835632"><ele>151.25</ele><time>2026-04-23T10:51:50Z</time></trkpt><trkpt lat="48.512716696294" lon="7.727432718311966"><ele>152.0</ele><time>2026-04-23T10:51:54Z</time></trkpt><trkpt lat="48.51281555657364" lon="7.727456043697494"><ele>151.2</ele><time>2026-04-23T10:51:56Z</time></trkpt><trkpt lat="48.51293448536688" lon="7.727464611411212"><ele>150.39999999999998</ele><time>2026-04-23T10:52:01Z</time></trkpt><trkpt lat="48.51300486749455" lon="7.7274742391502835"><ele>149.60000000000002</ele><time>2026-04-23T10:52:03Z</time></trkpt><trkpt lat="48.51307353300839" lon="7.727491862080902"><ele>148.8</ele><time>2026-04-23T10:52:05Z</time></trkpt><trkpt lat="48.51321368741439" lon="7.727506832769708"><ele>148.0</ele><time>2026-04-23T10:52:09Z</time></trkpt><trkpt lat="48.51334679203467" lon="7.727516448035483"><ele>148.0</ele><time>2026-04-23T10:52:12Z</time></trkpt><trkpt lat="48.51355411895183" lon="7.727559226377353"><ele>148.0</ele><time>2026-04-23T10:52:15Z</time></trkpt><trkpt lat="48.51366694716768" lon="7.727592364876953"><ele>148.0</ele><time>2026-04-23T10:52:17Z</time></trkpt><trkpt lat="48.51389758824198" lon="7.7276234797994015"><ele>148.5</ele><time>2026-04-23T10:52:21Z</time></trkpt><trkpt lat="48.51399753897589" lon="7.727637526097072"><ele>149.0</ele><time>2026-04-23T10:52:23Z</time></trkpt><trkpt lat="48.514152877793165" lon="7.727637875670889"><ele>149.5</ele><time>2026-04-23T10:52:26Z</time></trkpt><trkpt lat="48.514315670542274" lon="7.727652039167575"><ele>150.0</ele><time>2026-04-23T10:52:29Z</time></trkpt><trkpt lat="48.514603130912896" lon="7.727678642529993"><ele>150.0</ele><time>2026-04-23T10:52:34Z</time></trkpt><trkpt lat="48.514830500986314" lon="7.727694811446262"><ele>150.0</ele><time>2026-04-23T10:52:41Z</time></trkpt><trkpt lat="48.514910881687626" lon="7.727735003476903"><ele>150.0</ele><time>2026-04-23T10:52:43Z</time></trkpt><trkpt lat="48.5150911448303" lon="7.727745635493931"><ele>149.6</ele><time>2026-04-23T10:52:48Z</time></trkpt><trkpt lat="48.51516160768825" lon="7.727747570295529"><ele>149.2</ele><time>2026-04-23T10:52:50Z</time></trkpt><trkpt lat="48.51523166072588" lon="7.72779804818484"><ele>148.8</ele><time>2026-04-23T10:52:52Z</time></trkpt><trkpt lat="48.51530770147077" lon="7.727811861257845"><ele>148.4</ele><time>2026-04-23T10:52:54Z</time></trkpt><trkpt lat="48.51552719003473" lon="7.72780996537303"><ele>148.0</ele><time>2026-04-23T10:53:00Z</time></trkpt><trkpt lat="48.51574241804631" lon="7.727805002419243"><ele>147.8</ele><time>2026-04-23T10:53:06Z</time></trkpt><trkpt lat="48.51587295423178" lon="7.727812034742722"><ele>147.60000000000002</ele><time>2026-04-23T10:53:10Z</time></trkpt><trkpt lat="48.5159840118215" lon="7.72781781205637"><ele>147.39999999999998</ele><time>2026-04-23T10:53:13Z</time></trkpt><trkpt lat="48.51604978879756" lon="7.7278323036327246"><ele>147.2</ele><time>2026-04-23T10:53:15Z</time></trkpt><trkpt lat="48.51611827892614" lon="7.727851474037318"><ele>147.0</ele><time>2026-04-23T10:53:17Z</time></trkpt><trkpt lat="48.516609124285" lon="7.727967993680063"><ele>147.0</ele><time>2026-04-23T10:53:20Z</time></trkpt><trkpt lat="48.51687009547194" lon="7.728013265223968"><ele>147.0</ele><time>2026-04-23T10:53:23Z</time></trkpt><trkpt lat="48.51709194060644" lon="7.728005078205128"><ele>147.0</ele><time>2026-04-23T10:53:26Z</time></trkpt><trkpt lat="48.517165284178155" lon="7.727994103309593"><ele>147.0</ele><time>2026-04-23T10:53:27Z</time></trkpt><trkpt lat="48.51730989724222" lon="7.72801415372618"><ele>147.0</ele><time>2026-04-23T10:53:29Z</time></trkpt><trkpt lat="48.51748414344879" lon="7.72801899619052"><ele>147.0</ele><time>2026-04-23T10:53:31Z</time></trkpt><trkpt lat="48.51756175874293" lon="7.728040302542526"><ele>147.0</ele><time>2026-04-23T10:53:32Z</time></trkpt><trkpt lat="48.51764056318768" lon="7.728044999128631"><ele>147.0</ele><time>2026-04-23T10:53:33Z</time></trkpt><trkpt lat="48.51772516846766" lon="7.728060616899297"><ele>147.0</ele><time>2026-04-23T10:53:34Z</time></trkpt><trkpt lat="48.51785037153215" lon="7.728088399641458"><ele>147.0</ele><time>2026-04-23T10:53:36Z</time></trkpt><trkpt lat="48.51792059296592" lon="7.728100550491764"><ele>147.0</ele><time>2026-04-23T10:53:37Z</time></trkpt><trkpt lat="48.51798573844445" lon="7.7281012411449295"><ele>147.0</ele><time>2026-04-23T10:53:38Z</time></trkpt><trkpt lat="48.518106049774566" lon="7.728107583955542"><ele>146.25</ele><time>2026-04-23T10:53:41Z</time></trkpt><trkpt lat="48.518226288582866" lon="7.728114580783264"><ele>145.5</ele><time>2026-04-23T10:53:47Z</time></trkpt><trkpt lat="48.51833139360229" lon="7.728146076220026"><ele>144.75</ele><time>2026-04-23T10:53:49Z</time></trkpt><trkpt lat="48.51840654203908" lon="7.728203972819255"><ele>144.0</ele><time>2026-04-23T10:53:51Z</time></trkpt><trkpt lat="48.51890187807056" lon="7.728262445918008"><ele>143.33333333333334</ele><time>2026-04-23T10:53:56Z</time></trkpt><trkpt lat="48.519136849740995" lon="7.72826926263445"><ele>142.66666666666669</ele><time>2026-04-23T10:53:58Z</time></trkpt><trkpt lat="48.51934329225654" lon="7.728270643569994"><ele>142.0</ele><time>2026-04-23T10:54:02Z</time></trkpt><trkpt lat="48.519438176724314" lon="7.72828150744912"><ele>142.0</ele><time>2026-04-23T10:54:04Z</time></trkpt><trkpt lat="48.519555288471686" lon="7.728284731173963"><ele>142.0</ele><time>2026-04-23T10:54:06Z</time></trkpt><trkpt lat="48.519634365812564" lon="7.728333226616873"><ele>142.0</ele><time>2026-04-23T10:54:08Z</time></trkpt><trkpt lat="48.519750251741755" lon="7.728319395122631"><ele>142.0</ele><time>2026-04-23T10:54:10Z</time></trkpt><trkpt lat="48.51982590265803" lon="7.728375447780635"><ele>142.0</ele><time>2026-04-23T10:54:13Z</time></trkpt><trkpt lat="48.51991705504222" lon="7.72839088637371"><ele>142.0</ele><time>2026-04-23T10:54:15Z</time></trkpt><trkpt lat="48.52001358190027" lon="7.728413349446854"><ele>142.0</ele><time>2026-04-23T10:54:17Z</time></trkpt><trkpt lat="48.52007476992483" lon="7.728495160034323"><ele>142.0</ele><time>2026-04-23T10:54:22Z</time></trkpt><trkpt lat="48.520142212413994" lon="7.728580603092737"><ele>142.0</ele><time>2026-04-23T10:54:23Z</time></trkpt><trkpt lat="48.520198183703464" lon="7.728646206276584"><ele>142.0</ele><time>2026-04-23T10:54:24Z</time></trkpt><trkpt lat="48.52059563818816" lon="7.728604474920299"><ele>142.0</ele><time>2026-04-23T10:54:25Z</time></trkpt><trkpt lat="48.520678320986235" lon="7.728554202767348"><ele>142.0</ele><time>2026-04-23T10:54:27Z</time></trkpt><trkpt lat="48.520771551055475" lon="7.7285694420823"><ele>142.0</ele><time>2026-04-23T10:54:29Z</time></trkpt><trkpt lat="48.52085582603506" lon="7.728529826548143"><ele>142.0</ele><time>2026-04-23T10:54:31Z</time></trkpt><trkpt lat="48.52094146747531" lon="7.728499846430118"><ele>142.0</ele><time>2026-04-23T10:54:33Z</time></trkpt><trkpt lat="48.52103030146113" lon="7.728469326931815"><ele>142.0</ele><time>2026-04-23T10:54:35Z</time></trkpt><trkpt lat="48.521244429487446" lon="7.728453023630593"><ele>142.0</ele><time>2026-04-23T10:54:41Z</time></trkpt><trkpt lat="48.52120472625546" lon="7.728361277975011"><ele>142.0</ele><time>2026-04-23T10:54:43Z</time></trkpt><trkpt lat="48.521203300189086" lon="7.728223864176613"><ele>142.0</ele><time>2026-04-23T10:54:46Z</time></trkpt><trkpt lat="48.5211980029935" lon="7.728103709123091"><ele>142.0</ele><time>2026-04-23T10:54:48Z</time></trkpt><trkpt lat="48.52117293291146" lon="7.727994884914705"><ele>142.0</ele><time>2026-04-23T10:54:50Z</time></trkpt><trkpt lat="48.52117577648066" lon="7.727866571909756"><ele>142.0</ele><time>2026-04-23T10:54:52Z</time></trkpt><trkpt lat="48.52116946699433" lon="7.727760949132608"><ele>142.0</ele><time>2026-04-23T10:54:54Z</time></trkpt><trkpt lat="48.521143064685305" lon="7.727656115739277"><ele>142.0</ele><time>2026-04-23T10:54:56Z</time></trkpt><trkpt lat="48.52114129733704" lon="7.727535747897363"><ele>142.0</ele><time>2026-04-23T10:54:58Z</time></trkpt><trkpt lat="48.521128401077355" lon="7.7274233139408315"><ele>141.83333333333334</ele><time>2026-04-23T10:55:00Z</time></trkpt><trkpt lat="48.52109882734859" lon="7.727327695940766"><ele>141.66666666666669</ele><time>2026-04-23T10:55:02Z</time></trkpt><trkpt lat="48.521062232391586" lon="7.727237939931542"><ele>141.5</ele><time>2026-04-23T10:55:04Z</time></trkpt><trkpt lat="48.52106608987666" lon="7.727107317974102"><ele>141.33333333333334</ele><time>2026-04-23T10:55:06Z</time></trkpt><trkpt lat="48.52110370138664" lon="7.726974367410196"><ele>141.16666666666666</ele><time>2026-04-23T10:55:08Z</time></trkpt><trkpt lat="48.5211515751659" lon="7.726869456198317"><ele>141.0</ele><time>2026-04-23T10:55:10Z</time></trkpt><trkpt lat="48.52119104786657" lon="7.726747568529793"><ele>140.83333333333334</ele><time>2026-04-23T10:55:12Z</time></trkpt><trkpt lat="48.52122021057406" lon="7.7266130002309215"><ele>140.66666666666666</ele><time>2026-04-23T10:55:14Z</time></trkpt><trkpt lat="48.52123913939402" lon="7.72650096460908"><ele>140.5</ele><time>2026-04-23T10:55:16Z</time></trkpt><trkpt lat="48.52127000471504" lon="7.7263808265149825"><ele>140.33333333333331</ele><time>2026-04-23T10:55:18Z</time></trkpt><trkpt lat="48.5212991070278" lon="7.726259759819266"><ele>140.16666666666666</ele><time>2026-04-23T10:55:20Z</time></trkpt><trkpt lat="48.52130574670854" lon="7.726139092992709"><ele>140.0</ele><time>2026-04-23T10:55:22Z</time></trkpt><trkpt lat="48.521305749003425" lon="7.726012621382538"><ele>140.0</ele><time>2026-04-23T10:55:24Z</time></trkpt><trkpt lat="48.521326956873686" lon="7.725895309666939"><ele>140.0</ele><time>2026-04-23T10:55:26Z</time></trkpt><trkpt lat="48.52140687599026" lon="7.72585217189877"><ele>140.0</ele><time>2026-04-23T10:55:28Z</time></trkpt><trkpt lat="48.521500821909534" lon="7.725890844129547"><ele>140.0</ele><time>2026-04-23T10:55:30Z</time></trkpt><trkpt lat="48.52159032582527" lon="7.725880421483933"><ele>140.0</ele><time>2026-04-23T10:55:32Z</time></trkpt><trkpt lat="48.52168504187031" lon="7.725880218172731"><ele>140.0</ele><time>2026-04-23T10:55:34Z</time></trkpt><trkpt lat="48.521776282366325" lon="7.725854612935261"><ele>140.0</ele><time>2026-04-23T10:55:36Z</time></trkpt><trkpt lat="48.52187611194058" lon="7.725859663149672"><ele>140.0</ele><time>2026-04-23T10:55:38Z</time></trkpt><trkpt lat="48.521969345784356" lon="7.7258385442032385"><ele>140.0</ele><time>2026-04-23T10:55:40Z</time></trkpt><trkpt lat="48.52206520142496" lon="7.725848723192854"><ele>140.0</ele><time>2026-04-23T10:55:44Z</time></trkpt><trkpt lat="48.52213128449587" lon="7.725828791908551"><ele>140.0</ele><time>2026-04-23T10:55:46Z</time></trkpt><trkpt lat="48.52220474971377" lon="7.725815862095573"><ele>140.0</ele><time>2026-04-23T10:55:48Z</time></trkpt><trkpt lat="48.5223034111487" lon="7.725792441265892"><ele>140.0</ele><time>2026-04-23T10:55:50Z</time></trkpt><trkpt lat="48.52236889559565" lon="7.725777660849656"><ele>140.0</ele><time>2026-04-23T10:55:52Z</time></trkpt><trkpt lat="48.522464211293375" lon="7.725735781657669"><ele>140.0</ele><time>2026-04-23T10:55:55Z</time></trkpt><trkpt lat="48.52253117185425" lon="7.725711910036996"><ele>140.0</ele><time>2026-04-23T10:55:57Z</time></trkpt><trkpt lat="48.52259647710325" lon="7.725688447573144"><ele>140.0</ele><time>2026-04-23T10:55:59Z</time></trkpt><trkpt lat="48.52300178337675" lon="7.725515862308864"><ele>140.6</ele><time>2026-04-23T10:56:02Z</time></trkpt><trkpt lat="48.52310594791207" lon="7.725475319505819"><ele>141.2</ele><time>2026-04-23T10:56:04Z</time></trkpt><trkpt lat="48.5232033399838" lon="7.725444433781478"><ele>141.8</ele><time>2026-04-23T10:56:06Z</time></trkpt><trkpt lat="48.523298174653235" lon="7.72540656453239"><ele>142.4</ele><time>2026-04-23T10:56:08Z</time></trkpt><trkpt lat="48.523378241423494" lon="7.72536116304212"><ele>143.0</ele><time>2026-04-23T10:56:10Z</time></trkpt><trkpt lat="48.52345413676026" lon="7.725313734923673"><ele>143.0</ele><time>2026-04-23T10:56:13Z</time></trkpt><trkpt lat="48.52344784048689" lon="7.725185860104443"><ele>142.0</ele><time>2026-04-23T10:56:16Z</time></trkpt><trkpt lat="48.52340190225918" lon="7.725118924242302"><ele>142.0</ele><time>2026-04-23T10:56:18Z</time></trkpt><trkpt lat="48.523324008607716" lon="7.725196138732911"><ele>142.0</ele><time>2026-04-23T10:56:26Z</time></trkpt></trkseg></trk></gpx>